     2              OBSERVATION DATA    GPS                 RINEX VERSION / TYPE
teqc 2000Jul20 Karen Wendt 20030613 20:05:11UTC             PGM / RUN BY / DATE
                                                            COMMENT
L2: 1 -> 1; 150 -> 5; 250 -> 9                              COMMENT
L2: 1 -> 1; 150 -> 5; 250 -> 9                              COMMENT
L2: 1 -> 1; 150 -> 5; 250 -> 9                              COMMENT
L2: 1 -> 1; 150 -> 5; 250 -> 9                              COMMENT
L2: 1 -> 1; 150 -> 5; 250 -> 9                              COMMENT
L2: 1 -> 1; 150 -> 5; 250 -> 9                              COMMENT
L2: 1 -> 1; 150 -> 5; 250 -> 9                              COMMENT
L2: 1 -> 1; 150 -> 5; 250 -> 9                              COMMENT
L2: 1 -> 1; 150 -> 5; 250 -> 9                              COMMENT
L2: 1 -> 1; 150 -> 5; 250 -> 9                              COMMENT
L2: 1 -> 1; 150 -> 5; 250 -> 9                              COMMENT
L2: 1 -> 1; 150 -> 5; 250 -> 9                              COMMENT
L2: 1 -> 1; 150 -> 5; 250 -> 9                              COMMENT
L2: 1 -> 1; 150 -> 5; 250 -> 9                              COMMENT
Original Marker Name: cerr Cerro_Gordo_1934_USC&GS          COMMENT
Campaign Name: USGS Death Valley 2003                       COMMENT
4-Character Station Name: CERR                              COMMENT
6-Character Antenna Code: DMRCHT                            COMMENT
Vertical Measurement Point: BCR                             COMMENT
Vertical Offset to Rinex Ref. Point: 0.0348                 COMMENT
Radial Measurement Point: ECF                               COMMENT
Radial Offset to Rinex Ref. Point: 0.1897                   COMMENT
Antenna Height from Field Measurement: 0.6130 m             COMMENT
Additional Antenna Identification Info.:                    COMMENT
Turborogue and Ashtech Choke Ring                           COMMENT
Original XYZ: -2392862.0462 -4541072.2530 3777968.7162      COMMENT
New XYZ position is based on association with SCEC monument COMMENT
E1G0A3W0+0011. Position of that monument is believed to be  COMMENT
valid to within 1 m horizontally; vertical accuracy         COMMENT
should be no worse than 3-times this value.                 COMMENT
                                                            COMMENT
Revised Rinex header created by UCSD GPS archive for        COMMENT
GSAC on 20-Apr-2005 (2005:110) 16:32:46 GMT                 COMMENT
For assistance contact dagnew@ucsd.edu                      COMMENT
or anderson@python.ucsd.edu                                 COMMENT
                                                            COMMENT
CERRO GORDO 1934                                            MARKER NAME
JLS US GEOLOGICAL SURVEY                                    OBSERVER / AGENCY
ZE120023204 ASHTECH UZ-12 ZC00                              REC # / TYPE / VERS
CR620022602 DORNE-MARGOL. TYPE T                            ANT # / TYPE
 -2392881.0000 -4541046.0000  3777947.0000                  APPROX POSITION XYZ
        0.5481        0.0000        0.0000                  ANTENNA: DELTA H/E/N
     1     1     0                                          WAVELENGTH FACT L1/2
     5    C1    L1    L2    P1    P2                        # / TYPES OF OBSERV
    30                                                      INTERVAL
  2003     6     9     0     0    0.000000                  TIME OF FIRST OBS
  2003     6     9    23    59   30.000000                  TIME OF LAST OBS
                                                            END OF HEADER
 03  6  9  0  0  0.0000000  0  5G25G14G11G20G 1
  20694069.970   -25303983.13444 -19668284.16342  20694072.414    20694069.653
  23421020.824   -11920302.62343  -8185823.27342  23421023.250    23421021.526
  21581625.801   -22211337.94444 -17253850.71542  21581628.317    21581625.943
  22402008.891   -17333045.52343 -13227742.23942  22402011.026    22402009.266
  23665447.426   -11255328.51143  -8536541.84142  23665450.182    23665452.798
 03  6  9  0  0 30.0000000  0  6G25G14G16G11G20G 1
  20698417.842   -25281134.73844 -19650480.20742  20698420.310    20698417.524
  23435581.547   -11843785.59743  -8126199.65942  23435584.011    23435582.252
  24662744.242    -5257613.19853  -4054441.00552  24662747.347    24662753.461
  21587699.411   -22179421.01444 -17228980.40142  21587701.937    21587699.575
  22386179.352   -17416230.14743 -13292561.36842  22386181.477    22386179.702
  23652146.986   -11325221.38043  -8591003.58442  23652149.693    23652152.504
 03  6  9  0  1  0.0000000  0  6G25G14G16G11G20G 1
  20702858.314   -25257799.78344 -19632297.11642  20702860.781    20702858.011
  23450147.807   -11767239.34543  -8066553.29242  23450150.297    23450148.545
  24645575.056    -5347835.91743  -4124744.03042  24645578.206    24645584.251
  21593870.572   -22146991.61644 -17203710.77342  21593873.083    21593870.681
  22370377.727   -17499267.95743 -13357266.09642  22370379.864    22370378.080
  23638873.418   -11394973.74743  -8645355.85942  23638876.060    23638878.917
 03  6  9  0  1 30.0000000  0  6G25G14G16G11G20G 1
  20707388.027   -25233995.83644 -19613748.57942  20707390.497    20707387.730
  23464716.525   -11690680.53443  -8006897.14142  23464718.935    23464717.221
  24628392.063    -5438131.32543  -4195103.72542  24628395.285    24628401.220
  21600135.855   -22114067.35944 -17178055.53942  21600138.396    21600135.969
  22354601.383   -17582173.16743 -13421867.50542  22354603.509    22354601.696
  23625623.548   -11464601.87843  -8699611.32942  23625626.166    23625628.916
 03  6  9  0  2  0.0000000  0  6G25G14G16G11G20G 1
  20712006.977   -25209722.94744 -19594834.63042  20712009.462    20712006.703
  23479287.835   -11614108.05943  -7947230.33142  23479290.262    23479288.552
  24611196.104    -5528494.91543  -4265516.53142  24611199.250    24611205.202
  21606495.336   -22080648.26044 -17152014.71042  21606497.875    21606495.465
  22338850.903   -17664942.19343 -13486362.79742  22338853.041    22338851.224
  23612397.579   -11534104.20943  -8753768.76742  23612400.249    23612402.789
 03  6  9  0  2 30.0000000  0  6G25G14G16G11G20G 1
  20716718.223   -25184965.00844 -19575542.72142  20716720.707    20716717.957
  23493864.918   -11537505.22943  -7887539.87142  23493867.314    23493865.622
  24593991.082    -5618906.64343  -4335966.85442  24593994.347    24593999.949
  21612951.960   -22046718.63244 -17125576.06742  21612954.506    21612952.087
  22323129.946   -17747556.09043 -13550737.21242  22323132.117    22323130.265
  23599198.841   -11603463.54343  -8807814.80242  23599201.539    23599203.820
 03  6  9  0  3  0.0000000  0  6G25G14G16G11G20G 1
  20721521.591   -25159723.03644 -19555873.64542  20721524.056    20721521.346
  23508447.815   -11460871.79643  -7827825.55542  23508450.201    23508448.492
  24576777.505    -5709363.12243  -4406452.04642  24576780.990    24576786.373
  21619505.625   -22012279.20844 -17098740.18342  21619508.154    21619505.732
  22307438.949   -17830012.43443 -13614988.85942  22307441.119    22307439.271
  23586027.379   -11672679.33543  -8861748.98942  23586030.075    23586032.333
 03  6  9  0  3 30.0000000  0  6G25G14G16G11G20G 1
  20726416.670   -25133999.34144 -19535829.20042  20726419.103    20726416.396
  23523036.248   -11384209.37243  -7768088.68142  23523038.653    23523036.898
  24559555.717    -5799862.59443  -4476970.72542  24559558.957    24559564.478
  21626155.683   -21977333.07544 -17071509.45742  21626158.203    21626155.780
  22291778.178   -17912310.14043 -13679116.88442  22291780.339    22291778.476
  23572882.828   -11741752.80243  -8915572.26642  23572885.619    23572887.840
 03  6  9  0  4  0.0000000  0  6G25G14G16G11G20G 1
  20731401.543   -25107803.64244 -19515416.96342  20731403.962    20731401.261
  23537628.441   -11307526.96543  -7708336.21142  23537630.876    23537629.106
  24542324.700    -5890410.60943  -4547527.24142  24542327.902    24542333.327
  21632900.291   -21941890.00444 -17043891.51242  21632902.790    21632900.408
  22276146.347   -17994455.63743 -13743126.31442  22276148.482    22276146.659
  23559763.902   -11810692.40243  -8969291.22242  23559766.702    23559768.817
 03  6  9  0  4 30.0000000  0  6G25G14G16G11G20G 1
  20736476.420   -25081134.91744 -19494636.13242  20736478.852    20736476.158
  23552224.807   -11230822.76843  -7648566.77842  23552227.201    23552225.422
  24525085.275    -5981002.26343  -4618117.77542  24525088.375    24525093.993
  21639739.606   -21905949.14643 -17015885.68242  21639742.128    21639739.759
  22260544.269   -18076444.87143 -13807013.98242  22260546.371    22260544.554
  23546670.938   -11879495.94443  -9022904.17942  23546673.672    23546675.733
 03  6  9  0  5  0.0000000  0  6G25G14G16G11G20G 1
  20741641.094   -25053994.34144 -19473487.62342  20741643.517    20741640.816
  23566825.344   -11154096.57143  -7588780.19042  23566827.758    23566825.935
  24507838.366    -6071634.13343  -4688739.65242  24507841.453    24507847.007
  21646673.423   -21869511.79643 -16987492.97442  21646675.914    21646673.551
  22244972.479   -18158275.14543 -13870777.79642  22244974.527    22244972.709
  23533603.892   -11948162.96343  -9076410.75642  23533606.539    23533608.615
 03  6  9  0  5 30.0000000  0  6G25G14G16G11G20G 1
  20746894.514   -25026387.44544 -19451975.75342  20746896.939    20746894.236
  23581429.234   -11077353.13843  -7528980.17942  23581431.577    23581429.798
  24490583.631    -6162307.53543  -4759393.91342  24490586.603    24490592.132
  21653700.613   -21832583.79343 -16958717.94242  21653703.089    21653700.748
  22229430.461   -18239949.04443 -13934419.75542  22229432.458    22229430.597
  23520562.027   -12016697.87943  -9129814.39842  23520564.668    23520566.664
 03  6  9  0  6  0.0000000  0  6G25G14G16G11G20G 1
  20752236.392   -24998315.75744 -19430101.70842  20752238.816    20752236.105
  23596036.309   -11000592.76843  -7469166.97542  23596038.606    23596036.867
  24473321.508    -6253019.41643  -4830078.13742  24473324.452    24473329.992
  21660820.841   -21795166.86143 -16929561.92942  21660823.304    21660821.008
  22213918.588   -18321464.36443 -13997938.14342  22213920.567    22213918.699
  23507545.252   -12085100.73743  -9183115.12742  23507547.892    23507549.941
 03  6  9  0  6 30.0000000  0  6G25G14G16G11G20G 1
  20757669.770   -24969763.27044 -19407853.01442  20757672.203    20757669.450
  23610649.850   -10923798.33943  -7409327.22542  23610652.139    23610650.424
  24456055.784    -6343749.57343  -4900776.59642  24456058.881    24456064.129
  21668037.152   -21757244.75343 -16900012.26742  21668039.651    21668037.392
  22198440.644   -18402801.51143 -14061317.69742  22198442.581    22198440.726
  23494556.999   -12153353.88143  -9236299.21142  23494559.642    23494561.616
 03  6  9  0  7  0.0000000  0  6G25G14G16G11G20G 1
  20763191.987   -24940743.96244 -19385240.56242  20763194.403    20763191.627
  23625267.323   -10846982.96943  -7349471.15942  23625269.695    23625267.991
  24438784.771    -6434507.79043  -4971496.94542  24438787.764    24438793.139
  21675346.884   -21718831.98743 -16870080.28042  21675349.381    21675347.144
  22182994.573   -18483970.99543 -14124566.60142  22182996.505    22182994.626
  23481594.742   -12221470.09743  -9289376.59842  23481597.389    23481599.318
 03  6  9  0  7 30.0000000  0  6G25G14G16G11G20G 1
  20768801.572   -24911265.36244 -19362270.22042  20768803.992    20768801.208
  23639887.623   -10770152.87543  -7289603.61942  23639890.019    23639888.265
  24421507.776    -6525296.66143  -5042241.15942  24421510.876    24421516.424
  21682748.572   -21679935.99143 -16839771.75542  21682751.089    21682748.809
  22167579.615   -18564976.67943 -14187687.86342  22167581.594    22167579.702
  23468657.427   -12289455.35643  -9342351.93242  23468660.100    23468662.007
 03  6  9  0  8  0.0000000  0  6G25G14G16G11G20G 1
  20774500.812   -24881315.63344 -19338932.76742  20774503.230    20774500.453
  23654513.217   -10693295.27143  -7229714.62842  23654515.561    23654513.883
  24404228.087    -6616100.73243  -5112997.24442  24404231.028    24404236.615
  21690244.386   -21640545.43943 -16809077.85542  21690246.909    21690244.611
  22152198.779   -18645803.40043 -14250669.67742  22152200.763    22152198.856
  23455747.478   -12357296.47543  -9395214.94642  23455750.198    23455752.095
 03  6  9  0  8 30.0000000  0  6G25G14G16G11G20G 1
  20780288.757   -24850899.77144 -19315232.09442  20780291.178    20780288.404
  23669143.337   -10616413.95543  -7169807.18242  23669145.664    23669144.018
  24386945.588    -6706920.08643  -5183765.21642  24386948.527    24386953.824
  21697833.375   -21600665.35443 -16778002.50742  21697835.902    21697833.548
  22136851.702   -18726452.61643 -14313513.17642  22136853.722    22136851.757
  23442864.341   -12424997.06243  -9447968.46442  23442866.982    23442868.923
 03  6  9  0  9  0.0000000  0  6G25G14G16G11G20G 1
  20786162.948   -24820030.70444 -19291178.27142  20786165.365    20786162.595
  23683775.671   -10539520.85543  -7109890.53642  23683778.044    23683776.367
  24369658.411    -6797763.51843  -5254551.96742  24369661.403    24369666.518
  21705512.946   -21560309.08243 -16746556.10242  21705515.482    21705513.138
  22121536.627   -18806933.75643 -14376225.70842  22121538.665    22121536.655
  23430005.862   -12492568.66643  -9500621.49442  23430008.436    23430010.268
 03  6  9  0  9 30.0000000  0  6G25G14G16G11G20G 1
  20792128.256   -24788682.80344 -19266751.33642  20792130.673    20792127.891
  23698415.345   -10462589.22943  -7049943.89542  23698417.789    23698415.990
  24352372.390    -6888601.09643  -5325334.17142  24352375.397    24352380.178
  21713287.971   -21519451.31343 -16714718.92242  21713290.484    21713288.123
  22106259.047   -18887217.60843 -14438784.51042  22106261.117    22106259.075
  23417176.917   -12559984.20643  -9553152.89742  23417179.533    23417181.278
 03  6  9  0 10  0.0000000  0  6G25G14G16G11G20G 1
  20798179.686   -24756882.25144 -19241971.68142  20798182.106    20798179.320
  23713057.591   -10385644.08343  -6989986.69942  23713060.064    23713058.259
  24335083.406    -6979454.39143  -5396128.62342  24335086.407    24335091.110
  21721153.398   -21478118.55343 -16682511.61742  21721155.881    21721153.540
  22091014.778   -18967326.79843 -14501207.21342  22091016.799    22091014.750
  23404373.067   -12627268.44143  -9605581.98942  23404375.681    23404377.379
 03  6  9  0 10 30.0000000  0  6G25G14G16G11G20G 1
  20804316.296   -24724634.05044 -19216843.21042  20804318.717    20804315.946
  23727701.695   -10308688.77443  -6930021.60142  23727704.156    23727702.437
  24317791.311    -7070323.56143  -5466935.45642  24317794.334    24317798.954
  21729108.289   -21436315.70643 -16649938.01142  21729110.754    21729108.393
  22075803.494   -19047262.34743 -14563494.60242  22075805.536    22075803.492
  23391593.628   -12694424.48643  -9657911.21742  23391596.213    23391597.812
 03  6  9  0 11  0.0000000  0  6G25G14G16G11G20G 1
  20810537.018   -24691943.85644 -19191370.32842  20810539.460    20810536.666
  23742346.882   -10231727.91043  -6870052.15642  23742349.327    23742347.710
  24300495.960    -7161209.94643  -5537755.70742  24300499.055    24300503.507
  21737151.489   -21394048.71443 -16617002.73642  21737153.949    21737151.563
  22060624.847   -19127026.50443 -14625648.44942  22060626.880    22060624.855
  23378837.645   -12761456.82143  -9710144.03042  23378840.273    23378841.870
 03  6  9  0 11 30.0000000  0  6G25G14G16G11G20G 1
  20816843.890   -24658801.01444 -19165544.73642  20816846.317    20816843.526
  23756995.315   -10154750.00143  -6810069.43542  23756997.789    23756996.234
  24283200.152    -7252098.74843  -5608577.83842  24283203.160    24283207.598
  21745284.917   -21351307.46343 -16583697.90642  21745287.390    21745285.010
  22045481.535   -19206605.07643 -14687657.68142  22045483.549    22045481.511
  23366107.483   -12828353.42243  -9762271.08342  23366110.165    23366111.711
 03  6  9  0 12  0.0000000  0  6G25G14G16G11G20G 1
  20823235.311   -24625213.86944 -19139372.93442  20823237.724    20823234.936
  23771645.804   -10077761.92043  -6750078.78842  23771648.207    23771646.670
  24265903.262    -7342993.37743  -5679404.48942  24265906.233    24265910.632
  21753506.957   -21308100.42943 -16550030.13042  21753509.449    21753507.107
  22030372.655   -19286002.58543 -14749525.82742  22030374.686    22030372.662
  23353401.939   -12895120.98443  -9814297.59642  23353404.577    23353406.054
 03  6  9  0 12 30.0000000  0  6G25G14G16G11G20G 1
  20829714.485   -24591165.55244 -19112841.77742  20829716.907    20829714.100
  23786301.610   -10000745.44943  -6690066.02242  23786304.007    23786302.441
  24248609.369    -7433872.56243  -5750219.10042  24248612.176    24248616.605
  21761820.877   -21264410.72743 -16515986.24842  21761823.374    21761821.024
  22015302.140   -19365198.48643 -14811236.86942  22015304.167    22015302.161
  23340724.415   -12961741.22443  -9866209.31842  23340727.057    23340728.408
 03  6  9  0 13  0.0000000  0  6G25G14G16G11G20G 1
  20836278.570   -24556671.24344 -19085963.09442  20836280.970    20836278.140
  23800960.184    -9923714.34643  -6630041.85242  23800962.602    23800961.108
  24231316.362    -7524746.72843  -5821029.83142  24231319.149    24231323.454
  21770223.702   -21220253.80743 -16481578.30542  21770226.193    21770223.840
  22000267.847   -19444204.06443 -14872799.61442  22000269.877    22000267.884
  23328072.319   -13028227.54743  -9918016.67642  23328075.045    23328076.386
 03  6  9  0 13 30.0000000  0  6G25G14G16G11G20G 1
  20842928.566   -24521725.25344 -19058732.45442  20842930.997    20842928.114
  23815622.758    -9846661.94043  -6570001.08942  23815625.220    23815623.715
  24214026.283    -7615605.88043  -5891828.86842  24214028.984    24214033.180
  21778716.387   -21175624.75943 -16446802.46742  21778718.865    21778716.490
  21985271.470   -19523010.28643 -14934207.01642  21985273.503    21985271.520
  23315447.115   -13094573.04243  -9969714.30042  23315449.785    23315451.037
 03  6  9  0 14  0.0000000  0  6G25G14G16G11G20G 1
  20849659.048   -24486356.48644 -19031172.37442  20849661.455    20849658.561
  23830284.234    -9769615.61843  -6509965.05842  23830286.687    23830285.246
  24196734.408    -7706474.24243  -5962635.10242  24196737.207    24196741.040
  21787293.355   -21130552.49543 -16411681.27042  21787295.821    21787293.485
  21970308.273   -19601642.18343 -14995478.58142  21970310.306    21970308.308
  23302843.553   -13160804.73443 -10021323.25742  23302846.240    23302847.299
 03  6  9  0 14 30.0000000  0  6G25G14G16G11G20G 1
  20856475.100   -24450537.94144 -19003261.82342  20856477.523    20856474.607
  23844949.984    -9692547.12743  -6449911.76542  23844952.443    23844950.912
  24179446.751    -7797319.99143  -6033423.70942  24179449.509    24179453.474
  21795959.830   -21085009.95043 -16376193.61642  21795962.282    21795959.984
  21955384.188   -19680068.66243 -15056590.08242  21955386.211    21955384.203
  23290266.974   -13226894.18343 -10072821.37242  23290269.696    23290270.777
 03  6  9  0 15  0.0000000  0  6G25G14G16G11G20G 1
  20863378.269   -24414261.52744 -18974994.49342  20863380.707    20863377.793
  23859621.735    -9615446.86443  -6389833.70742  23859624.136    23859622.624
  24162165.861    -7888130.49343  -6104184.87042  24162168.628    24162172.498
  21804717.223   -21038989.57943 -16340333.63242  21804719.683    21804717.412
  21940501.428   -19758278.14643 -15117532.50142  21940503.421    21940501.407
  23277719.373   -13292831.77443 -10124201.17842  23277722.063    23277723.038
 03  6  9  0 15 30.0000000  0  6G25G14G16G11G20G 1
  20870364.139   -24377550.61444 -18946388.58842  20870366.572    20870363.660
  23874295.347    -9538336.84243  -6329748.06842  23874297.660    23874296.176
  24144888.201    -7978924.51643  -6174933.17142  24144890.761    24144894.663
  21813561.097   -20992514.92143 -16304119.66342  21813563.538    21813561.264
  21925656.295   -19836289.85043 -15178320.80542  21925658.256    21925656.286
  23265196.546   -13358639.30543 -10175479.64042  23265199.230    23265200.124
 03  6  9  0 16  0.0000000  0  6G25G14G16G11G20G 1
  20877431.080   -24340413.65044 -18917450.69542  20877433.501    20877430.582
  23888969.330    -9461224.46543  -6269660.56742  23888971.590    23888970.265
  24127612.879    -8069705.97443  -6245671.70142  24127615.476    24127619.243
  21822489.647   -20945595.32843 -16267558.98642  21822492.087    21822489.802
  21910847.783   -19914108.86843 -15238958.96042  21910849.772    21910847.789
  23252697.069   -13424323.72743 -10226662.15142  23252699.764    23252700.665
 03  6  9  0 16 30.0000000  0  6G25G14G16G11G20G 1
  20884582.213   -24302834.16544 -18888167.98142  20884584.635    20884581.714
  23903647.383    -9384091.16043  -6209556.77442  23903649.651    23903648.396
  24110344.016    -8160453.05443  -6316383.43042  24110346.710    24110350.412
  21831506.030   -20898214.00843 -16230638.51942  21831508.510    21831506.179
  21896079.940   -19991714.35143 -15299430.72142  21896081.911    21896079.940
  23240224.557   -13489866.55543 -10277734.33342  23240227.209    23240228.053
 03  6  9  0 17  0.0000000  0  6G25G14G16G11G20G 1
  20891815.268   -24264824.08744 -18858549.74142  20891817.708    20891814.800
  23918327.338    -9306947.82543  -6149445.16542  23918329.576    23918328.323
  24093080.194    -8251173.44043  -6387074.32442  24093082.942    24093086.494
  21840607.955   -20850383.27043 -16193367.86442  21840610.456    21840608.106
  21881351.073   -20069114.84543 -15359742.75342  21881353.081    21881351.076
  23227776.952   -13555278.37243 -10328704.43042  23227779.630    23227780.427
 03  6  9  0 17 30.0000000  0  6G25G14G16G11G20G 1
  20899128.778   -24226391.34244 -18828602.15442  20899131.191    20899128.294
  23933007.973    -9229800.79243  -6089330.69242  23933010.261    23933009.076
  24075820.907    -8341870.17143  -6457746.82042  24075823.650    24075827.190
  21849793.813   -20802111.30643 -16155753.39242  21849796.349    21849794.015
  21866660.497   -20146314.17643 -15419898.03942  21866662.519    21866660.483
  23215353.126   -13620565.44643 -10379577.34042  23215355.823    23215356.592
 03  6  9  0 18  0.0000000  0  6G25G14G16G11G20G 1
  20906525.952   -24187518.84644 -18798311.90342  20906528.378    20906525.482
  23947692.912    -9152631.51943  -6029198.88042  23947695.171    23947693.910
  24058570.340    -8432521.65943  -6528384.04442  24058573.055    24058576.433
  21859066.774   -20753381.64243 -16117782.27342  21859069.322    21859067.011
  21852012.184   -20223291.52543 -15479880.34942  21852014.191    21852012.136
  23202956.488   -13685709.27543 -10430338.62042  23202959.188    23202959.961
 03  6  9  0 18 30.0000000  0  7G25G14G16G11G20G 1G 2
  20914004.976   -24148216.39144 -18767686.62042  20914007.384    20914004.514
  23962380.388    -9075448.63143  -5969056.46442  23962382.588    23962381.378
  24041327.429    -8523132.85743  -6598989.88142  24041330.205    24041333.313
  21868424.968   -20704204.25843 -16079462.28742  21868427.500    21868425.210
  21837405.011   -20300052.69543 -15539694.21742  21837407.007    21837404.907
  23190585.595   -13750717.92143 -10480994.55942  23190588.301    23190589.113
  24463145.926    -5524881.57153  -4262149.79352  24463148.749    24463156.980
 03  6  9  0 19  0.0000000  0  7G25G14G16G11G20G 1G 2
  20921564.595   -24108490.28444 -18736731.21942  20921567.019    20921564.141
  23977069.593    -8998256.69943  -5908906.99242  23977071.822    23977070.568
  24024091.801    -8613705.40443  -6669565.62442  24024094.612    24024097.605
  21877867.053   -20654585.95143 -16040798.72042  21877869.590    21877867.330
  21822838.510   -20376599.99243 -15599341.42542  21822840.509    21822838.380
  23178239.571   -13815596.02243 -10531548.76642  23178242.284    23178243.050
  24446869.188    -5610414.44843  -4328798.41542  24446872.126    24446880.156
 03  6  9  0 19 30.0000000  0  7G25G14G16G11G20G 1G 2
  20929206.771   -24068330.47044 -18705437.86542  20929209.209    20929206.301
  23991762.672    -8921044.27743  -5848741.56242  23991764.948    23991763.624
  24006866.397    -8704224.40343  -6740099.63342  24006869.200    24006872.233
  21887394.937   -20604516.92243 -16001783.94542  21887397.453    21887395.191
  21808315.354   -20452919.42243 -15658811.08042  21808317.399    21808315.214
  23165920.706   -13880331.95243 -10581992.21642  23165923.368    23165924.041
  24430586.341    -5695980.10543  -4395472.60742  24430589.221    24430597.283
 03  6  9  0 20  0.0000000  0  7G25G14G16G11G20G 1G 2
  20936924.748   -24027772.20744 -18673834.03242  20936927.182    20936924.274
  24006453.262    -8843844.84943  -5788586.25242  24006455.599    24006454.382
  23989645.326    -8794720.35843  -6810615.68342  23989648.187    23989651.125
  21897001.798   -20554032.81943 -15962445.74042  21897004.255    21897002.060
  21793829.567   -20529042.41343 -15718127.66242  21793831.647    21793829.470
  23153622.407   -13944959.19643 -10632350.95942  23153625.105    23153625.765
  24414291.447    -5781609.44343  -4462196.39942  24414294.192    24414302.120
 03  6  9  0 20 30.0000000  0  7G25G14G16G11G20G 1G 2
  20944724.845   -23986782.32444 -18641893.87442  20944727.298    20944724.382
  24021147.991    -8766623.98643  -5728414.24642  24021150.296    24021149.087
  23972435.891    -8885155.23343  -6881084.14442  23972438.762    23972441.726
  21906693.911   -20503100.56143 -15922758.31942  21906696.361    21906694.210
  21779388.266   -20604931.87743 -15777262.27642  21779390.352    21779388.156
  23141351.475   -14009442.98543 -10682597.93442  23141354.127    23141354.753
  24397991.419    -5867265.15443  -4528940.76942  24397994.241    24398002.113
 03  6  9  0 21  0.0000000  0  7G25G14G16G11G20G 1G 2
  20952605.343   -23945370.00644 -18609624.54242  20952607.795    20952604.896
  24035845.315    -8689389.27843  -5668231.45242  24035847.660    24035846.458
  23955237.241    -8975533.41643  -6951508.42842  23955240.236    23955243.025
  21916469.459   -20451730.05143 -15882729.40642  21916471.891    21916469.748
  21764990.400   -20680593.17743 -15836219.09942  21764992.452    21764990.266
  23129106.385   -14073790.88743 -10732739.03242  23129109.023    23129109.596
  24381685.460    -5952952.21743  -4595709.55842  24381688.237    24381696.130
 03  6  9  0 21 30.0000000  0  7G25G14G16G11G20G 1G 2
  20960564.776   -23903543.09744 -18577032.15742  20960567.200    20960564.303
  24050544.208    -8612146.81043  -5608042.59042  24050546.459    24050545.297
  23938048.910    -9065857.81343  -7021890.82442  23938051.889    23938054.593
  21926326.800   -20399929.48743 -15842365.39242  21926329.245    21926327.121
  21750635.253   -20756029.85243 -15895000.88642  21750637.313    21750635.134
  23116886.023   -14138008.91743 -10782778.92142  23116888.680    23116889.299
  24365372.915    -6038673.86043  -4662505.30142  24365375.673    24365383.505
 03  6  9  0 22  0.0000000  0  7G25G14G16G11G20G 1G 2
  20968606.055   -23861286.06244 -18544104.60542  20968608.464    20968605.551
  24065247.796    -8534879.54243  -5547834.42242  24065250.095    24065248.898
  23920874.769    -9156108.15043  -7092215.50842  23920877.587    23920880.163
  21936268.881   -20347683.54343 -15801654.32142  21936271.327    21936269.247
  21736326.575   -20831222.49943 -15953592.52242  21736328.591    21736326.397
  23104693.607   -14202079.92343 -10832704.24742  23104696.269    23104696.867
  24349057.556    -6124410.14543  -4729312.44042  24349060.310    24349067.932
 03  6  9  0 22 30.0000000  0  7G25G14G16G11G20G 1G 2
  20976725.849   -23818616.38444 -18510855.51542  20976728.244    20976725.329
  24079953.095    -8457603.43443  -5487619.35942  24079955.371    24079954.163
  23903712.250    -9246297.00443  -7162492.28842  23903715.076    23903717.477
  21946292.380   -20295009.91643 -15760610.00042  21946294.810    21946292.789
  21722061.770   -20906184.34643 -16012004.31742  21722063.810    21722061.613
  23092526.198   -14266019.57643 -10882527.22542  23092528.869    23092529.347
  24332736.967    -6210174.12043  -4796141.16742  24332739.766    24332747.341
 03  6  9  0 23  0.0000000  0  7G25G14G16G11G20G 1G 2
  20984922.708   -23775541.57944 -18477290.73542  20984925.100    20984922.197
  24094658.905    -8380324.30443  -5427401.94142  24094661.231    24094659.988
  23886560.921    -9336426.95243  -7232723.16542  23886563.744    23886565.995
  21956395.760   -20241916.50243 -15719238.56842  21956398.195    21956396.182
  21707840.231   -20980918.87643 -16070238.97542  21707842.247    21707840.079
  23080382.660   -14329833.67543 -10932252.35142  23080385.314    23080385.878
  24316410.517    -6295969.06843  -4862994.04042  24316413.539    24316420.772
 03  6  9  0 23 30.0000000  0  7G25G14G16G11G20G 1G 2
  20993198.228   -23732053.49644 -18443403.92742  20993200.598    20993197.700
  24109367.149    -8303032.39343  -5367174.57542  24109369.494    24109368.160
  23869423.335    -9426484.84743  -7302897.91842  23869426.120    23869428.256
  21966580.462   -20188395.75943 -15677534.15242  21966582.893    21966580.890
  21693664.265   -21055413.96943 -16128287.06642  21693666.287    21693664.087
  23068264.882   -14393512.53643 -10981872.11442  23068267.538    23068268.058
  24300080.555    -6381782.45343  -4929861.28442  24300083.500    24300090.620
 03  6  9  0 24  0.0000000  0  7G25G14G16G11G20G 1G 2
  21001550.380   -23688162.59244 -18409203.23042  21001552.766    21001549.881
  24124076.095    -8225736.31243  -5306943.95442  24124078.429    24124077.235
  23852298.307    -9516476.37343  -7373020.94842  23852301.108    23852303.290
  21976844.459   -20134458.38443 -15635505.09242  21976846.889    21976844.881
  21679532.611   -21129676.20543 -16186153.70642  21679534.636    21679532.364
  23056171.181   -14457064.76543 -11031393.20742  23056173.834    23056174.325
  24283745.819    -6467620.38043  -4996747.63242  24283748.725    24283755.796
 03  6  9  0 24 30.0000000  0  7G25G14G16G11G20G 1G 2
  21009980.433   -23643862.38244 -18374683.59342  21009982.816    21009979.953
  24138787.423    -8148428.29643  -5246704.03542  24138789.707    24138788.552
  23835188.140    -9606390.28043  -7443083.50142  23835190.901    23835192.961
  21987188.826   -20080098.48043 -15593146.78642  21987191.252    21987189.307
  21665447.252   -21203695.10243 -16243830.73542  21665449.285    21665446.952
  23044103.147   -14520482.38243 -11080809.40642  23044105.732    23044106.278
  24267408.516    -6553472.15643  -5063644.78142  24267411.325    24267418.318
 03  6  9  0 25  0.0000000  0  7G25G14G16G11G20G 1G 2
  21018486.673   -23599161.76744 -18339851.94942  21018489.069    21018486.218
  24153499.676    -8071115.25543  -5186460.20742  24153501.993    24153500.807
  23818091.985    -9696230.10343  -7513088.32442  23818094.714    23818096.757
  21997611.883   -20025325.18643 -15550466.36142  21997614.303    21997612.381
  21651407.348   -21277475.15343 -16301321.65042  21651409.384    21651407.032
  23032059.383   -14583772.24443 -11130126.05142  23032061.983    23032062.417
  24251067.871    -6639341.87243  -5130555.91242  24251070.642    24251077.457
 03  6  9  0 25 30.0000000  0  7G25G14G16G11G20G 1G 2
  21027069.179   -23554060.38744 -18304708.03442  21027071.586    21027068.734
  24168213.272    -7993795.12143  -5126210.85042  24168215.548    24168214.474
  23801010.906    -9785990.85043  -7583031.53542  23801013.666    23801015.600
  22008113.666   -19970138.34943 -15507463.69542  22008116.065    22008114.136
  21637413.764   -21351011.82443 -16358622.92142  21637415.779    21637413.443
  23020040.270   -14646932.36043 -11179341.60042  23020042.896    23020043.344
  24234724.700    -6725224.78143  -5197477.32542  24234727.490    24234734.129
 03  6  9  0 26  0.0000000  0  7G25G14G16G11G20G 1G 2
  21035727.444   -23508560.91044 -18269253.90442  21035729.840    21035727.026
  24182928.056    -7916469.05643  -5065956.89142  24182930.355    24182929.246
  23783945.269    -9875670.12543  -7652911.25542  23783948.047    23783950.022
  22018693.485   -19914541.23943 -15464141.33942  22018695.901    22018693.986
  21623466.706   -21424303.98143 -16415733.65542  21623468.721    21623466.390
  23008045.764   -14709963.60643 -11228456.74542  23008048.351    23008048.744
  24218379.253    -6811119.32743  -5264407.80942  24218381.994    24218388.664
 03  6  9  0 26 30.0000000  0  7G25G14G16G11G20G 1G 2
  21044461.222   -23462664.58044 -18233490.54042  21044463.618    21044460.805
  24197644.036    -7839136.38343  -5005697.77642  24197646.412    24197645.364
  23766895.913    -9965264.18143  -7722724.58442  23766898.714    23766900.526
  22029351.013   -19858535.77043 -15420500.78342  22029353.443    22029351.542
  21609566.757   -21497348.56243 -16472651.47942  21609568.763    21609566.422
  22996075.904   -14772865.37443 -11277470.99642  22996078.487    22996078.757
  24202032.236    -6897022.37343  -5331344.92442  24202034.893    24202041.598
 03  6  9  0 27  0.0000000  0  7G25G14G16G11G20G 1G 2
  21053269.241   -23416378.26244 -18197423.28942  21053271.612    21053268.819
  24212360.329    -7761802.41543  -4945437.65542  24212362.557    24212361.711
  23749862.361   -10054775.20843  -7792473.21142  23749865.072    23749866.795
  22040084.875   -19802129.06143 -15376547.57042  22040087.291    22040085.447
  21595713.397   -21570148.33943 -16529378.54742  21595715.407    21595713.058
  22984129.722   -14835642.85043 -11326388.38942  22984132.242    22984132.553
  24185683.124    -6982936.26843  -5398290.48642  24185685.789    24185692.183
 03  6  9  0 27 30.0000000  0  7G25G14G16G11G20G 1G 2
  21062152.935   -23369694.00644 -18161045.95642  21062155.332    21062152.549
  24227078.605    -7684457.65043  -4885169.12442  24227080.900    24227080.093
  23732847.108   -10144190.05843  -7862146.89342  23732849.839    23732851.504
  22050896.612   -19745313.32443 -15332275.63642  22050898.997    22050897.147
  21581908.885   -21642691.32343 -16585905.51242  21581910.915    21581908.544
  22972208.911   -14898286.47343 -11375201.48142  22972211.411    22972211.663
  24169334.167    -7068848.58143  -5465234.79842  24169336.999    24169343.192
 03  6  9  0 28  0.0000000  0  7G25G14G16G11G20G 1G 2
  21071109.932   -23322624.75244 -18124368.62642  21071112.333    21071109.533
  24241796.802    -7607113.02343  -4824900.69342  24241799.153    24241798.368
  23715848.678   -10233516.90943  -7931752.02242  23715851.367    23715852.948
  22061783.523   -19688102.44543 -15287695.79342  22061785.928    22061784.060
  21568151.584   -21714986.44743 -16642239.34742  21568153.602    21568151.199
  22960311.457   -14960807.37843 -11423918.97142  22960313.970    22960314.218
  24152984.051    -7154767.60543  -5532184.35642  24152986.907    24152993.151
 03  6  9  0 28 30.0000000  0  7G25G14G16G11G20G 1G 2
  21080143.848   -23275151.27744 -18087376.32042  21080146.260    21080143.424
  24256519.075    -7529747.29743  -4764615.83542  24256521.482    24256520.598
  23698871.705   -10322730.94043  -8001269.24942  23698874.301    23698875.851
  22072749.359   -19630477.01643 -15242792.93042  22072751.741    22072749.870
  21554445.954   -21787009.93843 -16698361.52042  21554447.971    21554445.531
  22948441.385   -15023184.20643 -11472524.17742  22948443.924    22948444.214
  24136637.307    -7240669.42043  -5599120.50942  24136640.080    24136646.260
 03  6  9  0 29  0.0000000  0  7G25G14G16G11G20G 1G 2
  21089251.557   -23227290.10344 -18050081.91242  21089253.972    21089251.107
  24271242.553    -7452375.61543  -4704326.33542  24271244.816    24271243.957
  23681913.831   -10411844.13243  -8070707.89542  23681916.418    23681917.924
  22083790.772   -19572454.34943 -15197580.53442  22083793.148    22083791.284
  21540789.631   -21858774.16843 -16754281.67042  21540791.689    21540789.214
  22936595.934   -15085432.08143 -11521028.91242  22936598.430    22936598.659
  24120291.391    -7326566.45643  -5666052.92242  24120294.186    24120300.174
 03  6  9  0 29 30.0000000  0  7G25G14G16G11G20G 1G 2
  21098433.833   -23179037.00044 -18012482.10642  21098436.247    21098433.377
  24285968.362    -7374991.56343  -4644027.20142  24285970.533    24285969.740
  23664976.990   -10500847.14243  -8140060.68542  23664979.496    23664980.969
  22094908.502   -19514030.49643 -15152055.52442  22094910.890    22094909.026
  21527184.256   -21930270.82443 -16809993.32442  21527186.296    21527183.832
  22924776.170   -15147544.78243 -11569428.31642  22924778.671    22924778.942
  24103948.082    -7412449.62343  -5732974.54842  24103950.860    24103956.740
 03  6  9  0 30  0.0000000  0  7G25G14G16G11G20G 1G 2
  21107688.246   -23130404.73144 -17974586.84642  21107690.663    21107687.790
  24300694.272    -7297606.41443  -4583727.21342  24300696.519    24300695.821
  23648059.616   -10589747.86643  -8209333.77842  23648062.197    23648063.557
  22106100.026   -19455218.82543 -15106228.31742  22106102.451    22106100.575
  21513628.180   -22001508.50643 -16865503.18442  21513630.196    21513627.711
  22912980.110   -15209533.46543 -11617731.08242  22912982.563    22912982.847
  24087605.791    -7498327.51943  -5799892.07642  24087608.611    24087614.331
 03  6  9  0 30 30.0000000  0  7G25G14G16G11G20G 1G 2
  21117015.109   -23081391.67944 -17936394.87142  21117017.535    21117014.674
  24315421.114    -7220216.84843  -4523423.77342  24315423.415    24315422.761
  23631162.971   -10678539.42543  -8278521.80242  23631165.629    23631166.952
  22117365.543   -19396018.46743 -15060098.24342  22117367.977    22117366.092
  21500122.468   -22072481.40043 -16920806.70942  21500124.477    21500122.004
  22901208.141   -15271394.78743 -11665934.60142  22901210.598    22901210.834
  24071265.770    -7584193.74843  -5866800.52442  24071268.517    24071274.275
 03  6  9  0 31  0.0000000  0  7G25G14G16G11G20G 1G 2
  21126416.497   -23031986.97644 -17897897.71642  21126418.948    21126416.096
  24330151.242    -7142810.11943  -4463106.95842  24330153.533    24330152.897
  23614290.163   -10767205.89643  -8347612.37242  23614292.776    23614294.138
  22128707.089   -19336418.89243 -15013657.09642  22128709.490    22128707.565
  21486669.997   -22143174.46743 -16975892.18742  21486672.018    21486669.553
  22889462.952   -15333115.88243 -11714028.85842  22889465.412    22889465.651
  24054930.893    -7670033.05343  -5933687.98042  24054933.601    24054939.363
 03  6  9  0 31 30.0000000  0  7G25G14G16G11G20G 1G 2
  21135889.097   -22982208.12844 -17859109.01642  21135891.557    21135888.719
  24344881.654    -7065401.59643  -4402788.75942  24344884.026    24344883.367
  23597438.863   -10855759.56243  -8416615.03642  23597441.340    23597442.687
  22140121.213   -19276437.59043 -14966918.49642  22140123.624    22140121.698
  21473268.342   -22213600.55943 -17030769.63342  21473270.378    21473267.910
  22877741.513   -15394712.13243 -11762025.83642  22877743.958    22877744.221
  24038598.736    -7755857.93343  -6000564.20042  24038601.475    24038607.115
 03  6  9  0 32  0.0000000  0  7G25G14G16G11G20G 1G 2
  21145433.568   -22932051.76444 -17820026.14542  21145435.995    21145433.167
  24359613.391    -6987986.55843  -4342465.47542  24359615.748    24359615.068
  23580610.479   -10944192.32643  -8485523.49742  23580613.023    23580614.240
  22151608.447   -19216071.98343 -14919880.43742  22151610.872    22151608.968
  21459918.830   -22283752.71143 -17085433.62342  21459920.846    21459918.377
  22866044.794   -15456178.70743 -11809921.77942  22866047.203    22866047.357
  24022270.741    -7841660.84343  -6067423.30142  24022273.501    24022278.988
 03  6  9  0 32 30.0000000  0  7G25G14G16G11G20G 1G 2
  21155048.709   -22881524.06844 -17780653.93042  21155051.107    21155048.303
  24374345.518    -6910569.03143  -4282140.24242  24374347.954    24374347.253
  23563804.846   -11032505.15743  -8554338.49742  23563807.536    23563808.667
  22163167.547   -19155328.84643 -14872548.19842  22163169.970    22163168.071
  21446621.118   -22353632.68643 -17139885.52742  21446623.118    21446620.653
  22854371.830   -15517519.94043 -11857720.03242  22854374.305    22854374.488
  24005946.695    -7927443.45343  -6134266.58442  24005949.357    24005954.879
 03  6  9  0 33  0.0000000  0  7G25G14G16G11G20G 1G 2
  21164732.956   -22830633.00944 -17740998.56742  21164735.378    21164732.558
  24389076.947    -6833154.94843  -4221817.68242  24389079.487    24389078.889
  23547021.619   -11120700.86343  -8623062.25042  23547024.344    23547025.373
  22174796.879   -19094216.62943 -14824928.37742  22174799.294    22174797.393
  21433374.528   -22423243.99543 -17194128.08242  21433376.504    21433374.013
  22842721.673   -15578741.75443 -11905425.25042  22842724.132    22842724.185
  23989625.838    -8013208.99143  -6201096.56342  23989628.618    23989634.003
 03  6  9  0 33 30.0000000  0  7G25G14G16G11G20G 1G 2
  21174487.588   -22779372.20244 -17701055.09042  21174490.003    21174487.195
  24403809.322    -6755736.19043  -4161491.49242  24403811.897    24403811.352
  23530262.816   -11208768.15443  -8691685.92642  23530265.539    23530266.544
  22186497.557   -19032729.37443 -14777016.30542  22186499.986    22186498.096
  21420181.019   -22492576.22643 -17248153.17242  21420182.991    21420180.494
  22831095.698   -15639836.04443 -11953031.09742  22831098.204    22831098.206
  23973310.327    -8098946.62943  -6267904.81942  23973312.995    23973318.347
 03  6  9  0 34  0.0000000  0  7G25G14G16G11G20G 1G 2
  21184314.959   -22727729.06844 -17660813.70342  21184317.356    21184314.566
  24418545.288    -6678298.20443  -4101150.30442  24418547.855    24418547.324
  23513531.914   -11296689.14843  -8760195.60442  23513534.589    23513535.542
  22198271.945   -18970854.93843 -14728802.55042  22198274.369    22198272.507
  21407043.859   -22561612.28343 -17301947.47342  21407045.840    21407043.342
  22819496.886   -15700788.23043 -12000526.21142  22819499.331    22819499.336
  23957003.411    -8184638.95343  -6334677.77342  23957006.027    23957011.297
 03  6  9  0 34 30.0000000  0  7G25G14G16G11G20G 1G 2
  21194212.040   -22675719.46744 -17620286.75042  21194214.456    21194211.670
  24433282.300    -6600855.00343  -4040805.05342  24433284.843    24433284.452
  23496826.768   -11384474.59143  -8828599.67942  23496829.472    23496830.418
  22210116.937   -18908609.52643 -14680299.71542  22210119.325    22210117.554
  21393960.842   -22630363.81043 -17355520.06342  21393962.831    21393960.324
  22807922.431   -15761612.22643 -12047921.44742  22807924.849    22807924.808
  23940702.968    -8270297.08543  -6401424.08642  23940705.529    23940710.851
 03  6  9  0 35  0.0000000  0  7G25G14G16G11G20G 1G 2
  21204176.551   -22623355.69444 -17579483.81942  21204178.965    21204176.172
  24448018.325    -6523417.46043  -3980464.20442  24448020.782    24448020.521
  23480146.047   -11472131.80643  -8896903.81542  23480148.704    23480149.684
  22222030.004   -18846006.33543 -14631518.09042  22222032.399    22222030.624
  21380930.382   -22698839.03843 -17408877.35242  21380932.400    21380929.906
  22796370.308   -15822318.61243 -12095225.03542  22796372.779    22796372.691
  23924407.580    -8355929.15943  -6468150.10242  23924410.030    23924415.312
 03  6  9  0 35 30.0000000  0  7G25G14G16G11G20G 1G 2
  21214207.889   -22570640.76544 -17538407.26042  21214210.273    21214207.526
  24462753.116    -6445986.25143  -3920128.32042  24462755.559    24462755.174
  23463490.088   -11559658.64543  -8965106.34842  23463492.785    23463493.683
  22234010.534   -18783048.75943 -14582460.32742  22234012.893    22234011.122
  21367952.796   -22767036.46743 -17462018.17942  21367954.802    21367952.350
  22784840.239   -15882908.59643 -12142437.91642  22784842.801    22784842.691
  23908117.392    -8441533.55043  -6534854.56142  23908119.833    23908125.095
 03  6  9  0 36  0.0000000  0  7G25G14G16G11G20G 1G 2
  21224308.847   -22517559.96844 -17497045.61342  21224311.236    21224308.471
  24477489.873    -6368544.74743  -3859784.40642  24477492.369    24477491.810
  23446862.794   -11647035.21743  -9033191.81942  23446865.420    23446866.235
  22246061.104   -18719722.62643 -14533115.36942  22246063.532    22246061.790
  21355031.691   -22834937.27644 -17514927.87842  21355033.671    21355031.243
  22773335.585   -15943365.62243 -12189547.20542  22773338.115    22773337.980
  23891836.207    -8527090.74143  -6601522.23842  23891838.655    23891843.834
 03  6  9  0 36 30.0000000  0  7G25G14G16G11G20G 1G 2
  21234481.984   -22464099.70444 -17455388.27642  21234484.380    21234481.633
  24492231.546    -6291077.33843  -3799420.28842  24492233.899    24492233.400
  23430267.716   -11734242.61743  -9101145.45242  23430270.285    23430271.068
  22258184.369   -18656014.72243 -14483472.94042  22258186.784    22258185.100
  21342170.474   -22902523.27143 -17567592.26642  21342172.450    21342170.011
  22761859.224   -16003673.99743 -12236540.65142  22761861.759    22761861.635
  23875567.527    -8612582.21843  -6668138.71242  23875569.990    23875575.057
 03  6  9  0 37  0.0000000  0  7G25G14G16G11G20G 1G 2
  21244718.853   -22410304.58144 -17413470.01242  21244721.275    21244718.542
  24506969.949    -6213627.01843  -3739069.49742  24506972.329    24506971.831
  23413697.129   -11821320.96643  -9168998.53642  23413699.666    23413700.474
  22270371.661   -18591970.54043 -14433568.47242  22270374.055    22270372.420
  21329361.399   -22969835.22844 -17620043.11742  21329363.395    21329360.916
  22750402.904   -16063876.75943 -12283451.81742  22750405.452    22750405.294
  23859303.635    -8698048.54043  -6734735.57742  23859306.125    23859310.994
 03  6  9  0 37 30.0000000  0  7G25G14G16G11G20G 1G 2
  21255024.863   -22356146.18644 -17371268.68142  21255027.291    21255024.560
  24521710.898    -6136163.18743  -3678708.20742  24521713.195    24521712.785
  23397157.546   -11908236.19843  -9236724.50342  23397160.092    23397160.846
  22282628.335   -18527561.72743 -14383379.87042  22282630.729    22282629.077
  21316610.751   -23036840.09343 -17672254.66742  21316612.771    21316610.272
  22738972.571   -16123943.35843 -12330256.85842  22738975.069    22738974.985
  23843050.831    -8783456.22243  -6801286.75842  23843053.418    23843058.180
 03  6  9  0 38  0.0000000  0  7G25G14G16G11G20G 1G 2
  21265394.368   -22301654.09844 -17328807.32842  21265396.814    21265394.073
  24536449.197    -6058713.35943  -3618357.78042  24536451.388    24536451.292
  23380644.352   -11995012.72543  -9304342.39242  23380646.968    23380647.635
  22294948.642   -18462818.49643 -14332930.69242  22294950.993    22294949.355
  21303913.822   -23103562.92844 -17724246.46442  21303915.831    21303913.284
  22727562.888   -16183901.54043 -12376977.43442  22727565.373    22727565.233
  23826804.477    -8868830.04743  -6867811.58142  23826807.151    23826811.795
 03  6  9  0 38 30.0000000  0  7G25G14G16G11G20G 1G 2
  21275833.666   -22246795.29244 -17286060.22142  21275836.087    21275833.380
  24551191.506    -5981242.84743  -3557991.27642  24551193.629    24551193.528
  23364164.808   -12081612.61943  -9371822.65842  23364167.383    23364168.116
  22307338.628   -18397708.90143 -14282196.03742  22307341.014    22307339.370
  21291277.554   -23169966.90344 -17775989.78842  21291279.550    21291276.999
  22716180.432   -16243716.60843 -12423586.49042  22716182.886    22716182.719
  23810571.768    -8954132.67743  -6934280.90842  23810574.365    23810578.936
 03  6  9  0 39  0.0000000  0  7G25G14G16G11G20G 1G 2
  21286337.932   -22191595.15244 -17243047.14142  21286340.322    21286337.642
  24565933.286    -5903775.17343  -3497626.99042  24565935.349    24565935.205
  23347715.014   -12168056.24743  -9439181.15842  23347717.580    23347718.295
  22319793.453   -18332258.73643 -14231196.00142  22319795.814    22319794.235
  21278697.991   -23236072.93444 -17827500.95542  21278699.985    21278697.416
  22704820.704   -16303411.87943 -12470102.20242  22704823.193    22704822.993
  23794348.642    -9039384.64143  -7000710.76442  23794351.219    23794355.816
 03  6  9  0 39 30.0000000  0  7G25G14G16G11G20G 1G 2
  21296907.595   -22136051.31744 -17199766.24642  21296909.980    21296907.288
  24580675.421    -5826305.16743  -3437260.86242  24580677.530    24580677.399
  23331296.516   -12254335.22243  -9506411.35842  23331299.104    23331299.808
  22332313.568   -18266465.32543 -14179928.49942  22332315.884    22332314.399
  21266176.504   -23301873.75744 -17878774.30042  21266178.495    21266175.914
  22693484.727   -16362982.65443 -12516520.90142  22693487.208    22693486.915
  23778136.588    -9124578.39643  -7067095.26542  23778139.125    23778143.775
 03  6  9  0 40  0.0000000  0  7G25G14G16G11G20G 1G 2
  21307544.024   -22080156.43144 -17156211.80442  21307546.426    21307543.727
  24595419.720    -5748823.88343  -3376885.97842  24595421.993    24595421.724
  23314911.681   -12340437.44143  -9573503.81942  23314914.232    23314914.854
  22344900.302   -18200321.81243 -14128388.19342  22344902.629    22344901.129
  21253715.273   -23367357.95044 -17929800.92142  21253717.264    21253714.671
  22682174.082   -16422419.97943 -12562835.61542  22682176.567    22682176.290
  23761937.903    -9209702.34043  -7133425.34742  23761940.387    23761944.976
 03  6  9  0 40 30.0000000  0  7G25G14G16G11G20G 1G 2
  21318246.483   -22023914.77244 -17112387.14542  21318248.873    21318246.199
  24610165.590    -5671333.87343  -3316504.27642  24610167.773    24610167.579
  23298560.624   -12426362.05043  -9640457.88242  23298563.277    23298563.770
  22357552.572   -18133834.15943 -14076579.72642  22357554.895    22357553.387
  21241314.281   -23432525.58144 -17980580.86842  21241316.280    21241313.659
  22670888.422   -16481726.29343 -12609048.24342  22670890.890    22670890.579
  23745752.478    -9294756.33443  -7199700.93642  23745754.933    23745759.466
 03  6  9  0 41  0.0000000  0  7G25G14G16G11G20G 1G 2
  21329015.318   -21967324.24844 -17068290.64042  21329017.716    21329015.022
  24624913.882    -5593830.99243  -3256112.53842  24624916.109    24624916.054
  23282244.636   -12512102.02443  -9707268.06442  23282247.304    23282247.822
  22370270.648   -18067000.62243 -14024501.74142  22370272.984    22370271.492
  21228974.692   -23497370.43244 -18031109.30342  21228976.682    21228974.091
  22659628.384   -16540897.75443 -12655155.77942  22659630.857    22659630.536
  23729581.600    -9379733.71343  -7265916.84442  23729584.183    23729588.552
 03  6  9  0 41 30.0000000  0  7G25G14G16G11G20G 1G 2
  21339847.374   -21910401.54844 -17023935.30342  21339849.766    21339847.058
  24639661.816    -5516329.58443  -3195721.94142  24639664.159    24639664.270
  23265961.674   -12597668.72543  -9773943.25142  23265964.310    23265964.831
  22383051.299   -17999838.08443 -13972167.38842  22383053.656    22383052.214
  21216694.202   -23561904.71444 -18081395.73142  21216696.186    21216693.627
  22648391.218   -16599948.94743 -12701169.60242  22648393.722    22648393.373
  23713423.049    -9464646.13443  -7332082.11742  23713425.705    23713429.985
 03  6  9  0 42  0.0000000  0  7G25G14G16G11G20G 1G 2
  21350745.553   -21853131.25444 -16979309.10842  21350747.974    21350745.240
  24654412.960    -5438812.11643  -3135318.83242  24654415.367    24654415.618
  23249715.716   -12683041.12443  -9840467.02542  23249718.315    23249718.845
  22395897.418   -17932331.50043 -13919564.95042  22395899.823    22395898.360
  21204476.679   -23626108.10344 -18131424.32142  21204478.651    21204476.092
  22637180.316   -16658862.13943 -12747075.88642  22637182.845    22637182.506
  23697280.836    -9549473.27743  -7398180.94742  23697283.499    23697287.582
 03  6  9  0 42 30.0000000  0  7G25G14G16G11G20G 1G 2
  21361704.956   -21795539.35144 -16934432.31242  21361707.366    21361704.604
  24669162.657    -5361302.80843  -3074922.08342  24669164.768    24669165.311
  23233502.666   -12768240.63943  -9906856.09142  23233505.233    23233505.792
  22408803.900   -17864507.78043 -13866715.39542  22408806.325    22408804.879
  21192317.959   -23690002.62844 -18181212.24242  21192319.920    21192317.342
  22625991.058   -16717661.64643 -12792893.59742  22625993.576    22625993.237
  23681150.746    -9634236.60343  -7464230.04342  23681153.378    23681157.443
 03  6  9  0 43  0.0000000  0  7G25G14G16G11G20G 1G 2
  21372727.783   -21737613.99144 -16889295.67842  21372730.197    21372727.422
  24683913.303    -5283787.91743  -3014520.97242  24683915.616    24683915.967
  23217325.788   -12853250.04043  -9973097.01542  23217328.336    23217328.873
  22421772.861   -17796355.85043 -13813610.09342  22421775.270    22421773.870
  21180221.040   -23753572.28744 -18230747.01742  21180222.982    21180220.413
  22614826.093   -16776333.73843 -12838612.01542  22614828.579    22614828.238
  23665035.941    -9718919.61643  -7530216.57742  23665038.591    23665042.600
 03  6  9  0 43 30.0000000  0  7G25G14G16G11G20G 1G 2
  21383813.007   -21679360.83944 -16843903.62042  21383815.412    21383812.624
  24698664.355    -5206271.15343  -2954118.40742  24698666.568    24698666.883
  23201184.977   -12938070.05043 -10039190.37242  23201187.555    23201187.972
  22434803.075   -17727882.09243 -13760254.01842  22434805.443    22434804.111
  21168185.667   -23816818.41444 -18280029.68742  21168187.617    21168185.049
  22603684.640   -16834882.16943 -12884234.07642  22603687.146    22603686.769
  23648936.190    -9803523.37443  -7596141.32942  23648938.837    23648942.895
 03  6  9  0 44  0.0000000  0  7G25G14G16G11G20G 1G 2
  21394960.670   -21620779.52244 -16798255.85142  21394963.054    21394960.271
  24713416.201    -5128750.37943  -2893712.70942  24713418.570    24713418.686
  23185081.190   -13022695.23043 -10105131.89442  23185083.788    23185084.154
  22447894.490   -17659086.85843 -13706647.44342  22447896.854    22447895.476
  21156212.738   -23879736.44344 -18329056.69942  21156214.685    21156212.135
  22592567.084   -16893304.97043 -12929758.24242  22592569.620    22592569.165
  23632852.514    -9888042.92943  -7662000.50442  23632855.121    23632859.158
 03  6  9  0 44 30.0000000  0  7G25G14G16G11G20G 1G 2
  21406169.280   -21561877.95144 -16752358.53142  21406171.660    21406168.853
  24728167.798    -5051230.66943  -2833307.84542  24728170.241    24728170.168
  23169014.114   -13107127.60943 -10170923.20442  23169016.721    23169017.061
  22461045.546   -17589977.99243 -13652796.48042  22461047.900    22461046.522
  21144301.652   -23942329.42744 -18377830.42642  21144303.598    21144301.078
  22581472.486   -16951607.48643 -12975188.69642  22581474.979    22581474.524
  23616784.333    -9972480.98243  -7727796.15742  23616786.933    23616790.894
 03  6  9  0 45  0.0000000  0  7G25G14G16G11G20G 1G 2
  21417439.860   -21502650.72044 -16706207.45142  21417442.252    21417439.431
  24742920.515    -4973704.68143  -2772898.08242  24742922.929    24742923.141
  23152985.718   -13191356.65943 -10236556.08242  23152988.333    23152988.680
  22474257.174   -17520550.83743 -13598697.50142  22474259.511    22474258.157
  21132454.328   -24004587.53044 -18426343.21142  21132456.260    21132453.750
  22570402.136   -17009782.35243 -13020519.67442  22570404.621    22570404.119
  23600733.612   -10056827.32043  -7793520.35842  23600736.258    23600740.065
 03  6  9  0 45 30.0000000  0  6G25G16G11G20G 1G 2
  21428772.286   -21443098.49644 -16659803.13642  21428774.690    21428771.847
  23136996.785   -13275378.36943 -10302027.40342  23136999.374    23136999.742
  22487529.093   -17450807.03443 -13544351.78642  22487531.408    22487530.064
  21120671.388   -24066507.28444 -18474592.34442  21120673.317    21120670.792
  22559356.209   -17067828.71143 -13065750.52042  22559358.696    22559358.155
  23584701.058   -10141078.37843  -7859170.31142  23584703.593    23584707.356
 03  6  9  0 46  0.0000000  0  6G25G16G11G20G 1G 2
  21440165.653   -21383225.92843 -16613149.20242  21440168.054    21440165.224
  23121047.502   -13359191.91543 -10367336.50842  23121050.052    23121050.395
  22500860.333   -17380751.48343 -13489763.14942  22500862.602    22500861.304
  21108952.774   -24128089.02444 -18522578.08842  21108954.699    21108952.147
  22548334.270   -17125748.97243 -13110883.11342  22548336.769    22548336.166
  23568686.657   -10225233.80843  -7924745.75642  23568689.183    23568692.846
 03  6  9  0 46 30.0000000  0  6G25G16G11G20G 1G 2
  21451616.568   -21323050.91443 -16566259.59442  21451618.983    21451616.166
  23105135.431   -13442810.05743 -10432493.36542  23105137.899    23105138.217
  22514247.342   -17310402.90443 -13434946.18042  22514249.618    22514248.296
  21097295.911   -24189346.09044 -18570310.84442  21097297.854    21097295.291
  22537333.346   -17183559.02643 -13155929.83342  22537335.812    22537335.161
  23552687.907   -10309306.87843  -7990257.02642  23552690.359    23552694.096
 03  6  9  0 47  0.0000000  0  6G25G16G11G20G 1G 2
  21463127.681   -21262559.74244 -16519123.63042  21463130.072    21463127.250
  23089264.166   -13526213.70343 -10497483.06942  23089266.615    23089266.898
  22527692.615   -17239748.18043 -13379890.65442  22527694.923    22527693.569
  21085704.261   -24250260.50944 -18617776.59742  21085706.222    21085703.639
  22526356.324   -17241243.21943 -13200878.47142  22526358.793    22526358.120
  23536708.418   -10393278.96543  -8055689.60142  23536710.790    23536714.540
 03  6  9  0 47 30.0000000  0  6G25G16G11G20G 1G 2
  21474697.497   -21201759.87644 -16471747.12242  21474699.893    21474697.077
  23073433.265   -13609405.15943 -10562307.44042  23073435.704    23073435.956
  22541194.594   -17168795.46943 -13324602.93642  22541196.882    22541195.513
  21074177.238   -24310835.32044 -18664977.72642  21074179.206    21074176.599
  22515402.224   -17298806.97043 -13245733.26142  22515404.694    22515404.031
  23520747.557   -10477152.85843  -8121045.67342  23520749.955    23520753.651
 03  6  9  0 48  0.0000000  0  6G25G16G11G20G 1G 2
  21486327.148   -21140645.60943 -16424125.62842  21486329.570    21486326.718
  23057644.776   -13692373.66943 -10626958.08842  23057647.252    23057647.398
  22554754.172   -17097539.62143 -13269079.00042  22554756.495    22554755.202
  21062716.731   -24371060.48944 -18711906.40442  21062718.714    21062716.106
  22504472.541   -17356242.63443 -13290488.24442  22504474.989    22504474.322
  23504807.370   -10560918.23043  -8186317.16642  23504809.796    23504813.450
 03  6  9  0 48 30.0000000  0  6G25G16G11G20G 1G 2
  21498014.756   -21079226.84644 -16376266.86442  21498017.184    21498014.331
  23041897.833   -13775124.09043 -10691438.80042  23041900.282    23041900.346
  22568369.384   -17025991.46543 -13213327.30042  22568371.741    22568370.437
  21051321.735   -24430941.74544 -18758567.10542  21051323.696    21051321.052
  22493565.620   -17413558.38843 -13335149.78742  22493568.119    22493567.449
  23488886.792   -10644580.46143  -8251508.30242  23488889.200    23488892.845
 03  6  9  0 49  0.0000000  0  6G25G16G11G20G 1G 2
  21509760.021   -21017505.21243 -16328172.09842  21509762.446    21509759.564
  23026193.098   -13857652.49743 -10755746.50842  23026195.606    23026195.562
  22582039.810   -16954153.14243 -13157349.49042  22582042.161    22582040.891
  21039992.702   -24490476.16444 -18804957.54142  21039994.655    21039992.009
  22482681.686   -17470753.61443 -13379717.41942  22482684.162    22482683.455
  23472986.477   -10728136.11143  -8316616.38942  23472988.970    23472992.513
 03  6  9  0 49 30.0000000  0  6G25G16G11G20G 1G 2
  21521562.458   -20955482.89343 -16279843.02842  21521564.927    21521562.036
  23010531.114   -13939956.21343 -10819879.12942  23010533.674    23010533.537
  22595764.941   -16882027.52043 -13101147.81842  22595767.246    22595766.004
  21028730.041   -24549661.66244 -18851076.09142  21028731.993    21028729.354
  22471820.538   -17527828.82043 -13424191.52142  22471823.038    22471822.359
  23457106.910   -10811582.72143  -8381639.51342  23457109.441    23457112.978
 03  6  9  0 50  0.0000000  0  6G25G16G11G20G 1G 2
  21533422.119   -20893159.98143 -16231279.73742  21533424.566    21533421.698
  22994912.837   -14022029.92843 -10883832.54542  22994915.487    22994915.278
  22609544.587   -16809615.34343 -13044722.85642  22609546.871    22609545.672
  21017534.607   -24608493.93744 -18896919.40642  21017536.540    21017533.923
  22460982.593   -17584782.05443 -13468570.57842  22460985.081    22460984.431
  23441249.020   -10894915.61043  -8446574.04142  23441251.425    23441255.044
 03  6  9  0 50 30.0000000  0  6G25G16G11G20G 1G 2
  21545337.721   -20830543.13843 -16182487.40142  21545340.150    21545337.321
  22979338.139   -14103874.89843 -10947607.71242  22979340.749    22979340.592
  22623377.461   -16736923.40743 -12988079.90842  22623379.708    22623378.600
  21006406.031   -24666974.82344 -18942488.90642  21006407.959    21006405.358
  22450167.140   -17641617.46343 -13512857.84142  22450169.600    22450168.915
  23425412.479   -10978136.34443  -8511421.15442  23425414.847    23425418.442
 03  6  9  0 51  0.0000000  0  6G25G16G11G20G 1G 2
  21557313.906   -20767607.91943 -16133446.99042  21557316.313    21557313.500
  22963812.512   -14185461.93643 -11011181.87942  22963815.166    22963815.004
  22637268.031   -16663928.44743 -12931200.83342  22637270.279    22637269.221
  20995349.700   -24725076.02444 -18987762.54942  20995351.622    20995349.067
  22439379.080   -17698308.96343 -13557032.96342  22439381.530    22439380.803
  23409602.773   -11061216.20943  -8576158.51542  23409605.134    23409608.633
 03  6  9  0 51 30.0000000  0  6G25G16G11G20G 1G 2
  21569345.057   -20704383.73943 -16084181.41242  21569347.459    21569344.705
  22948331.479   -14266814.87543 -11074573.65742  22948334.068    22948333.942
  22651210.627   -16590660.23243 -12874108.83742  22651212.845    22651211.793
  20984360.957   -24782822.16444 -19032759.52542  20984362.889    20984360.284
  22428613.185   -17754883.78443 -13601117.15942  22428615.670    22428614.882
  23393815.275   -11144179.33243  -8640804.90742  23393817.754    23393821.033
 03  6  9  0 52  0.0000000  0  6G25G16G11G20G 1G 2
  21581433.208   -20640859.98743 -16034682.40542  21581435.643    21581432.886
  22932897.916   -14347918.06043 -11137770.80442  22932900.487    22932900.406
  22665206.979   -16517109.30643 -12816796.55742  22665209.169    22665208.179
  20973442.578   -24840198.69444 -19077468.49342  20973444.497    20973441.874
  22417871.914   -17811329.46343 -13645100.73342  22417874.368    22417873.529
  23378052.835   -11227010.65143  -8705348.57742  23378055.348    23378058.568
 03  6  9  0 52 30.0000000  0  6G25G16G11G20G 1G 2
  21593576.133   -20577048.59643 -15984959.26342  21593578.563    21593575.828
  22917510.469   -14428778.96743 -11200779.16742  22917513.011    22917512.956
  22679254.656   -16443288.77343 -12759274.18142  22679256.874    22679255.861
  20962592.992   -24897213.51644 -19121895.60942  20962594.931    20962592.283
  22407153.148   -17867656.49343 -13688991.84842  22407155.621    22407154.782
  23362314.030   -11309717.90243  -8769795.57942  23362316.474    23362319.745
 03  6  9  0 53  0.0000000  0  6G25G16G11G20G 1G 2
  21605774.450   -20512946.18443 -15935009.35342  21605776.876    21605774.124
  22902170.933   -14509388.18443 -11263591.42142  22902173.401    22902173.374
  22693354.272   -16369195.16343 -12701539.02542  22693356.512    22693355.571
  20951813.794   -24953858.46644 -19166034.51342  20951815.729    20951813.070
  22396458.104   -17923858.96343 -13732785.90942  22396460.559    22396459.695
  23346600.482   -11392292.55043  -8834139.26242  23346602.850    23346606.074
 03  6  9  0 53 30.0000000  0  6G25G16G11G20G 1G 2
  21618028.716   -20448549.63343 -15884830.24242  21618031.155    21618028.385
  22886880.900   -14589737.48743 -11326201.13242  22886883.321    22886883.270
  22707506.351   -16294825.93243 -12643589.10042  22707508.627    22707507.716
  20941106.478   -25010125.76844 -19209879.14442  20941108.409    20941105.724
  22385787.812   -17979931.51843 -13776478.74042  22385790.253    22385789.357
  23330913.744   -11474726.35343  -8898373.21242  23330916.077    23330919.209
 03  6  9  0 54  0.0000000  0  6G25G16G11G20G 1G 2
  21630337.039   -20383869.10143 -15834429.84842  21630339.493    21630336.685
  22871639.362   -14669831.95343 -11388612.27742  22871641.750    22871641.643
  22721708.759   -16220192.30443 -12585433.15542  22721711.006    22721710.166
  20930469.860   -25066021.51444 -19253434.25142  20930471.789    20930469.109
  22375140.639   -18035882.40543 -13820076.75942  22375143.085    22375142.179
  23315252.656   -11557025.16043  -8962501.94942  23315255.051    23315258.065
 03  6  9  0 54 30.0000000  0  6G25G16G11G20G 1G 2
  21642697.467   -20318914.76443 -15783816.10242  21642699.932    21642697.100
  22856445.386   -14749676.47143 -11450828.66742  22856447.767    22856447.538
  22735959.455   -16145305.08643 -12527079.61242  22735961.689    22735960.874
  20919902.861   -25121551.40144 -19296704.27442  20919904.787    20919902.114
  22364515.049   -18091719.82843 -13863586.37242  22364517.497    22364516.633
  23299616.252   -11639194.21743  -9026529.59142  23299618.649    23299621.593
 03  6  9  0 55  0.0000000  0  6G25G16G11G20G 1G 2
  21655110.894   -20253682.02043 -15732985.41642  21655113.338    21655110.498
  22841300.849   -14829261.18343 -11512842.59842  22841303.217    22841302.938
  22750259.165   -16070160.17143 -12468525.25542  22750261.429    22750260.596
  20909407.189   -25176706.48344 -19339682.24542  20909409.116    20909406.443
  22353912.393   -18147436.97843 -13907002.26942  22353914.867    22353913.980
  23284006.351   -11721224.11443  -9090448.79442  23284008.753    23284011.598
 03  6  9  0 55 30.0000000  0  6G25G16G11G20G 1G 2
  21667576.990   -20188172.42143 -15681938.99842  21667579.427    21667576.578
  22826206.381   -14908582.84743 -11574651.57742  22826208.730    22826208.430
  22764607.461   -15994759.84443 -12409771.88042  22764609.720    22764608.941
  20898983.307   -25231484.24644 -19382366.20342  20898985.250    20898982.577
  22343332.605   -18203033.82243 -13950324.41242  22343335.078    22343334.168
  23268423.462   -11803111.96243  -9154257.32342  23268425.906    23268428.688
 03  6  9  0 56  0.0000000  0  6G25G16G11G20G 1G 2
  21680093.780   -20122396.43443 -15630685.01042  21680096.221    21680093.355
  22811160.965   -14987646.84943 -11636259.77642  22811163.307    22811162.930
  22779002.171   -15919115.62343 -12350828.45442  22779004.431    22779003.683
  20888630.108   -25285890.68144 -19424760.81442  20888632.049    20888629.376
  22332774.086   -18258518.64943 -13993559.27842  22332776.578    22332775.709
  23252866.505   -11884863.44543  -9217959.58942  23252868.929    23252871.650
 03  6  9  0 56 30.0000000  0  6G25G16G11G20G 1G 2
  21692666.440   -20056326.69543 -15579202.12242  21692668.891    21692666.043
  22796170.797   -15066420.73843 -11697641.91042  22796173.083    22796172.611
  22793448.402   -15843200.73343 -12291674.12642  22793450.644    22793449.964
  20878353.539   -25339894.36144 -19466841.58842  20878355.488    20878352.825
  22322242.500   -18313862.18143 -14036684.04342  22322244.971    22322244.076
  23237341.600   -11966446.49443  -9281530.61242  23237344.063    23237346.777
 03  6  9  0 57  0.0000000  0  6G25G16G11G20G 1G 2
  21705291.223   -19989983.11143 -15527505.84142  21705293.678    21705290.835
  22781233.055   -15144918.69743 -11758809.03942  22781235.365    22781234.817
  22807942.228   -15767035.79443 -12232324.95442  22807944.435    22807943.742
  20868150.715   -25393510.48944 -19508620.37742  20868152.676    20868150.012
  22311734.448   -18369081.92143 -14079712.33642  22311736.919    22311736.013
  23221845.942   -12047876.08343  -9344982.03042  23221848.367    23221851.083
 03  6  9  0 57 30.0000000  0  6G25G16G11G20G 1G 2
  21717967.639   -19923368.19543 -15475598.13642  21717970.098    21717967.268
  22766348.221   -15223138.40243 -11819759.34942  22766350.570    22766349.939
  22822482.980   -15690624.06643 -12172783.46742  22822485.203    22822484.518
  20858021.985   -25446737.25044 -19550095.76142  20858023.952    20858021.281
  22301249.928   -18424178.49843 -14122644.67442  22301252.338    22301251.398
  23206379.927   -12129150.01443  -9408312.19442  23206382.300    23206384.947
 03  6  9  0 58  0.0000000  0  6G25G16G11G20G 1G 2
  21730693.574   -19856492.97843 -15423487.60142  21730696.008    21730693.237
  22751515.248   -15301085.69343 -11880497.38542  22751517.609    22751516.905
  22837068.507   -15613977.01743 -12113058.61842  22837070.758    22837070.099
  20847966.065   -25499581.35444 -19591272.96542  20847968.051    20847965.376
  22290787.075   -18479161.00043 -14165488.11942  22290789.469    22290788.510
  23190942.336   -12210274.41643  -9471525.82942  23190944.717    23190947.283
 03  6  9  0 58 30.0000000  0  6G25G16G11G20G 1G 2
  21743470.502   -19789349.71743 -15371168.19942  21743472.962    21743470.208
  22736736.580   -15378747.76243 -11941013.17542  22736738.960    22736738.208
  22851700.137   -15537087.91443 -12053145.16342  22851702.385    22851701.712
  20837985.222   -25552030.83144 -19632142.67242  20837987.214    20837984.545
  22280347.779   -18534019.65143 -14208235.05342  22280350.181    22280349.206
  23175535.459   -12291237.07843  -9534613.42342  23175537.931    23175540.453
 03  6  9  0 59  0.0000000  0  6G25G16G11G20G 1G 2
  21756300.208   -19721929.24143 -15318632.78042  21756302.647    21756299.922
  22722014.833   -15456110.45143 -12001295.67742  22722017.225    22722016.450
  22866379.316   -15459948.61943 -11993036.75442  22866381.565    22866380.957
  20828082.020   -25604072.48844 -19672694.59142  20828083.992    20828081.321
  22269934.214   -18588743.27343 -14250876.77242  22269936.558    22269935.589
  23160162.061   -12372024.20943  -9597564.24642  23160164.494    23160166.989
 03  6  9  0 59 30.0000000  0  6G25G16G11G20G 1G 2
  21769177.963   -19654256.09643 -15265900.48342  21769180.418    21769177.703
  22707346.357   -15533193.21243 -12061360.05342  22707348.765    22707348.009
  22881101.344   -15382584.31843 -11932753.01042  22881103.610    22881103.045
  20818252.591   -25655726.41144 -19712944.37942  20818254.577    20818251.898
  22259542.024   -18643354.37743 -14293430.82342  22259544.385    22259543.345
  23144818.274   -12452655.48843  -9660393.63042  23144820.708    23144823.221
 03  6  9  1  0  0.0000000  0  6G25G16G11G20G 1G 2
  21782105.067   -19586323.78743 -15212966.22742  21782107.520    21782104.823
  22692733.433   -15609984.05243 -12121196.95342  22692735.854    22692735.092
  22895867.426   -15304988.84443 -11872289.14642  22895869.644    22895869.060
  20808499.036   -25706981.71544 -19752883.55542  20808501.002    20808498.289
  22249172.881   -18697844.33343 -14335890.46242  22249175.235    22249174.211
  23129506.371   -12533119.49143  -9723092.67442  23129508.758    23129511.200
 03  6  9  1  0 30.0000000  0  6G25G16G11G20G 1G 2
  21795082.376   -19518127.66143 -15159826.40742  21795084.824    21795082.123
  22678177.864   -15686473.70943 -12180799.17342  22678180.297    22678179.467
  22910678.146   -15227158.71543 -11811642.43342  22910680.307    22910679.787
  20798822.913   -25757829.93744 -19792505.52542  20798824.890    20798822.154
  22238827.945   -18752206.76643 -14378250.74142  22238830.331    22238829.306
  23114227.894   -12613407.41343  -9785654.50942  23114230.334    23114232.750
 03  6  9  1  1  0.0000000  0  6G25G16G11G20G 1G 2
  21808107.277   -19449681.55943 -15106491.79842  21808109.685    21808107.012
  22663678.018   -15762670.69143 -12240173.34442  22663680.416    22663679.526
  22925530.659   -15149108.54943 -11750824.24442  22925532.902    22925532.355
  20789222.538   -25808280.12244 -19831817.33842  20789224.523    20789221.772
  22228505.145   -18806452.96243 -14420520.43242  22228507.539    22228506.554
  23098981.343   -12693527.76343  -9848085.76842  23098983.829    23098986.170
 03  6  9  1  1 30.0000000  0  6G25G16G11G20G 1G 2
  21821181.258   -19380977.44343 -15052956.13642  21821183.688    21821180.982
  22649236.386   -15838561.70043 -12299309.08642  22649238.806    22649237.823
  22940426.486   -15070830.92143 -11689828.82042  22940428.742    22940428.248
  20779700.242   -25858319.93944 -19870809.38242  20779702.232    20779699.492
  22218206.442   -18860572.95943 -14462691.80542  22218208.793    22218207.799
  23083769.076   -12773467.92843  -9910376.62042  23083771.528    23083773.865
 03  6  9  1  2  0.0000000  0  6G25G16G11G20G 1G 2
  21834303.858   -19312017.96543 -14999221.49942  21834306.275    21834303.569
  22634853.334   -15914144.71343 -12358204.83842  22634855.774    22634854.745
  22955364.929   -14992329.42743 -11628658.94342  22955367.154    22955366.727
  20770256.322   -25907948.04644 -19909480.61342  20770258.301    20770255.562
  22207931.591   -18914567.56643 -14504765.46842  22207933.919    22207932.897
  23068591.431   -12853226.20343  -9972525.75842  23068593.907    23068596.202
 03  6  9  1  2 30.0000000  0  6G25G16G11G20G 1G 2
  21847472.168   -19242818.12143 -14945299.55742  21847474.605    21847471.867
  22620527.063   -15989429.14243 -12416867.90942  22620529.506    22620528.472
  22970343.029   -14913619.41743 -11567326.57242  22970345.275    22970344.840
  20760888.725   -25957175.00444 -19947839.25642  20760890.705    20760887.958
  22197678.105   -18968449.55143 -14546751.36242  22197680.442    22197679.457
  23053446.530   -12932812.55143 -10034540.91842  23053448.994    23053451.251
 03  6  9  1  3  0.0000000  0  6G25G16G11G20G 1G 2
  21860686.989   -19173373.96343 -14891187.23942  21860689.410    21860686.676
  22606259.343   -16064406.14143 -12475291.44042  22606261.781    22606260.723
  22985361.359   -14834698.03843 -11505829.52642  22985363.592    22985363.193
  20751599.026   -26005992.65244 -19985878.95542  20751601.010    20751598.266
  22187447.261   -19022212.90243 -14588644.81842  22187449.557    22187448.599
  23038335.928   -13012218.41543 -10096415.44942  23038338.413    23038340.613
 03  6  9  1  3 30.0000000  0  6G25G16G11G20G 1G 2
  21873949.584   -19103678.68143 -14836879.24342  21873951.995    21873949.249
  22592052.330   -16139063.91143 -12533466.22042  22592054.793    22592053.718
  23000421.132   -14755558.96243 -11444162.84542  23000423.341    23000422.991
  20742389.395   -26054389.57644 -20023590.81842  20742391.386    20742388.623
  22177240.663   -19075848.74743 -14630438.92242  22177242.969    22177241.970
  23023261.930   -13091432.12243 -10158140.24642  23023264.368    23023266.543
 03  6  9  1  4  0.0000000  0  6G25G16G11G20G 1G 2
  21887257.553   -19033744.91843 -14782385.41342  21887259.952    21887257.201
  22577904.585   -16213410.18343 -12591398.26942  22577907.055    22577905.994
  23015519.634   -14676216.06043 -11382337.34742  23015521.856    23015521.503
  20733258.116   -26102374.72744 -20060981.82142  20733260.106    20733257.335
  22167056.299   -19129367.94343 -14672142.12642  22167058.595    22167057.561
  23008222.924   -13170461.95343 -10219721.77042  23008225.371    23008227.481
 03  6  9  1  4 30.0000000  0  6G25G16G11G20G 1G 2
  21900611.719   -18963568.30943 -14727702.35242  21900614.127    21900611.382
  22563817.943   -16287435.71043 -12649080.39042  22563820.368    22563819.363
  23030657.563   -14596665.88243 -11320350.34342  23030659.798    23030659.480
  20724206.784   -26149939.79044 -20098045.48142  20724208.763    20724206.004
  22156895.294   -19182764.34343 -14713749.65342  22156897.581    22156896.478
  22993220.604   -13249299.10143 -10281153.16342  22993223.027    22993225.061
 03  6  9  1  5  0.0000000  0  6G25G16G11G20G 1G 2
  21914012.676   -18893145.74143 -14672827.63642  21914015.105    21914012.354
  22549793.800   -16361132.42143 -12706506.28542  22549796.262    22549795.248
  23045835.444   -14516905.91543 -11258199.83242  23045837.653    23045837.447
  20715236.807   -26197077.20744 -20134775.91342  20715238.794    20715236.031
  22146758.624   -19236032.62943 -14755257.35242  22146760.958    22146759.795
  22978256.478   -13327935.51543 -10342428.13142  22978258.875    22978260.886
 03  6  9  1  5 30.0000000  0  6G25G16G11G20G 1G 2
  21927460.203   -18822478.44343 -14617762.21842  21927462.639    21927459.901
  22535833.110   -16434496.13543 -12763672.71542  22535835.533    22535834.503
  23061052.899   -14436938.15243 -11195887.42642  23061055.114    23061054.926
  20706348.792   -26243784.00644 -20171170.79642  20706350.766    20706347.998
  22136646.504   -19289171.73443 -14796664.38342  22136648.868    22136647.708
  22963331.242   -13406367.60943 -10403543.88842  22963333.650    22963335.528
 03  6  9  1  6  0.0000000  0  6G25G16G11G20G 1G 2
  21940951.717   -18751580.03543 -14562516.71842  21940954.136    21940951.434
  22521934.123   -16507535.40743 -12820586.33142  22521936.511    22521935.479
  23076307.122   -14356777.06143 -11133424.38242  23076309.368    23076309.170
  20697540.963   -26290069.35344 -20207237.28142  20697542.936    20697540.176
  22126556.855   -19342193.00343 -14837979.59642  22126559.206    22126558.023
  22948443.171   -13484604.46343 -10464507.52342  22948445.521    22948447.365
 03  6  9  1  6 30.0000000  0  6G25G16G11G20G 1G 2
  21954485.151   -18680461.22543 -14507099.47342  21954487.585    21954484.893
  22508095.872   -16580255.84043 -12877251.49642  22508098.218    22508097.139
  23091595.965   -14276433.94743 -11070819.51842  23091598.245    23091598.141
  20688812.124   -26335939.57044 -20242980.29042  20688814.081    20688811.353
  22116488.002   -19395104.94543 -14879209.62542  22116490.369    22116489.144
  22933591.149   -13562651.88943 -10525323.54842  22933593.458    22933595.276
 03  6  9  1  7  0.0000000  0  6G25G16G11G20G 1G 2
  21968060.017   -18609124.67743 -14451512.56242  21968062.479    21968059.803
  22494318.602   -16652655.56743 -12933666.77642  22494320.932    22494319.789
  23106918.798   -14195912.43443 -11008075.62142  23106921.059    23106921.016
  20680162.477   -26381393.72544 -20278399.09642  20680164.407    20680161.689
  22106439.742   -19447908.70043 -14920355.34342  22106442.116    22106440.876
  22918775.453   -13640508.32443 -10585990.75842  22918777.719    22918779.545
 03  6  9  1  7 30.0000000  0  6G25G16G11G20G 1G 2
  21981677.425   -18537564.82243 -14395751.64342  21981679.855    21981677.179
  22480604.408   -16724723.76143 -12989823.71242  22480606.765    22480605.573
  23122276.498   -14115207.75643 -10945188.99442  23122278.771    23122278.756
  20671593.862   -26426422.02444 -20313486.07342  20671595.794    20671593.058
  22096413.505   -19500596.67743 -14961410.85542  22096415.879    22096414.632
  22903998.074   -13718163.38743 -10646501.03642  22904000.343    22904002.098
 03  6  9  1  8  0.0000000  0  6G25G16G11G20G 1G 2
  21995340.059   -18465767.28443 -14339805.52142  21995342.468    21995339.802
  22466956.911   -16796441.19643 -13045707.32542  22466959.303    22466958.117
  23137671.661   -14034306.43243 -10882149.14942  23137673.911    23137673.865
  20663109.856   -26471005.78944 -20348226.66142  20663111.775    20663109.015
  22086412.460   -19553152.18643 -15002363.14542  22086414.856    22086413.588
  22889262.684   -13795598.07143 -10706839.61642  22889264.943    22889266.596
 03  6  9  1  8 30.0000000  0  6G25G16G11G20G 1G 2
  22009046.820   -18393737.94043 -14283678.77442  22009049.220    22009046.529
  22453375.980   -16867808.87543 -13101318.41242  22453378.427    22453377.193
  23153102.908   -13953215.38743 -10818961.47842  23153105.142    23153105.143
  20654710.058   -26515147.01144 -20382622.41242  20654711.982    20654709.184
  22076435.883   -19605579.21043 -15043215.31842  22076438.270    22076436.982
  22874568.985   -13872813.74543 -10767007.53842  22874571.180    22874572.827
 03  6  9  1  9  0.0000000  0  6G25G16G11G20G 1G 2
  22022795.313   -18321489.21643 -14227381.08642  22022797.698    22022794.989
  22439860.239   -16938834.14343 -13156662.67942  22439862.654    22439861.450
  23168567.783   -13871947.39643 -10755635.89842  23168570.040    23168570.041
  20646392.972   -26558853.65044 -20416679.52542  20646394.866    20646392.070
  22066481.828   -19657888.00643 -15083975.36342  22066484.186    22066482.891
  22859915.447   -13949818.08443 -10827010.77842  22859917.661    22859919.265
 03  6  9  1  9 30.0000000  0  6G25G16G11G20G 1G 2
  22036583.691   -18249030.96343 -14170920.11942  22036586.082    22036583.371
  22426408.744   -17009521.92243 -13211743.97542  22426411.117    22426409.926
  23184064.397   -13790513.00743 -10692180.67042  23184066.612    23184066.595
  20638157.473   -26602131.54044 -20450402.54942  20638159.354    20638156.555
  22056548.807   -19710086.10143 -15124649.14442  22056551.169    22056549.915
  22845301.177   -14026616.07643 -10886853.23942  22845303.437    22845304.972
 03  6  9  1 10  0.0000000  0  7G25G16G11G20G 1G13G 2
  22050413.949   -18176352.48943 -14114287.55442  22050416.354    22050413.657
  22413024.388   -17079856.74843 -13266550.23442  22413026.758    22413025.542
  23199594.385   -13708902.94543 -10628588.54542  23199596.590    23199596.630
  20630006.324   -26644966.06444 -20483780.09142  20630008.227    20630005.405
  22046639.216   -19762161.18243 -15165227.07442  22046641.566    22046640.331
  24651450.138    -5250577.15253  -4084009.65152  24651453.551    24651454.597
  22830729.037   -14103192.82143 -10946523.28842  22830731.305    22830732.755
 03  6  9  1 10 30.0000000  0  7G25G16G11G20G 1G13G 2
  22064284.940   -18103460.05343 -14057488.26542  22064287.348    22064284.634
  22399706.936   -17149840.10843 -13321082.63642  22399709.304    22399708.045
  23215156.439   -13627124.49643 -10564865.22542  23215158.635    23215158.698
  20621939.106   -26687359.62044 -20516814.02042  20621941.016    20621938.192
  22036752.223   -19814117.47343 -15205712.44242  22036754.595    22036753.339
  24636704.735    -5328064.80243  -4144389.44142  24636708.126    24636708.479
  22816198.632   -14179550.14243 -11006022.36942  22816200.932    22816202.281
 03  6  9  1 11  0.0000000  0  7G25G16G11G20G 1G13G 2
  22078196.172   -18030356.20143 -14000524.23842  22078198.582    22078195.863
  22386456.929   -17219469.22643 -13375339.00442  22386459.282    22386457.995
  23230749.999   -13545180.45343 -10501012.88542  23230752.187    23230752.331
  20613956.177   -26729310.13244 -20549502.71742  20613958.079    20613955.256
  22026887.868   -19865954.98943 -15246105.25842  22026890.180    22026888.935
  24621965.213    -5405521.49543  -4204745.10742  24621968.613    24621969.044
  22801710.410   -14255685.43843 -11065348.43342  22801712.771    22801714.078
 03  6  9  1 11 30.0000000  0  7G25G16G11G20G 1G13G 2
  22092154.733   -17957003.51643 -13943366.31542  22092157.141    22092154.431
  22373282.274   -17288702.03343 -13429286.55142  22373284.680    22373283.362
  23246382.012   -13463034.45943 -10437003.17742  23246384.168    23246384.382
  20606065.412   -26770776.35344 -20581814.04642  20606067.301    20606064.468
  22017053.585   -19917634.45543 -15286374.92442  22017055.876    22017054.611
  24607238.775    -5482908.10743  -4265046.11142  24607242.228    24607242.913
  22787272.414   -14331557.05843 -11124469.05142  22787274.804    22787276.061
 03  6  9  1 12  0.0000000  0  7G25G16G11G20G 1G13G 2
  22106150.911   -17883452.92043 -13886054.18142  22106153.378    22106150.680
  22360174.207   -17357584.97843 -13482961.49242  22360176.664    22360175.304
  23262042.494   -13380738.49343 -10372876.57442  23262044.664    23262044.962
  20598257.812   -26811805.39744 -20613784.71942  20598259.725    20598256.883
  22007239.992   -19969204.99343 -15326559.70242  22007242.288    22007241.017
  24592516.297    -5560273.52843  -4325330.60742  24592519.909    24592520.542
  22772875.786   -14407211.49543 -11183420.43542  22772878.154    22772879.389
 03  6  9  1 12 30.0000000  0  7G25G16G11G20G 1G13G 2
  22120186.079   -17809697.51543 -13828582.44742  22120188.560    22120185.897
  22347135.136   -17426105.62343 -13536354.12142  22347137.585    22347136.167
  23277732.726   -13298286.20043 -10308628.19142  23277734.910    23277735.264
  20590535.575   -26852386.03644 -20645405.98842  20590537.494    20590534.621
  21997448.822   -20020657.61443 -15366652.60542  21997451.134    21997449.842
  24577799.928    -5637608.45543  -4385591.41842  24577803.249    24577803.705
  22758522.710   -14482636.97843 -11242193.40542  22758525.084    22758526.281
 03  6  9  1 13  0.0000000  0  7G25G16G11G20G 1G13G 2
  22134257.985   -17735749.20343 -13770960.39842  22134260.442    22134257.822
  22334163.476   -17494271.57443 -13589470.36442  22334165.974    22334164.568
  23293450.227   -13215690.92843 -10244268.39442  23293452.366    23293452.717
  20582897.046   -26892526.65044 -20676684.37542  20582898.976    20582896.108
  21987678.216   -20072002.46943 -15406661.54042  21987680.508    21987679.194
  24563087.255    -5714923.97043  -4445837.08842  24563090.515    24563090.871
  22744211.682   -14557841.51843 -11300794.21642  22744214.017    22744215.206
 03  6  9  1 13 30.0000000  0  7G25G16G11G20G 1G13G 2
  22148368.020   -17661600.54643 -13713182.24742  22148370.460    22148367.874
  22321261.770   -17562070.18843 -13642300.36842  22321264.248    22321262.838
  23309196.314   -13132945.48943 -10179791.58342  23309198.458    23309198.794
  20575344.530   -26932215.20144 -20707610.50542  20575346.465    20575343.632
  21977929.996   -20123229.32943 -15446578.53642  21977932.302    21977931.009
  24548380.234    -5792209.13843  -4506059.08142  24548383.344    24548383.932
  22729945.109   -14632812.40243 -11359212.96742  22729947.408    22729948.560
 03  6  9  1 14  0.0000000  0  7G25G16G11G20G 1G13G 2
  22162516.045   -17587252.21043 -13655248.48742  22162518.487    22162515.908
  22308430.699   -17629497.48243 -13694841.03542  22308433.173    22308431.789
  23324970.708   -13050051.39243 -10115198.92542  23324972.837    23324973.135
  20567878.620   -26971448.63444 -20738181.99642  20567880.570    20567877.766
  21968204.454   -20174337.04143 -15486402.67942  21968206.770    21968205.470
  24533679.169    -5869462.96543  -4566256.66142  24533682.210    24533682.857
  22715723.645   -14707545.96443 -11417446.78942  22715725.924    22715727.086
 03  6  9  1 14 30.0000000  0  7G25G16G11G20G 1G13G 2
  22176703.389   -17512697.14643 -13597153.64642  22176705.851    22176703.288
  22295672.554   -17696541.57943 -13747083.10742  22295675.028    22295673.649
  23340774.443   -12967002.63943 -10050485.77442  23340776.585    23340776.940
  20560501.478   -27010215.79844 -20768390.15542  20560503.423    20560500.615
  21958503.392   -20225316.54743 -15526126.92842  21958505.671    21958504.353
  24518985.792    -5946676.56443  -4626422.90742  24518988.926    24518989.284
  22701549.504   -14782030.69643 -11475486.70142  22701551.858    22701553.006
 03  6  9  1 15  0.0000000  0  7G25G16G11G20G 1G13G 2
  22190929.378   -17437939.05843 -13538900.60342  22190931.860    22190929.275
  22282987.584   -17763201.33843 -13799025.69742  22282990.033    22282988.640
  23356606.761   -12883803.70943  -9985655.58542  23356608.952    23356609.293
  20553213.097   -27048516.51444 -20798234.85042  20553215.034    20553212.214
  21948826.387   -20276169.37343 -15565752.46342  21948828.680    21948827.320
  24504299.768    -6023851.37843  -4686558.95242  24504302.896    24504303.210
  22687422.967   -14856265.64743 -11533331.99942  22687425.303    22687426.417
 03  6  9  1 15 30.0000000  0  7G25G16G11G20G 1G13G 2
  22205193.746   -17362979.35443 -13480490.45942  22205196.206    22205193.628
  22270376.312   -17829473.51443 -13850666.27442  22270378.756    22270377.373
  23372467.239   -12800457.12343  -9920710.35042  23372469.426    23372469.775
  20546013.917   -27086348.42244 -20827714.23742  20546015.861    20546013.050
  21939173.559   -20326895.15243 -15605279.00542  21939175.842    21939174.502
  24489620.926    -6100987.23343  -4746664.59942  24489624.211    24489624.597
  22673344.500   -14930248.04443 -11590980.48842  22673346.814    22673347.901
 03  6  9  1 16  0.0000000  0  7G25G16G11G20G 1G13G 2
  22219494.358   -17287829.08843 -13421931.82342  22219496.846    22219494.264
  22257837.615   -17895364.45043 -13902009.78142  22257840.047    22257838.647
  23388353.482   -12716974.72343  -9855659.28242  23388355.707    23388356.144
  20538902.598   -27123718.46644 -20856833.73542  20538904.573    20538901.743
  21929543.281   -20377502.73443 -15644713.44542  21929545.537    21929544.162
  24474948.096    -6178093.01743  -4806746.80042  24474951.309    24474951.788
  22659312.860   -15003984.39243 -11648437.25442  22659315.146    22659316.194
 03  6  9  1 16 30.0000000  0  7G25G16G11G20G 1G13G 2
  22233832.105   -17212483.78043 -13363221.21042  22233834.610    22233832.026
  22245373.206   -17960864.97643 -13953049.07242  22245375.624    22245374.219
  23404266.268   -12633353.08943  -9790499.71542  23404268.459    23404269.020
  20531880.763   -27160618.32644 -20885586.84742  20531882.743    20531879.944
  21919936.651   -20427985.56043 -15684050.67342  21919938.959    21919937.566
  24460282.192    -6255162.25043  -4866800.57942  24460285.478    24460285.629
  22645329.770   -15077465.50943 -11705695.14142  22645332.081    22645333.106
 03  6  9  1 17  0.0000000  0  7G25G16G11G20G 1G13G 2
  22248205.573   -17136950.70743 -13304364.28742  22248208.065    22248205.513
  22232982.615   -18025977.61343 -14003786.11442  22232985.026    22232983.608
  23420203.994   -12549600.33443  -9725237.96442  23420206.183    23420206.794
  20524947.785   -27197051.40444 -20913976.23842  20524949.744    20524946.923
  21910352.745   -20478348.96643 -15723294.84042  21910355.094    21910353.688
  24445621.992    -6332200.32943  -4926830.04642  24445625.306    24445625.461
  22631394.704   -15150694.43843 -11762756.51842  22631396.984    22631397.996
 03  6  9  1 17 30.0000000  0  7G25G16G11G20G 1G13G 2
  22262614.154   -17061233.17443 -13245363.63042  22262616.647    22262614.089
  22220666.161   -18090700.85243 -14054219.72042  22220668.511    22220667.079
  23436165.877   -12465720.56543  -9659877.25642  23436168.008    23436168.693
  20518103.717   -27233017.31144 -20942001.59842  20518105.670    20518102.797
  21900791.381   -20528594.12343 -15762446.87242  21900793.738    21900792.270
  24430967.642    -6409208.33743  -4986836.07442  24430971.000    24430971.207
  22617507.826   -15223669.87943 -11819620.36742  22617510.136    22617511.109
 03  6  9  1 18  0.0000000  0  7G25G16G11G20G 1G13G 2
  22277058.996   -16985325.13643 -13186214.53042  22277061.491    22277058.918
  22208425.778   -18155024.17643 -14104341.71142  22208428.110    22208426.654
  23452152.830   -12381708.84143  -9594413.72942  23452155.035    23452155.729
  20511350.384   -27268506.19244 -20969655.24742  20511352.361    20511349.453
  21891254.002   -20578713.12843 -15801500.59742  21891256.372    21891254.903
  24416320.747    -6486178.37343  -5046812.54542  24416324.045    24416324.177
  22603671.164   -15296381.57343 -11876278.70542  22603673.465    22603674.387
 03  6  9  1 18 30.0000000  0  7G25G16G11G20G 1G13G 2
  22291538.890   -16909232.98443 -13126921.96242  22291541.369    22291538.796
  22196261.146   -18218949.35443 -14154153.45942  22196263.503    22196262.005
  23468163.607   -12297572.16943  -9528852.85542  23468165.915    23468166.558
  20504687.400   -27303520.37844 -20996939.00942  20504689.377    20504686.455
  21881739.878   -20628710.04643 -15840459.18642  21881742.224    21881740.767
  24401680.157    -6563114.73843  -5106762.77742  24401683.545    24401683.662
  22589884.355   -15368831.26443 -11932732.89342  22589886.668    22589887.519
 03  6  9  1 19  0.0000000  0  7G25G16G11G20G 1G13G 2
  22306055.088   -16832949.84243 -13067480.57542  22306057.578    22306055.032
  22184174.541   -18282464.58943 -14203645.76742  22184176.911    22184175.362
  23484199.335   -12213304.56543  -9463189.94942  23484201.602    23484202.355
  20498116.811   -27338048.94944 -21023844.36842  20498118.791    20498115.865
  21872250.740   -20678575.76443 -15879315.53742  21872253.061    21872251.625
  24387047.457    -6640008.31643  -5166679.65242  24387050.646    24387050.900
  22576149.583   -15441007.64243 -11988974.11142  22576151.877    22576152.681
 03  6  9  1 19 30.0000000  0  7G25G16G11G20G 1G13G 2
  22320605.095   -16756489.23343 -13007900.90642  22320607.546    22320605.007
  22172164.228   -18345578.92843 -14252825.69042  22172166.610    22172165.011
  23500257.251   -12128920.40443  -9397436.20542  23500259.504    23500260.298
  20491636.712   -27372101.96444 -21050379.16742  20491638.703    20491635.783
  21862784.351   -20728321.91043 -15918078.73042  21862786.694    21862785.193
  24372421.115    -6716870.77143  -5226572.30442  24372424.325    24372424.221
  22562465.027   -15512920.00543 -12045009.59842  22562467.286    22562468.106
 03  6  9  1 20  0.0000000  0  7G25G16G11G20G 1G13G 2
  22335186.075   -16679865.80843 -12948194.36242  22335188.529    22335186.003
  22160228.351   -18408302.34543 -14301701.00342  22160230.719    22160229.021
  23516334.428   -12044435.34443  -9331603.85342  23516336.596    23516337.433
  20485245.079   -27405690.11844 -21076551.73942  20485247.051    20485244.142
  21853338.299   -20777961.19343 -15956758.65142  21853340.641    21853339.102
  24357798.079    -6793714.95443  -5286450.72942  24357801.217    24357801.075
  22548828.717   -15584578.53743 -12100847.29242  22548831.017    22548831.824
 03  6  9  1 20 30.0000000  0  7G25G16G11G20G 1G13G 2
  22349802.295   -16603057.12743 -12888343.46442  22349804.743    22349802.232
  22148371.980   -18470607.82943 -14350250.65642  22148374.341    22148372.553
  23532434.726   -11959828.14843  -9265676.33842  23532436.939    23532437.790
  20478946.937   -27438787.15444 -21102341.62242  20478948.887    20478945.980
  21843917.235   -20827469.09543 -15995336.19542  21843919.595    21843917.996
  24343182.932    -6870516.43243  -5346295.80342  24343186.197    24343186.220
  22535245.869   -15655956.43243 -12156466.30842  22535248.129    22535248.927
 03  6  9  1 21  0.0000000  0  7G25G16G11G20G 1G13G 2
  22364450.138   -16526082.39043 -12828363.17342  22364452.583    22364450.064
  22136592.321   -18532509.92343 -14398485.97342  22136594.706    22136592.861
  23548554.559   -11875118.67943  -9199669.10842  23548556.740    23548557.629
  20472739.229   -27471408.77544 -21127761.05542  20472741.185    20472738.266
  21834517.980   -20876862.53743 -16033824.53842  21834520.308    21834518.704
  24328572.889    -6947292.20143  -5406120.91542  24328576.172    24328575.961
  22521713.634   -15727068.34643 -12211878.07542  22521715.880    22521716.655
 03  6  9  1 21 30.0000000  0  7G25G16G11G20G 1G13G 2
  22379131.399   -16448932.08743 -12768246.07442  22379133.810    22379131.296
  22124892.161   -18593994.46543 -14446395.92842  22124894.559    22124892.667
  23564695.415   -11790298.45843  -9133575.58142  23564697.583    23564698.564
  20466624.577   -27503541.50344 -21152799.53242  20466626.523    20466623.601
  21825142.650   -20926129.98043 -16072214.71042  21825145.004    21825143.372
  24313970.100    -7024030.62543  -5465916.95542  24313973.288    24313972.835
  22508234.666   -15797900.42443 -12267071.78342  22508236.902    22508237.643
 03  6  9  1 22  0.0000000  0  7G25G16G11G20G 1G13G 2
  22393846.058   -16371606.16043 -12707992.12942  22393848.479    22393845.920
  22113272.304   -18655056.93143 -14493977.00242  22113274.685    22113272.787
  23580857.207   -11705368.20943  -9067396.32942  23580859.426    23580860.437
  20460603.690   -27535181.54944 -21177454.10542  20460605.608    20460602.700
  21815791.702   -20975269.34743 -16110505.08542  21815794.046    21815792.394
  24299374.397    -7100729.94743  -5525682.45242  24299377.573    24299377.332
  22494809.741   -15868448.38243 -12322044.10042  22494811.982    22494812.653
 03  6  9  1 22 30.0000000  0  7G25G16G11G20G 1G13G 2
  22408591.955   -16294116.06943 -12647610.26242  22408594.368    22408591.810
  22101731.464   -18715704.16343 -14541234.50742  22101733.853    22101731.961
  23597037.655   -11620340.29043  -9001140.98842  23597039.760    23597040.843
  20454675.004   -27566336.73944 -21201730.86842  20454676.951    20454674.035
  21806463.371   -21024290.09843 -16148703.02742  21806465.686    21806464.001
  24284784.482    -7177399.58243  -5585424.83442  24284787.752    24284787.437
  22481437.563   -15938719.36143 -12376800.59442  22481439.811    22481440.395
 03  6  9  1 23  0.0000000  0  7G25G16G11G20G 1G13G 2
  22423367.896   -16216468.08043 -12587105.34942  22423370.331    22423367.739
  22090269.281   -18775938.14143 -14588169.99642  22090271.645    22090269.736
  23613235.238   -11535221.92843  -8934815.14942  23613237.401    23613238.602
  20448838.166   -27597009.61244 -21225631.80142  20448840.092    20448837.178
  21797156.758   -21073196.33943 -16186811.73842  21797159.099    21797157.385
  24270199.482    -7254043.73043  -5645147.38142  24270202.748    24270202.296
  22468117.738   -16008715.17043 -12431342.65842  22468119.968    22468120.491
 03  6  9  1 23 30.0000000  0  7G25G16G11G20G 1G13G 2
  22438177.015   -16138645.73143 -12526464.57642  22438179.457    22438176.850
  22078889.699   -18835737.87843 -14634767.11342  22078892.086    22078890.144
  23629452.859   -11449997.82443  -8868406.92642  23629455.075    23629456.354
  20443096.884   -27627180.27444 -21249141.40442  20443098.809    20443095.902
  21787875.447   -21121969.77243 -16224816.96042  21787877.797    21787876.065
  24255622.784    -7330644.18843  -5704835.90042  24255625.952    24255625.353
  22454854.177   -16078415.36143 -12485654.38142  22454856.392    22454856.865
 03  6  9  1 24  0.0000000  0  7G25G16G11G20G 1G13G 2
  22453018.149   -16060654.94743 -12465692.55442  22453020.630    22453018.026
  22067592.467   -18895104.97843 -14681027.11042  22067594.844    22067592.884
  23645689.459   -11364674.48743  -8801921.38942  23645691.670    23645692.978
  20437450.724   -27656850.88244 -21272261.35242  20437452.682    20437449.769
  21778618.690   -21170614.22543 -16262721.67442  21778621.040    21778619.293
  24241053.674    -7407204.74743  -5764493.30042  24241056.799    24241056.295
  22441646.601   -16147821.29843 -12539736.81142  22441648.816    22441649.192
 03  6  9  1 24 30.0000000  0  7G25G16G11G20G 1G13G 2
  22467890.137   -15982502.53243 -12404794.59342  22467892.558    22467889.966
  22056377.140   -18954041.67743 -14726951.73442  22056379.504    22056377.513
  23661943.437   -11279260.13243  -8735364.91142  23661945.631    23661946.943
  20431899.124   -27686024.69744 -21294994.19342  20431901.059    20431898.155
  21769385.525   -21219134.56543 -16300529.69342  21769387.894    21769386.139
  24226491.176    -7483730.31043  -5824123.41142  24226494.381    24226493.957
  22428494.505   -16216935.55543 -12593591.95542  22428496.727    22428497.050
 03  6  9  1 25  0.0000000  0  7G25G16G11G20G 1G13G 2
  22482791.718   -15904194.46743 -12343775.34242  22482794.120    22482791.518
  22045243.400   -19012549.57443 -14772542.22242  22045245.762    22045243.740
  23678213.386   -11193761.58343  -8668742.82242  23678215.583    23678216.859
  20426441.608   -27714704.08944 -21317341.76542  20426443.544    20426440.644
  21760175.260   -21267534.56443 -16338243.92542  21760177.645    21760175.886
  24211934.497    -7560224.81543  -5883729.33942  24211937.637    24211937.212
  22415397.530   -16285760.01943 -12647221.29342  22415399.750    22415400.052
 03  6  9  1 25 30.0000000  0  7G25G16G11G20G 1G13G 2
  22497721.941   -15825735.88843 -12282638.80442  22497724.319    22497721.698
  22034191.088   -19070629.40343 -14817799.15242  22034193.447    22034191.405
  23694498.214   -11108184.62143  -8602059.65342  23694500.471    23694501.714
  20421077.850   -27742890.73944 -21339305.38042  20421079.784    20421076.914
  21750987.290   -21315817.35343 -16375866.82842  21750989.675    21750987.936
  24197383.243    -7636691.28343  -5943313.42142  24197386.356    24197385.888
  22402355.565   -16354295.40243 -12700625.37942  22402357.796    22402358.093
 03  6  9  1 26  0.0000000  0  7G25G16G11G20G 1G13G 2
  22512681.200   -15747124.52143 -12221383.20942  22512683.580    22512680.967
  22023221.521   -19128274.36843 -14862717.22642  22023223.898    22023221.816
  23710798.190   -11022528.24343  -8535314.61442  23710800.407    23710801.734
  20415809.017   -27770578.64044 -21360880.35842  20415810.935    20415808.062
  21741822.464   -21363978.59343 -16413395.01942  21741824.834    21741823.102
  24182838.182    -7713125.70943  -6002872.54642  24182841.304    24182840.691
  22389369.850   -16422535.10943 -12753799.05042  22389372.085    22389372.419
 03  6  9  1 26 30.0000000  0  7G25G16G11G20G 1G13G 2
  22527668.156   -15668367.42043 -12160014.04842  22527670.565    22527667.971
  22012334.188   -19185487.22943 -14907298.59942  22012336.570    22012334.494
  23727111.851   -10936800.10843  -8468513.65142  23727114.068    23727115.393
  20410634.421   -27797771.25144 -21382069.38742  20410636.350    20410633.462
  21732679.837   -21412023.34443 -16450832.45342  21732682.168    21732680.413
  24168298.054    -7789533.28943  -6062410.73542  24168301.328    24168300.541
  22376439.849   -16490482.12443 -12806744.66842  22376442.095    22376442.418
 03  6  9  1 27  0.0000000  0  7G25G16G11G20G 1G13G 2
  22542684.906   -15589453.96143 -12098523.05342  22542687.327    22542684.722
  22001532.053   -19242252.71243 -14951531.36642  22001534.403    22001532.297
  23743441.006   -10850990.45943  -8401649.14342  23743443.202    23743444.652
  20405556.821   -27824454.10344 -21402861.20342  20405558.773    20405555.873
  21723561.840   -21459938.47143 -16488168.86442  21723564.156    21723562.423
  24153765.730    -7865900.65543  -6121917.64142  24153768.995    24153768.072
  22363568.484   -16558121.22143 -12859450.34542  22363570.696    22363571.048
 03  6  9  1 27 30.0000000  0  7G25G16G11G20G 1G13G 2
  22557728.733   -15510398.16943 -12036921.14742  22557731.158    22557728.564
  21990813.112   -19298580.93643 -14995423.41142  21990815.458    21990813.341
  23759782.721   -10765114.68743  -8334733.13942  23759785.000    23759786.418
  20400574.140   -27850638.22044 -21423264.39342  20400576.099    20400573.179
  21714466.138   -21507736.53143 -16525414.05442  21714468.425    21714466.707
  24139238.657    -7942240.74943  -6181403.24542  24139241.841    24139240.921
  22350753.736   -16625462.69943 -12911924.10742  22350755.940    22350756.279
 03  6  9  1 28  0.0000000  0  7G25G16G11G20G 1G13G 2
  22572805.252   -15431170.63043 -11975185.41242  22572807.642    22572805.059
  21980183.825   -19354438.07343 -15038948.38042  21980186.148    21980184.029
  23776142.461   -10679144.27543  -8267743.39242  23776144.727    23776146.199
  20395692.645   -27876290.70444 -21443253.32242  20395694.589    20395691.657
  21705398.723   -21555385.80743 -16562543.31542  21705401.027    21705399.269
  24124722.747    -8018522.07443  -6240843.07842  24124725.866    24124724.777
  22338002.003   -16692473.00643 -12964139.82242  22338004.188    22338004.545
 03  6  9  1 28 30.0000000  0  7G25G16G11G20G 1G13G 2
  22587908.892   -15351800.32743 -11913338.43942  22587911.321    22587908.746
  21969639.458   -19409848.81143 -15082125.50742  21969641.804    21969639.620
  23792514.548   -10593109.08943  -8200703.15842  23792516.820    23792518.320
  20390907.506   -27901436.77844 -21462847.64542  20390909.439    20390906.506
  21696354.531   -21602913.11243 -16599577.53942  21696356.842    21696355.066
  24110212.868    -8094771.45943  -6300258.02942  24110216.069    24110214.868
  22325308.625   -16759176.73743 -13016116.64542  22325310.814    22325311.123
 03  6  9  1 29  0.0000000  0  7G25G16G11G20G 1G13G 2
  22603036.492   -15272304.09243 -11851393.32842  22603038.973    22603036.398
  21959177.641   -19464825.83943 -15124964.67242  21959179.992    21959177.786
  23808895.658   -10507026.97043  -8133626.35642  23808897.834    23808899.406
  20386216.075   -27926090.31344 -21482058.16642  20386218.004    20386215.068
  21687330.678   -21650333.48443 -16636528.41942  21687332.981    21687331.215
  24095706.284    -8171003.63143  -6359659.57442  24095709.472    24095708.228
  22312671.154   -16825586.71143 -13067864.56842  22312673.321    22312673.650
 03  6  9  1 29 30.0000000  0  7G25G16G11G20G 1G13G 2
  22618191.121   -15192665.82743 -11789337.55042  22618193.610    22618191.112
  21948802.209   -19519348.68343 -15167449.93142  21948804.581    21948802.386
  23825288.656   -10420882.51943  -8066500.98642  23825290.800    23825292.285
  20381622.106   -27950231.55144 -21500869.49642  20381624.054    20381621.123
  21678330.638   -21697628.74643 -16673381.82242  21678332.950    21678331.143
  24081206.314    -8247201.03743  -6419034.00542  24081209.481    24081208.279
  22300093.406   -16891682.72943 -13119367.85542  22300095.605    22300095.913
 03  6  9  1 30  0.0000000  0  7G25G16G11G20G 1G13G 2
  22633371.567   -15112892.05643 -11727176.19342  22633374.044    22633371.574
  21938512.725   -19573419.78043 -15209583.17942  21938515.127    21938512.918
  23841691.877   -10334683.62243  -7999333.20942  23841694.038    23841695.580
  20377125.033   -27973863.75744 -21519284.17842  20377126.962    20377124.032
  21669353.587   -21744803.45543 -16710141.29242  21669355.902    21669354.049
  24066712.178    -8323368.03943  -6478384.75842  24066715.361    24066714.221
  22287574.961   -16957467.20043 -13170628.37942  22287577.156    22287577.446
 03  6  9  1 30 30.0000000  0  7G25G16G11G20G 1G13G 2
  22648580.411   -15032969.14543 -11664898.60242  22648582.860    22648580.417
  21928312.637   -19627021.29843 -15251350.51642  21928315.010    21928312.828
  23858107.873   -10248417.65543  -7932113.13642  23858110.033    23858111.645
  20372728.043   -27996969.88944 -21537288.93242  20372729.972    20372727.067
  21660402.447   -21791841.97743 -16746794.63242  21660404.767    21660402.852
  24052226.669    -8399488.96943  -6537699.62042  24052229.854    24052228.669
  22275119.147   -17022922.44943 -13221632.36542  22275121.361    22275121.591
 03  6  9  1 31  0.0000000  0  7G25G16G11G20G 1G13G 2
  22663815.435   -14952908.56243 -11602513.74842  22663817.837    22663815.473
  21918200.472   -19680160.58943 -15292757.68542  21918202.854    21918200.647
  23874534.272   -10162096.98243  -7864850.45542  23874536.436    23874538.021
  20368429.612   -28019558.12344 -21554890.13242  20368431.556    20368428.639
  21651475.417   -21838753.73943 -16783349.20242  21651477.741    21651475.782
  24037748.173    -8475573.66543  -6596986.23942  24037751.311    24037750.073
  22262724.632   -17088055.83343 -13272385.54442  22262726.803    22262726.972
 03  6  9  1 31 30.0000000  0  7G25G16G11G20G 1G13G 2
  22679074.466   -14872721.62443 -11540030.44142  22679076.904    22679074.563
  21908175.035   -19732844.41643 -15333809.94042  21908177.369    21908175.180
  23890968.761   -10075734.10643  -7797554.89542  23890970.980    23890972.534
  20364228.273   -28041636.26844 -21572093.86042  20364230.219    20364227.277
  21642570.736   -21885547.75443 -16819812.01642  21642573.087    21642571.130
  24023274.746    -8551631.14043  -6656251.62042  24023277.955    24023276.823
  22250389.967   -17152874.44643 -13322893.45142  22250392.162    22250392.306
 03  6  9  1 32  0.0000000  0  7G25G16G11G20G 1G13G 2
  22694361.341   -14792388.56543 -11477433.26442  22694363.774    22694361.450
  21898240.707   -19785049.21743 -15374488.92942  21898243.058    21898240.855
  23907414.887    -9989309.75543  -7730211.43042  23907417.151    23907418.648
  20360128.314   -28063181.57544 -21588882.39142  20360130.263    20360127.312
  21633692.580   -21932202.48343 -16856166.30142  21633694.935    21633692.973
  24008810.723    -8627640.03143  -6715479.20842  24008813.842    24008812.559
  22238119.723   -17217354.66843 -13373137.67842  22238121.913    22238122.002
 03  6  9  1 32 30.0000000  0  7G25G16G11G20G 1G13G 2
  22709674.242   -14711918.53043 -11414729.35842  22709676.686    22709674.371
  21888396.577   -19836780.04843 -15414798.59242  21888398.940    21888396.737
  23923870.757    -9902834.17643  -7662828.06342  23923872.978    23923874.602
  20356128.704   -28084199.61244 -21605260.06742  20356130.665    20356127.674
  21624839.636   -21978724.72243 -16892417.35042  21624841.982    21624840.026
  23994354.435    -8703607.13343  -6774674.18142  23994357.656    23994356.428
  22225912.955   -17281501.44843 -13423122.07642  22225915.116    22225915.172
 03  6  9  1 33  0.0000000  0  7G25G16G11G20G 1G13G 2
  22725008.891   -14631334.43243 -11351936.57142  22725011.320    22725008.989
  21878639.122   -19888055.59643 -15454753.49342  21878641.495    21878639.244
  23940331.807    -9816331.45343  -7595423.53142  23940334.036    23940335.621
  20352225.709   -28104710.01244 -21621242.18442  20352227.659    20352224.639
  21616007.954   -22025135.36043 -16928581.43442  21616010.276    21616008.335
  23979902.338    -8779553.39543  -6833852.95442  23979905.479    23979904.184
  22213766.085   -17345333.53743 -13472861.26742  22213768.213    22213768.197
 03  6  9  1 33 30.0000000  0  7G25G16G11G20G 1G13G 2
  22740368.214   -14550620.69043 -11289042.76642  22740370.596    22740368.313
  21868972.075   -19938856.15543 -15494338.27142  21868974.423    21868972.110
  23956800.984    -9729786.34343  -7527985.97542  23956803.141    23956804.800
  20348422.877   -28124693.99244 -21636814.10742  20348424.821    20348421.785
  21607200.853   -22071416.74043 -16964644.79942  21607203.178    21607201.203
  23965457.427    -8855461.33643  -6893001.85842  23965460.487    23965459.204
  22201682.768   -17408831.49843 -13522340.09542  22201684.892    22201684.806
 03  6  9  1 34  0.0000000  0  7G25G16G11G20G 1G13G 2
  22755749.849   -14469789.67043 -11226057.58142  22755752.219    22755749.947
  21859393.762   -19989190.35143 -15533559.65742  21859396.109    21859393.726
  23973275.521    -9643212.83743  -7460526.31342  23973277.689    23973279.345
  20344718.475   -28144160.80544 -21651983.04642  20344720.407    20344717.360
  21598416.330   -22117579.48943 -17000615.72842  21598418.645    21598416.677
  23951017.751    -8931341.71243  -6952129.26642  23951020.784    23951019.563
  22189661.394   -17472003.88643 -13571565.23242  22189663.520    22189663.376
 03  6  9  1 34 30.0000000  0  7G25G16G11G20G 1G13G 2
  22771156.675   -14388826.35443 -11162969.28742  22771159.073    22771156.722
  21849907.850   -20039038.93343 -15572402.63942  21849910.202    21849907.758
  23989758.081    -9556597.06943  -7393033.69342  23989760.204    23989762.072
  20341115.938   -28163092.27844 -21666734.83742  20341117.866    20341114.808
  21589657.682   -22163606.39443 -17036480.80942  21589659.965    21589657.988
  23936586.593    -9007177.43343  -7011221.89742  23936589.644    23936588.320
  22177705.569   -17534831.61843 -13620521.80642  22177707.730    22177707.530
 03  6  9  1 35  0.0000000  0  7G25G16G11G20G 1G13G 2
  22786586.859   -14307740.33743 -11099785.40442  22786589.227    22786586.904
  21840513.297   -20088407.50043 -15610871.58242  21840515.615    21840513.129
  24006246.736    -9469949.37043  -7325516.21042  24006248.800    24006250.785
  20337614.054   -28181494.71344 -21681074.38642  20337616.001    20337612.938
  21580923.454   -22209504.88143 -17072245.82042  21580925.745    21580923.732
  23922162.314    -9082976.22943  -7070285.74442  23922165.503    23922164.123
  22165814.275   -17597320.30743 -13669214.19342  22165816.443    22165816.209
 03  6  9  1 35 30.0000000  0  7G25G16G11G20G 1G13G 2
  22802038.178   -14226543.03943 -11036514.80742  22802040.582    22802038.230
  21831208.602   -20137303.74143 -15648972.48142  21831210.892    21831208.416
  24022739.043    -9383282.19943  -7257983.55842  24022741.156    24022743.390
  20334211.244   -28199376.66744 -21695008.36642  20334213.186    20334210.102
  21572211.837   -22255284.56343 -17107918.25842  21572214.149    21572212.097
  23907743.436    -9158747.45543  -7129328.10442  23907746.658    23907745.226
  22153986.015   -17659477.59543 -13717648.34242  22153988.250    22153987.985
 03  6  9  1 36  0.0000000  0  7G25G16G11G20G 1G13G 2
  22817511.025   -14145232.86543 -10973156.24942  22817513.406    22817511.066
  21821994.842   -20185722.09243 -15686700.99742  21821997.129    21821994.629
  24039235.290    -9296594.75543  -7190435.08042  24039237.326    24039239.663
  20330908.378   -28216733.20144 -21708532.93142  20330910.340    20330907.249
  21563523.521   -22300941.66943 -17143495.17342  21563525.848    21563523.818
  23893330.458    -9234487.64343  -7188346.29242  23893333.619    23893332.109
  22142221.974   -17721297.82943 -13765819.86242  22142224.171    22142223.877
 03  6  9  1 36 30.0000000  0  7G25G16G11G20G 1G13G 2
  22833012.004   -14063774.68143 -10909682.36542  22833014.424    22833012.048
  21812879.465   -20233623.45843 -15724026.66642  21812881.741    21812879.239
  24055741.742    -9209853.32343  -7122844.56442  24055743.828    24055746.213
  20327712.711   -28233526.38543 -21721618.51742  20327714.700    20327711.606
  21554865.603   -22346439.24543 -17178947.78642  21554867.925    21554865.873
  23878930.340    -9310160.14143  -7247311.72942  23878933.504    23878931.959
  22130529.431   -17782742.07543 -13813698.39342  22130531.651    22130531.354
 03  6  9  1 37  0.0000000  0  7G25G16G11G20G 1G13G 2
  22848534.690   -13982202.46843 -10846119.62042  22848537.088    22848534.740
  21803856.725   -20281037.89543 -15760972.91242  21803859.028    21803856.491
  24072251.946    -9123092.63343  -7055239.03642  24072253.937    24072256.418
  20324618.409   -28249786.96144 -21734289.08342  20324620.377    20324617.317
  21546231.961   -22391809.15343 -17214300.91942  21546234.278    21546232.214
  23864536.989    -9385796.89243  -7306249.32142  23864540.163    23864538.689
  22118902.730   -17843840.35543 -13861307.34042  22118904.932    22118904.641
 03  6  9  1 37 30.0000000  0  7G25G16G11G20G 1G13G 2
  22864076.245   -13900531.08343 -10782479.60742  22864078.634    22864076.301
  21794924.547   -20327976.50943 -15797548.38342  21794926.852    21794924.285
  24088762.636    -9036328.85243  -6987631.11042  24088764.711    24088767.222
  20321623.177   -28265526.87944 -21746553.94042  20321625.144    20321622.096
  21537620.130   -22437064.28743 -17249564.61842  21537622.480    21537620.416
  23850148.092    -9461410.52643  -7365168.88642  23850151.171    23850149.909
  22107339.798   -17904603.80043 -13908655.38342  22107341.960    22107341.659
 03  6  9  1 38  0.0000000  0  7G25G16G11G20G 1G13G 2
  22879640.788   -13818738.79043 -10718745.36942  22879643.175    22879640.887
  21786087.770   -20374413.59843 -15833733.06042  21786090.097    21786087.528
  24105278.038    -8949540.79243  -6920004.25642  24105280.063    24105282.576
  20318731.771   -28280721.23443 -21758393.68142  20318733.746    20318730.704
  21529034.736   -22482180.71943 -17284720.23442  21529037.059    21529035.026
  23835768.123    -9536977.45443  -7424052.07542  23835771.181    23835769.721
  22095845.411   -17965006.75643 -13955722.51842  22095847.585    22095847.264
 03  6  9  1 38 30.0000000  0  7G25G16G11G20G 1G13G 2
  22895223.908   -13736848.95643 -10654935.13842  22895226.302    22895223.958
  21777342.730   -20420368.80143 -15869542.23942  21777345.025    21777342.483
  24121793.427    -8862752.74243  -6852377.42342  24121795.540    24121797.987
  20315940.299   -28295390.52943 -21769824.28742  20315942.246    20315939.206
  21520471.659   -22527179.79743 -17319784.40742  21520473.983    21520471.951
  23821392.896    -9612519.26843  -7482915.69042  23821395.955    23821394.534
  22084415.924   -18025068.60743 -14002523.85542  22084418.103    22084417.793
 03  6  9  1 39  0.0000000  0  7G25G16G11G20G 1G13G 2
  22910826.328   -13654857.78343 -10591045.93542  22910828.718    22910826.384
  21768690.822   -20465834.66043 -15904970.10642  21768693.098    21768690.562
  24138309.372    -8775962.12943  -6784748.59242  24138311.396    24138313.902
  20313250.032   -28309527.97843 -21780840.46742  20313251.976    20313248.909
  21511931.983   -22572055.82543 -17354752.69642  21511934.329    21511932.291
  23807023.460    -9688030.27443  -7541755.28542  23807026.559    23807025.066
  22073052.757   -18084781.90343 -14049053.59842  22073054.940    22073054.646
 03  6  9  1 39 30.0000000  0  7G25G16G11G20G 1G13G 2
  22926450.386   -13572753.08843 -10527068.27942  22926452.722    22926450.387
  21760135.108   -20510794.97843 -15940004.04942  21760137.414    21760134.827
  24154827.839    -8689158.06943  -6717109.28042  24154829.986    24154832.373
  20310663.848   -28323118.36943 -21791430.36542  20310665.804    20310662.727
  21503418.540   -22616794.25043 -17389613.76242  21503420.865    21503418.832
  23792662.664    -9763496.49243  -7600559.99942  23792665.744    23792664.129
  22061758.994   -18144130.57143 -14095299.21042  22061761.154    22061760.895
 03  6  9  1 40  0.0000000  0  8G25G16G11G20G 1G13G 2G 4
  22942094.619   -13490542.28843 -10463007.94042  22942096.945    22942094.613
  21751674.804   -20555253.77243 -15974647.18942  21751677.158    21751674.547
  24171347.162    -8602349.07943  -6649466.12042  24171349.346    24171351.640
  20308180.871   -28336166.48743 -21801597.71142  20308182.829    20308179.746
  21494930.161   -22661400.88543 -17424372.13842  21494932.493    21494930.431
  23778309.237    -9838923.55143  -7659334.18742  23778312.379    23778310.683
  22050533.856   -18203118.62343 -14141263.81842  22050536.004    22050535.769
  24762558.178    -6227351.71753  -4806121.54952  24762561.232    24762560.147
 03  6  9  1 40 30.0000000  0  8G25G16G11G20G 1G13G 2G 4
  22957756.592   -13408238.05343 -10398874.78842  22957758.958    22957756.599
  21743308.265   -20599219.97243 -16008906.49142  21743310.627    21743307.989
  24187864.855    -8515548.58343  -6581829.59942  24187867.035    24187869.467
  20305799.183   -28348682.20244 -21811350.19942  20305801.162    20305798.052
  21486464.857   -22705886.30643 -17459036.06042  21486467.176    21486465.077
  23763961.391    -9914321.79743  -7718085.93042  23763964.540    23763962.783
  22039375.671   -18261754.77943 -14186954.22642  22039377.850    22039377.588
  24754160.028    -6271484.56443  -4840510.71842  24754162.868    24754161.881
 03  6  9  1 41  0.0000000  0  8G25G16G11G20G 1G13G 2G 4
  22973437.836   -13325832.61243 -10334662.78942  22973440.245    22973437.836
  21735037.706   -20642681.93943 -16042772.88242  21735040.059    21735037.350
  24204382.390    -8428749.65343  -6514194.29142  24204384.469    24204387.011
  20303520.897   -28360654.71043 -21820679.41342  20303522.867    20303519.740
  21478024.467   -22750240.62543 -17493597.82342  21478026.818    21478024.686
  23749620.790    -9989681.71943  -7776807.81742  23749623.873    23749622.043
  22028286.726   -18320027.38543 -14232361.34842  22028288.867    22028288.587
  24745852.895    -6315138.47743  -4874526.71542  24745855.665    24745854.751
 03  6  9  1 41 30.0000000  0  8G25G16G11G20G 1G13G 2G 4
  22989138.160   -13243327.11943 -10270372.81542  22989140.539    22989138.126
  21726863.591   -20685636.88343 -16076244.19742  21726865.955    21726863.221
  24220899.198    -8341954.42443  -6446561.86942  24220901.125    24220903.841
  20301346.344   -28372082.01343 -21829583.79342  20301348.319    20301345.177
  21469609.233   -22794462.76243 -17528056.58642  21469611.576    21469609.420
  23735287.660   -10065002.37343  -7835499.09642  23735290.745    23735288.890
  22017267.404   -18377933.89743 -14277483.19842  22017269.569    22017269.244
  24737637.253    -6358311.52443  -4908167.99342  24737640.268    24737639.092
 03  6  9  1 42  0.0000000  0  8G25G16G11G20G 1G13G 2G 4
  23004859.335   -13160711.96343 -10205997.39442  23004861.714    23004859.301
  21718788.415   -20728071.99443 -16109310.44242  21718790.783    21718788.037
  24237416.784    -8255154.53243  -6378925.82242  24237418.778    24237421.527
  20299277.821   -28382952.11343 -21838053.98842  20299279.790    20299276.649
  21461221.335   -22838541.39343 -17562403.52342  21461223.655    21461221.471
  23720964.054   -10140272.92643  -7894151.34542  23720967.119    23720965.255
  22006320.239   -18435461.32143 -14322309.65842  22006322.399    22006322.033
  24729515.605    -6400991.63743  -4941425.17842  24729518.478    24729517.346
 03  6  9  1 42 30.0000000  0  8G25G16G11G20G 1G13G 2G 4
  23020602.290   -13077982.13243 -10141532.62242  23020604.696    23020602.297
  21710813.855   -20769978.50843 -16141964.79642  21710816.173    21710813.429
  24253936.064    -8168346.21243  -6311283.20942  24253938.046    24253940.944
  20297316.811   -28393257.14143 -21846083.87042  20297318.775    20297315.656
  21452862.094   -22882469.36843 -17596633.07442  21452864.417    21452862.206
  23706651.358   -10215486.14643  -7952758.91742  23706654.412    23706652.414
  21995446.891   -18492600.73943 -14366833.77842  21995449.058    21995448.635
  24721489.152    -6443170.93843  -4974292.11542  24721491.976    24721490.877
 03  6  9  1 43  0.0000000  0  8G25G16G11G20G 1G13G 2G 4
  23036360.123   -12995174.14143 -10077006.94142  23036362.555    23036360.156
  21702933.560   -20811389.45543 -16174232.99342  21702935.868    21702933.147
  24270449.899    -8081567.00743  -6243663.27742  24270451.798    24270454.662
  20295456.936   -28403030.83643 -21853699.72642  20295458.894    20295455.774
  21444524.964   -22926281.22343 -17630772.13942  21444527.281    21444525.057
  23692343.035   -10290676.44843  -8011348.61642  23692346.118    23692344.057
  21984641.123   -18549384.96743 -14411081.12242  21984643.310    21984642.831
  24713551.583    -6484883.02143  -5006794.99542  24713554.341    24713553.262
 03  6  9  1 43 30.0000000  0  8G25G16G11G20G 1G13G 2G 4
  23052137.536   -12912263.42343 -10012401.21342  23052139.956    23052137.552
  21695152.860   -20852276.98943 -16206093.33342  21695155.167    21695152.437
  24286962.685    -7994792.78543  -6176047.23742  24286964.645    24286967.556
  20293703.294   -28412246.19843 -21860880.51842  20293705.243    20293702.169
  21436214.990   -22969950.46943 -17664800.07942  21436217.299    21436215.027
  23678044.076   -10365817.66943  -8069900.11142  23678047.157    23678045.014
  21973908.254   -18605786.17343 -14455030.01642  21973910.422    21973909.922
  24705708.052    -6526100.78443  -5038912.69042  24705710.733    24705709.662
 03  6  9  1 44  0.0000000  0  8G25G16G11G20G 1G13G 2G 4
  23067930.095   -12829273.05043  -9947733.41742  23067932.530    23067930.126
  21687468.120   -20892660.21943 -16237560.71842  21687470.417    21687467.702
  24303469.864    -7908047.93543  -6108454.07642  24303471.846    24303474.792
  20292052.141   -28420923.04143 -21867641.68642  20292054.062    20292050.994
  21427928.169   -23013497.84843 -17698733.05542  21427930.451    21427928.204
  23663750.411   -10440930.80043  -8128429.69742  23663753.575    23663751.340
  21963244.688   -18661823.36243 -14498695.26342  21963246.819    21963246.287
  24697954.774    -6566844.18643  -5070660.73742  24697957.472    24697956.483
 03  6  9  1 44 30.0000000  0  8G25G16G11G20G 1G13G 2G 4
  23083736.307   -12746210.85543  -9883009.64442  23083738.753    23083736.391
  21679878.521   -20932543.57943 -16268638.59142  21679880.795    21679878.075
  24319969.785    -7821341.48743  -6040890.86442  24319971.705    24319974.510
  20290502.403   -28429066.97843 -21873987.60342  20290504.312    20290501.244
  21419663.391   -23056929.30944 -17732575.70842  21419665.685    21419663.437
  23649460.957   -10516022.01943  -8186942.21042  23649464.115    23649461.890
  21952649.486   -18717500.96043 -14542080.30442  21952651.625    21952651.062
  24690290.776    -6607118.43243  -5102043.22842  24690293.677    24690292.416
 03  6  9  1 45  0.0000000  0  8G25G16G11G20G 1G13G 2G 4
  23099560.810   -12663052.55543  -9818211.00042  23099563.289    23099560.921
  21672389.271   -20971899.55543 -16299305.51642  21672391.557    21672388.798
  24336466.758    -7734650.07043  -5973339.37042  24336468.728    24336471.510
  20289059.175   -28436651.13943 -21879897.32942  20289061.112    20289058.008
  21411425.607   -23100218.81943 -17766307.74642  21411427.930    21411425.698
  23635180.580   -10591065.21243  -8245417.31242  23635183.770    23635181.491
  21942128.000   -18772791.37543 -14585163.64442  21942130.122    21942129.540
  24682721.169    -6646896.96143  -5133039.41942  24682724.016    24682722.838
 03  6  9  1 45 30.0000000  0  8G25G16G11G20G 1G13G 2G 4
  23115404.284   -12579794.65543  -9753334.74542  23115406.766    23115404.419
  21665001.700   -21010721.16943 -16329556.05242  21665003.998    21665001.215
  24352961.341    -7647971.17643  -5905797.61842  24352963.300    24352966.230
  20287723.698   -28443669.20343 -21885365.94242  20287725.618    20287722.507
  21403215.937   -23143360.74043 -17799924.78542  21403218.258    21403216.030
  23620910.452   -10666054.87043  -8303850.68442  23620913.577    23620911.367
  21931681.575   -18827687.22743 -14627939.53842  21931683.679    21931683.083
  24675247.163    -6686173.15043  -5163644.19042  24675249.902    24675248.732
 03  6  9  1 46  0.0000000  0  8G25G16G11G20G 1G13G 2G 4
  23131260.677   -12496468.94443  -9688405.64542  23131263.112    23131260.870
  21657710.355   -21049037.02543 -16359412.48942  21657712.679    21657709.864
  24369447.184    -7561338.36643  -5838291.76942  24369449.109    24369452.193
  20286490.294   -28450150.69543 -21890416.44842  20286492.243    20286489.130
  21395028.621   -23186385.04443 -17833450.17542  21395030.965    21395028.721
  23606644.795   -10741021.15743  -8362265.86342  23606647.888    23606645.547
  21921304.765   -18882217.18543 -14670430.31542  21921306.895    21921306.234
  24667863.065    -6724976.60143  -5193880.57342  24667865.887    24667864.711
 03  6  9  1 46 30.0000000  0  8G25G16G11G20G 1G13G 2G 4
  23147133.136   -12413058.50843  -9623410.51942  23147135.610    23147133.405
  21650519.156   -21086826.51843 -16388858.77442  21650521.498    21650518.693
  24385927.317    -7474735.03743  -5770808.89342  24385929.294    24385932.385
  20285362.765   -28456075.92343 -21895033.50042  20285364.698    20285361.579
  21386867.399   -23229272.47043 -17866868.91042  21386869.711    21386867.469
  23592387.192   -10815944.82743  -8420647.83242  23592390.335    23592387.917
  21911001.555   -18936360.44043 -14712619.76942  21911003.706    21911002.989
  24660572.824    -6763287.30743  -5223733.02242  24660575.519    24660574.362
 03  6  9  1 47  0.0000000  0  8G25G16G11G20G 1G13G 2G 4
  23163021.923   -12329562.41143  -9558348.65042  23163024.366    23163022.248
  21643428.907   -21124085.54943 -16417891.71842  21643431.256    21643428.467
  24402401.967    -7388161.12743  -5703348.93542  24402403.959    24402406.985
  20284341.768   -28461441.34843 -21899214.33942  20284343.699    20284340.573
  21378732.742   -23272020.22243 -17900178.81142  21378735.044    21378732.780
  23578138.097   -10890823.55243  -8478994.78242  23578141.260    23578138.841
  21900772.712   -18990112.92243 -14754504.72242  21900774.862    21900774.123
  24653376.850    -6801102.20043  -5253199.10642  24653379.567    24653378.497
 03  6  9  1 47 30.0000000  0  8G25G16G11G20G 1G13G 2G 4
  23178928.308   -12245973.78143  -9493214.67642  23178930.763    23178928.697
  21636441.542   -21160804.13443 -16446503.53442  21636443.841    21636441.067
  24418872.103    -7301611.14943  -5635907.63842  24418874.121    24418877.287
  20283428.987   -28466238.03943 -21902952.01242  20283430.918    20283427.771
  21370626.279   -23314619.52243 -17933373.03342  21370628.612    21370626.359
  23563899.223   -10965648.57243  -8537299.86542  23563902.433    23563900.006
  21890620.228   -19043464.18543 -14796077.03742  21890622.370    21890621.621
  24646277.052    -6838411.83843  -5282271.49542  24646279.737    24646278.563
 03  6  9  1 48  0.0000000  0  8G25G16G11G20G 1G13G 2G 4
  23194853.697   -12162285.49643  -9428003.04642  23194856.137    23194854.055
  21629559.096   -21196971.34243 -16474685.70042  21629561.376    21629558.567
  24435338.788    -7215078.91743  -5568480.17342  24435340.735    24435344.131
  20282626.325   -28470456.03443 -21906238.74742  20282628.257    20282625.111
  21362549.875   -23357061.05143 -17966444.31742  21362552.198    21362549.954
  23549672.362   -11040410.81443  -8595556.05742  23549675.509    23549673.156
  21880546.161   -19096403.53443 -14837328.38542  21880548.274    21880547.477
  24639275.201    -6875206.61343  -5310942.69342  24639277.928    24639276.609
 03  6  9  1 48 30.0000000  0  8G25G16G11G20G 1G13G 2G 4
  23210789.344   -12078543.06543  -9362749.21842  23210791.802    23210789.744
  21622773.517   -21232629.55743 -16502471.25442  21622775.811    21622772.923
  24451793.338    -7128610.62443  -5501102.52542  24451795.148    24451798.681
  20281925.632   -28474138.23843 -21909107.98542  20281927.557    20281924.417
  21354495.241   -23399388.24043 -17999426.50342  21354497.578    21354495.319
  23535449.178   -11115153.47343  -8653796.97142  23535452.361    23535449.973
  21870542.479   -19148972.84143 -14878291.38542  21870544.598    21870543.755
  24632363.276    -6911528.92643  -5339245.73842  24632365.969    24632364.674
 03  6  9  1 49  0.0000000  0  8G25G16G11G20G 1G13G 2G 4
  23226737.447   -11994735.03843  -9297444.27142  23226739.957    23226737.919
  21616087.482   -21267764.62443 -16529849.16242  21616089.798    21616086.860
  24468237.521    -7042196.71943  -5433767.25242  24468239.364    24468243.048
  20281329.401   -28477271.38143 -21911549.37942  20281331.342    20281328.194
  21346464.850   -23441588.10843 -18032309.48142  21346467.167    21346464.913
  23521232.141   -11189864.21443  -8712013.01742  23521235.198    23521232.909
  21860611.921   -19201157.94343 -14918955.00742  21860614.024    21860613.153
  24625543.706    -6947365.79543  -5367170.51842  24625546.420    24625545.208
 03  6  9  1 49 30.0000000  0  8G25G16G11G20G 1G13G 2G 4
  23242698.730   -11910858.09543  -9232085.63742  23242701.224    23242699.149
  21609502.279   -21302369.90343 -16556814.24842  21609504.603    21609501.639
  24484671.926    -6955834.88143  -5366472.55542  24484673.750    24484677.304
  20280838.737   -28479849.68343 -21913558.43342  20280840.684    20280837.564
  21338459.715   -23483655.26944 -18065089.04842  21338462.037    21338459.774
  23507022.224   -11264537.45843  -8770199.85542  23507025.306    23507022.972
  21850755.767   -19252952.01443 -14959313.93242  21850757.847    21850756.962
  24618817.682    -6982711.02743  -5394712.20542  24618820.448    24618819.118
 03  6  9  1 50  0.0000000  0  8G25G16G11G20G 1G13G 2G 4
  23258674.817   -11826903.32343  -9166666.36242  23258677.281    23258675.211
  21603020.189   -21336433.24143 -16583357.03442  21603022.525    21603019.556
  24501097.751    -6869517.01143  -5299212.10742  24501099.713    24501103.301
  20280455.772   -28481861.88043 -21915126.35942  20280457.745    20280454.654
  21330481.920   -23525578.71944 -18097756.63242  21330484.235    21330481.948
  23492821.447   -11339162.51143  -8828349.14342  23492824.567    23492822.169
  21840976.342   -19304342.73743 -14999358.55742  21840978.444    21840977.552
  24612187.354    -7017553.44743  -5421862.10942  24612190.028    24612188.780
 03  6  9  1 50 30.0000000  0  8G25G16G11G20G 1G13G 2G 4
  23274666.445   -11742866.98743  -9101183.52942  23274668.885    23274666.781
  21596642.609   -21369947.54143 -16609472.00542  21596644.917    21596641.925
  24517515.952    -6783239.92343  -5231983.45342  24517517.819    24517521.415
  20280181.762   -28483301.74943 -21916248.31942  20280183.722    20280180.636
  21322532.574   -23567352.63344 -18130307.69942  21322534.904    21322532.600
  23478630.955   -11413733.50143  -8886456.29142  23478634.130    23478631.689
  21831275.026   -19355323.12343 -15039083.44042  21831277.119    21831276.225
  24605654.000    -7051886.79243  -5448615.32842  24605656.630    24605655.353
 03  6  9  1 51  0.0000000  0  8G25G16G11G20G 1G13G 2G 4
  23290668.725   -11658774.51643  -9035656.93842  23290671.163    23290669.072
  21590365.223   -21402935.15043 -16635176.56742  21590367.550    21590364.524
  24533921.274    -6697030.58243  -5164807.55842  24533923.230    24533926.782
  20280012.285   -28484192.26343 -21916942.20642  20280014.254    20280011.154
  21314607.211   -23609000.55944 -18162760.58842  21314609.524    21314607.214
  23464446.300   -11488274.09143  -8944539.75342  23464449.462    23464447.021
  21821647.611   -19405915.11443 -15078505.67942  21821649.698    21821648.805
  24599212.972    -7085734.17043  -5474989.87542  24599215.745    24599214.386
 03  6  9  1 51 30.0000000  0  8G25G16G11G20G 1G13G 2G 4
  23306683.901   -11574614.05643  -8970077.38642  23306686.379    23306684.246
  21584190.916   -21435381.12743 -16660459.07642  21584193.225    21584190.193
  24550315.719    -6610877.95543  -5097675.87442  24550317.791    24550321.330
  20279950.025   -28484519.37443 -21917197.07942  20279952.013    20279948.877
  21306708.511   -23650508.34344 -18195104.27442  21306710.835    21306708.505
  23450269.961   -11562770.65843  -9002588.91042  23450273.122    23450270.714
  21812097.040   -19456103.29943 -15117613.26642  21812099.120    21812098.222
  24592867.218    -7119081.12943  -5500974.49242  24592869.986    24592868.545
 03  6  9  1 52  0.0000000  0  8G25G16G11G20G 1G13G 2G 4
  23322710.880   -11490391.93043  -8904449.77542  23322713.330    23322711.211
  21578119.003   -21467288.92343 -16685322.22342  21578121.311    21578118.271
  24566697.820    -6524789.67243  -5030594.30542  24566700.109    24566703.438
  20279994.134   -28484287.48243 -21917016.36642  20279996.117    20279992.986
  21298835.611   -23691880.61544 -18227342.36842  21298837.944    21298835.571
  23436101.191   -11637227.88543  -9060607.43542  23436104.354    23436101.790
  21802622.631   -19505891.23743 -15156408.96642  21802624.690    21802623.832
  24586615.821    -7151932.06843  -5526572.58742  24586618.676    24586617.140
 03  6  9  1 52 30.0000000  0  8G25G16G11G20G 1G13G 2G 4
  23338750.197   -11406105.15643  -8838771.80742  23338752.558    23338750.440
  21572150.645   -21498652.56843 -16709761.36042  21572152.955    21572149.919
  24583068.214    -6438763.71843  -4963561.33842  24583070.462    24583074.061
  20280145.619   -28483491.32143 -21916395.96042  20280147.602    20280144.473
  21290989.437   -23733112.35544 -18259470.95742  21290991.763    21290989.386
  23421940.756   -11711640.71843  -9118591.33342  23421943.866    23421941.432
  21793225.607   -19555272.56543 -15194887.83142  21793227.666    21793226.828
  24580459.825    -7184281.73043  -5551780.09042  24580462.652    24580461.115
 03  6  9  1 53  0.0000000  0  8G25G16G11G20G 1G13G 2G 4
  23354802.388   -11321750.58343  -8773040.99942  23354804.737    23354802.599
  21566287.034   -21529465.84543 -16733771.63942  21566289.358    21566286.284
  24599427.124    -6352797.98243  -4896575.28242  24599429.289    24599433.085
  20280405.525   -28482125.36243 -21915331.55642  20280407.523    20280404.389
  21283171.043   -23774198.30144 -18291485.94442  21283173.347    21283170.948
  23407789.672   -11786004.29943  -9176536.87542  23407792.797    23407790.403
  21783907.134   -19604240.80343 -15233044.80842  21783909.254    21783908.406
  24574400.259    -7216124.57043  -5576592.65842  24574403.074    24574401.597
 03  6  9  1 53 30.0000000  0  8G25G16G11G20G 1G13G 2G 4
  23370868.953   -11237320.54943  -8707251.39642  23370871.294    23370869.131
  21560530.120   -21559718.21343 -16757344.84242  21560532.428    21560529.390
  24615775.828    -6266885.76543  -4829630.93442  24615777.986    24615781.843
  20280775.672   -28480180.13143 -21913815.77542  20280777.677    20280774.535
  21275382.168   -23815128.86744 -18323379.85142  21275384.476    21275382.085
  23393649.793   -11860309.13343  -9234436.63142  23393652.849    23393650.643
  21774669.384   -19652785.18543 -15270871.50742  21774671.491    21774670.656
  24568439.016    -7247450.98143  -5601002.81042  24568441.782    24568440.388
 03  6  9  1 54  0.0000000  0  8G25G16G11G20G 1G13G 2G 4
  23386946.968   -11152830.31443  -8641414.87442  23386949.262    23386947.152
  21554877.612   -21589422.03143 -16780490.61242  21554879.907    21554876.877
  24632111.252    -6181043.25143  -4762740.87942  24632113.265    24632117.223
  20281253.575   -28477668.72543 -21911858.81742  20281255.574    20281252.424
  21267620.345   -23855917.35444 -18355163.04742  21267622.681    21267620.254
  23379518.603   -11934568.57343  -9292301.03142  23379521.702    23379519.382
  21765510.001   -19700917.67743 -15308377.25742  21765512.121    21765511.247
  24562573.568    -7278273.78943  -5625020.54942  24562576.425    24562574.958
 03  6  9  1 54 30.0000000  0  8G25G16G11G20G 1G13G 2G 4
  23403035.466   -11068284.96543  -8575535.43342  23403037.764    23403035.606
  21549329.080   -21618579.41043 -16803210.58642  21549331.356    21549328.354
  24648432.124    -6095276.91643  -4695910.18242  24648434.276    24648438.270
  20281838.680   -28474593.89243 -21909462.82542  20281840.686    20281837.535
  21259885.009   -23896566.71144 -18386837.83442  21259887.310    21259884.910
  23365395.474   -12008785.90843  -9350132.62042  23365398.565    23365396.119
  21756428.620   -19748640.34343 -15345563.65742  21756430.736    21756429.853
  24556803.369    -7308596.01843  -5648648.21142  24556806.183    24556804.792
 03  6  9  1 55  0.0000000  0  8G25G16G11G20G 1G13G 2G 4
  23419132.904   -10983692.67843  -8509619.40342  23419135.216    23419133.005
  21543883.539   -21647195.59643 -16825508.85342  21543885.799    21543882.793
  24664736.949    -6009595.79243  -4629145.89842  24664739.126    24664743.179
  20282529.826   -28470961.89643 -21906632.68242  20282531.829    20282528.661
  21252174.930   -23937083.19944 -18418409.08642  21252177.242    21252174.837
  23351279.137   -12082967.40343  -9407936.28942  23351282.139    23351279.657
  21747424.295   -19795958.12343 -15382434.56642  21747426.400    21747425.512
  24551127.315    -7338423.65643  -5671890.47442  24551130.140    24551128.782
 03  6  9  1 55 30.0000000  0  8G25G16G11G20G 1G13G 2G 4
  23435242.064   -10899038.35043  -8443655.02242  23435244.472    23435242.256
  21538544.414   -21675252.80143 -16847371.55042  21538546.644    21538543.599
  24681028.114    -5923986.01143  -4562437.20042  24681030.268    24681034.274
  20283330.234   -28466755.58643 -21903355.02242  20283332.245    20283329.096
  21244493.406   -23977449.79244 -18449863.53642  21244495.722    21244493.287
  23337172.797   -12157096.45643  -9465699.08642  23337175.843    23337173.233
  21738500.469   -19842852.86943 -15418975.83542  21738502.567    21738501.638
  24545548.576    -7367739.71243  -5694734.10542  24545551.440    24545550.095
 03  6  9  1 56  0.0000000  0  8G25G16G11G20G 1G13G 2G 4
  23451359.522   -10814340.66743  -8377656.86342  23451361.952    23451359.738
  21533308.496   -21702767.48143 -16868811.50342  21533310.759    21533307.667
  24697301.808    -5838467.63143  -4495799.72642  24697304.013    24697307.990
  20284236.654   -28461992.32343 -21899643.37542  20284238.650    20284235.488
  21236837.084   -24017683.79744 -18481214.67442  21236839.422    21236836.959
  23323073.152   -12231190.18943  -9523434.36342  23323076.220    23323073.609
  21729654.051   -19889340.84443 -15455200.14142  21729656.145    21729655.190
  24540063.942    -7396561.08343  -5717192.27442  24540066.832    24540065.442
 03  6  9  1 56 30.0000000  0  8G25G16G11G20G 1G13G 2G 4
  23467488.314   -10729583.66743  -8311612.49942  23467490.737    23467488.508
  21528179.481   -21729720.31943 -16889813.65942  21528181.761    21528178.665
  24713561.022    -5753025.51243  -4429221.67442  24713563.125    24713567.237
  20285252.546   -28456653.67643 -21895483.37642  20285254.543    20285251.395
  21229209.507   -24057766.81144 -18512448.15842  21229211.840    21229209.384
  23308983.713   -12305230.51443  -9581128.04842  23308986.757    23308984.120
  21720888.733   -19935402.60143 -15491092.32942  21720890.853    21720889.841
  24534677.014    -7424869.36643  -5739250.64542  24534679.914    24534678.448
 03  6  9  1 57  0.0000000  0  7G25G16G20G 1G13G 2G 4
  23483628.114   -10644768.61443  -8245522.88142  23483630.555    23483628.350
  21523157.693   -21756109.64743 -16910376.71842  21523159.998    21523156.885
  20286378.063   -28450738.89543 -21890874.43842  20286380.072    20286376.927
  21221610.813   -24097697.98244 -18543563.31742  21221613.145    21221610.705
  23294904.523   -12379216.60743  -9638779.43442  23294907.596    23294905.003
  21712204.891   -19981036.05843 -15526650.78342  21712207.050    21712205.991
  24529387.883    -7452663.87443  -5760908.66442  24529390.753    24529389.250
 03  6  9  1 57 30.0000000  0  7G25G16G20G 1G13G 2G 4
  23499776.446   -10559908.55843  -8179398.19742  23499778.927    23499776.719
  21518241.133   -21781946.00643 -16930508.89242  21518243.434    21518240.319
  20287611.121   -28444259.09143 -21885825.22742  20287613.129    20287609.982
  21214038.899   -24137488.40344 -18574568.80042  21214041.228    21214038.822
  23280833.585   -12453159.69743  -9696397.32642  23280836.624    23280834.008
  21703600.610   -20026251.48043 -15561883.49542  21703602.763    21703601.702
  24524194.411    -7479955.43743  -5782174.77042  24524197.308    24524195.822
 03  6  9  1 58  0.0000000  0  7G25G16G20G 1G13G 2G 4
  23515935.414   -10474992.64043  -8113229.99142  23515937.935    23515935.693
  21513432.414   -21807215.77643 -16950199.56842  21513434.715    21513431.598
  20288954.097   -28437201.54043 -21880325.82142  20288956.097    20288952.964
  21206496.261   -24177125.24344 -18605454.61342  21206498.575    21206496.155
  23266773.180   -12527047.47843  -9753972.12342  23266776.222    23266773.537
  21695078.536   -20071035.07743 -15596779.72242  21695080.638    21695079.572
  24519099.034    -7506731.69843  -5803039.35542  24519101.782    24519100.529
 03  6  9  1 58 30.0000000  0  7G25G16G20G 1G13G 2G 4
  23532103.161   -10390030.41743  -8047025.69742  23532105.731    23532103.523
  21508730.113   -21831926.22043 -16969454.40442  21508732.428    21508729.304
  20290405.524   -28429574.23143 -21874382.44942  20290407.503    20290404.372
  21198981.332   -24216616.16644 -18636226.71942  21198983.656    21198981.245
  23252721.833   -12600887.70943  -9811509.87942  23252724.846    23252722.062
  21686637.372   -20115393.39543 -15631344.56042  21686639.476    21686638.370
  24514100.228    -7533000.19643  -5823508.29042  24514103.033    24514101.676
 03  6  9  1 59  0.0000000  0  7G25G16G20G 1G13G 2G 4
  23548277.993   -10305031.36543  -7980792.69442  23548280.505    23548278.351
  21504133.012   -21856084.09143 -16988278.66642  21504135.301    21504132.170
  20291963.922   -28421384.75643 -21868001.02642  20291965.912    20291962.771
  21191492.770   -24255968.75244 -18666891.03542  21191495.082    21191492.671
  23238678.084   -12674687.76143  -9869016.32842  23238681.152    23238678.306
  21678275.887   -20159333.02443 -15665583.14542  21678277.999    21678276.849
  24509196.616    -7558768.48943  -5843587.42642  24509199.480    24509198.127
 03  6  9  1 59 30.0000000  0  7G25G16G20G 1G13G 2G 4
  23564464.069   -10219972.83743  -7914513.33742  23564466.565    23564464.452
  21499645.765   -21879664.57843 -17006653.01342  21499648.079    21499644.921
  20293633.853   -28412609.15043 -21861162.87942  20293635.825    20293632.688
  21184035.122   -24295158.77944 -18697428.67942  21184037.436    21184034.999
  23224646.528   -12748423.61343  -9926472.73642  23224649.654    23224646.729
  21669998.860   -20202828.75743 -15699475.83842  21670000.993    21669999.780
  24504392.726    -7584012.40543  -5863257.98542  24504395.596    24504394.324
 03  6  9  2  0  0.0000000  0  7G25G16G20G 1G13G 2G 4
  23580656.774   -10134879.81143  -7848207.10442  23580659.246    23580657.151
  21495264.237   -21902689.59443 -17024594.52642  21495266.570    21495263.369
  20295410.979   -28403270.03743 -21853885.63442  20295412.970    20295409.843
  21176604.110   -24334208.87344 -18727857.28442  21176606.444    21176603.965
  23210622.902   -12822118.06843  -9983896.89142  23210626.037    23210623.040
  21661802.165   -20245902.34343 -15733039.58342  21661804.314    21661803.047
  24499684.445    -7608754.58443  -5882537.55042  24499687.242    24499686.090
 03  6  9  2  0 30.0000000  0  7G25G16G20G 1G13G 2G 4
  23596856.727   -10049748.82343  -7781871.28642  23596859.176    23596857.090
  21490989.549   -21925153.23543 -17042098.60742  21490991.869    21490988.660
  20297296.379   -28393362.23443 -21846165.25642  20297298.347    20297295.233
  21169200.827   -24373113.39244 -18758172.45742  21169203.144    21169200.632
  23196608.052   -12895765.91543 -10041284.72442  23196611.217    23196608.232
  21653687.002   -20288547.42243 -15766269.42942  21653689.169    21653687.858
  24495072.545    -7632990.05243  -5901422.28242  24495075.363    24495074.348
 03  6  9  2  1  0.0000000  0  7G25G16G20G 1G13G 2G 4
  23613065.458    -9964571.66543  -7715499.48942  23613067.882    23613065.728
  21486823.708   -21947044.75243 -17059156.87342  21486826.037    21486822.783
  20299291.842   -28382875.98343 -21837994.13642  20299293.830    20299290.666
  21161827.156   -24411862.22144 -18788366.31542  21161829.469    21161826.915
  23182604.023   -12969357.22943 -10098628.52342  23182607.178    23182604.154
  21645655.457   -20330753.04743 -15799156.84542  21645657.628    21645656.291
  24490559.061    -7656708.55143  -5919904.18142  24490561.863    24490560.758
 03  6  9  2  1 30.0000000  0  7G25G16G20G 1G13G 2G 4
  23629280.863    -9879359.20843  -7649100.18242  23629283.294    23629281.148
  21482765.061   -21968372.91643 -17075776.17042  21482767.390    21482764.120
  20301395.602   -28371820.76343 -21829379.66742  20301397.572    20301394.381
  21154481.372   -24450464.59544 -18818446.05742  21154483.657    21154481.099
  23168608.916   -13042901.45943 -10155935.61442  23168612.041    23168609.052
  21637705.975   -20372527.46043 -15831708.25642  21637708.126    21637706.786
  24486142.149    -7679919.76943  -5937990.80342  24486145.022    24486143.826
 03  6  9  2  2  0.0000000  0  7G25G16G20G 1G13G 2G 4
  23645505.014    -9794100.83443  -7582665.10042  23645507.479    23645505.292
  21478816.158   -21989124.42343 -17091946.12042  21478818.462    21478815.148
  20303609.952   -28360184.36443 -21820312.32942  20303611.891    20303608.684
  21147165.875   -24488907.83044 -18848401.79542  21147168.125    21147165.544
  23154625.181   -13116385.63243 -10213195.90742  23154628.366    23154625.391
  21629841.087   -20413857.26843 -15863913.22342  21629843.233    21629841.899
  24481824.148    -7702611.28043  -5955672.45742  24481826.912    24481825.730
 03  6  9  2  2 30.0000000  0  7G25G16G20G 1G13G 2G 4
  23661733.723    -9708818.43843  -7516211.30242  23661736.140    23661734.013
  21474973.334   -22009318.55243 -17107681.75442  21474975.643    21474972.265
  20305931.105   -28347986.62743 -21810807.58542  20305933.033    20305929.810
  21139876.939   -24527211.38844 -18878248.69342  21139879.175    21139876.587
  23140649.183   -13189829.54143 -10270424.83642  23140652.376    23140649.379
  21622057.340   -20454760.96143 -15895786.15142  21622059.454    21622058.122
  24477601.160    -7724802.75743  -5972964.46642  24477604.002    24477602.788
 03  6  9  2  3  0.0000000  0  7G25G16G20G 1G13G 2G 4
  23677969.952    -9623496.46243  -7449726.66042  23677972.345    23677970.326
  21471239.772   -22028938.26143 -17122969.78842  21471242.095    21471238.687
  20308362.176   -28335211.05843 -21800852.58642  20308364.132    20308360.918
  21132617.777   -24565358.47044 -18907973.66342  21132620.021    21132617.403
  23126683.880   -13263216.91443 -10327609.71142  23126687.037    23126684.131
  21614357.959   -20495221.09443 -15927313.44942  21614360.065    21614358.745
  24473476.540    -7746477.52343  -5989853.85042  24473479.399    24473478.218
 03  6  9  2  3 30.0000000  0  7G25G16G20G 1G13G 2G 4
  23694213.833    -9538134.43943  -7383210.80742  23694216.198    23694214.187
  21467616.039   -22047980.65343 -17137807.96442  21467618.401    21467614.976
  20310903.602   -28321855.58943 -21790445.71642  20310905.573    20310902.363
  21125388.786   -24603346.79244 -18937574.92342  21125391.065    21125388.432
  23112729.869   -13336545.38743 -10384748.69642  23112732.966    23112730.066
  21606743.665   -20535234.32943 -15958492.51542  21606745.747    21606744.414
  24469450.542    -7767633.87543  -6006339.28642  24469453.455    24469452.101
 03  6  9  2  4  0.0000000  0  7G25G16G20G 1G13G 2G 4
  23710463.814    -9452740.15943  -7316669.83142  23710466.229    23710464.186
  21464101.244   -22066450.82443 -17152200.26042  21464103.567    21464100.157
  20313554.267   -28307926.26343 -21779591.68242  20313556.239    20313553.027
  21118189.013   -24641181.70844 -18967056.64542  21118191.301    21118188.650
  23098785.951   -13409820.39443 -10441845.99842  23098789.034    23098786.220
  21599213.452   -20574805.53043 -15989327.14442  21599215.553    21599214.209
  24465522.215    -7788277.31343  -6022425.03742  24465525.168    24465523.745
 03  6  9  2  4 30.0000000  0  7G25G16G20G 1G13G 2G 4
  23726717.547    -9367326.14543  -7250113.47142  23726719.967    23726717.944
  21460693.428   -22084358.92643 -17166154.58042  21460695.735    21460692.302
  20316312.020   -28293434.00943 -21768299.00442  20316314.008    20316310.800
  21111016.466   -24678873.62844 -18996426.94642  21111018.753    21111016.082
  23084850.198   -13483052.65243 -10498910.00942  23084853.323    23084850.524
  21591765.466   -20613944.54843 -16019825.00642  21591767.594    21591766.244
  24461689.386    -7808418.89743  -6038119.75142  24461692.461    24461690.820
 03  6  9  2  5  0.0000000  0  7G25G16G20G 1G13G 2G 4
  23742977.156    -9281881.18443  -7183533.00542  23742979.610    23742977.531
  21457395.040   -22101691.90743 -17179660.75642  21457397.337    21457393.883
  20319179.211   -28278366.67543 -21756558.21242  20319181.199    20319178.008
  21103873.496   -24716409.98844 -19025676.02742  21103875.789    21103873.121
  23070925.049   -13556229.47943 -10555930.83042  23070928.146    23070925.300
  21584402.292   -20652638.02743 -16049975.70142  21584404.420    21584403.068
  24457954.515    -7828046.18943  -6053413.71642  24457957.438    24457955.804
 03  6  9  2  5 30.0000000  0  7G25G16G20G 1G13G 2G 4
  23759244.346    -9196396.30643  -7116921.42942  23759246.830    23759244.778
  21454208.190   -22118438.66543 -17192710.13642  21454210.501    21454207.040
  20322157.817   -28262713.97343 -21744361.28842  20322159.805    20322156.620
  21096762.199   -24753779.94644 -19054795.45042  21096764.505    21096761.805
  23057012.474   -13629340.24143 -10612900.17642  23057015.545    23057012.690
  21577126.122   -20690874.34043 -16079770.16242  21577128.253    21577126.878
  24454319.391    -7847149.09343  -6068299.06342  24454322.307    24454320.569
 03  6  9  2  6  0.0000000  0  7G25G16G20G 1G13G 2G 4
  23775517.415    -9110880.56043  -7050285.81342  23775519.942    23775517.896
  21451131.589   -22134606.04143 -17205308.04742  21451133.909    21451130.471
  20325246.411   -28246483.20843 -21731713.92542  20325248.417    20325245.200
  21089681.292   -24790990.24744 -19083790.45542  21089683.572    21089680.903
  23043111.133   -13702392.05243 -10669823.57442  23043114.177    23043111.298
  21569935.773   -20728659.70443 -16109213.23442  21569937.906    21569936.501
  24450782.686    -7865734.63543  -6082781.26942  24450785.532    24450783.893
 03  6  9  2  6 30.0000000  0  7G25G16G20G 1G13G 2G 4
  23791793.813    -9025347.56343  -6983636.73842  23791796.276    23791794.284
  21448163.142   -22150205.06643 -17217463.08842  21448165.448    21448162.049
  20328442.697   -28229686.62143 -21718625.66442  20328444.684    20328441.474
  21082628.575   -24828052.30344 -19112669.94942  21082630.869    21082628.189
  23029218.758   -13775396.61943 -10726710.17242  23029221.801    23029218.901
  21562829.174   -20766004.86943 -16138313.29342  21562831.306    21562829.875
  24447342.127    -7883814.74343  -6096869.65042  24447344.928    24447343.376
 03  6  9  2  7  0.0000000  0  7G25G16G20G 1G13G 2G 4
  23808073.958    -8939795.23643  -6916972.61742  23808076.401    23808074.456
  21445303.498   -22165232.43443 -17229172.68642  21445305.784    21445302.374
  20331747.205   -28212321.25543 -21705094.20242  20331749.192    20331745.978
  21075604.747   -24864962.67344 -19141431.24342  21075607.029    21075604.345
  23015336.055   -13848350.47843 -10783557.26942  23015339.127    23015336.154
  21555807.117   -20802905.92443 -16167067.29942  21555809.219    21555807.746
  24443998.267    -7901386.66243  -6110562.03142  24444001.195    24443999.611
 03  6  9  2  7 30.0000000  0  7G25G16G20G 1G13G 2G 4
  23824357.382    -8854225.56943  -6850294.99442  23824359.784    23824357.849
  21442552.754   -22179687.59543 -17240436.40342  21442555.029    21442551.604
  20335159.845   -28194387.63443 -21691119.93942  20335161.856    20335158.620
  21068609.823   -24901721.09344 -19170074.13242  21068612.103    21068609.443
  23001463.084   -13921253.48243 -10840364.74442  23001466.141    23001463.078
  21548869.677   -20839362.05643 -16195474.60842  21548871.811    21548870.282
  24440751.096    -7918450.58843  -6123858.57042  24440753.971    24440752.402
 03  6  9  2  8  0.0000000  0  7G25G16G20G 1G13G 2G 4
  23840646.240    -8768627.26343  -6783595.04442  23840648.659    23840646.658
  21439913.427   -22193557.29543 -17251243.91742  21439915.688    21439912.250
  20338683.014   -28175873.27943 -21676693.16042  20338685.005    20338681.748
  21061646.331   -24938314.43244 -19198588.38742  21061648.601    21061645.926
  22987602.236   -13994092.65643 -10897122.47842  22987605.220    22987602.165
  21542019.587   -20875359.44043 -16223524.45342  21542021.670    21542020.098
  24437602.987    -7934994.11943  -6136749.62142  24437605.646    24437604.258
 03  6  9  2  8 30.0000000  0  7G25G16G20G 1G13G 2G 4
  23856938.963    -8683008.70243  -6716879.31642  23856941.325    23856939.385
  21437384.292   -22206847.72443 -17261600.05242  21437386.576    21437383.116
  20342315.383   -28156785.08743 -21661819.23442  20342317.341    20342314.105
  21054713.029   -24974749.02644 -19226978.94842  21054715.315    21054712.625
  22973752.327   -14066874.39143 -10953835.43842  22973755.292    22973752.195
  21535255.663   -20910903.77543 -16251221.27442  21535257.768    21535256.151
  24434552.620    -7951024.03743  -6149240.44842  24434555.215    24434553.824
 03  6  9  2  9  0.0000000  0  7G25G16G20G 1G13G 2G 4
  23873235.256    -8597371.25743  -6650148.88042  23873237.599    23873235.622
  21434965.436   -22219558.71143 -17271504.67242  21434967.701    21434964.239
  20346056.794   -28137123.72543 -21646498.68142  20346058.748    20346055.534
  21047810.002   -25011024.66944 -19255245.64742  21047812.255    21047809.562
  22959913.322   -14139598.77743 -11010503.72742  22959916.237    22959913.100
  21528578.077   -20945994.41843 -16278564.56942  21528580.185    21528578.561
  24431599.956    -7966540.78843  -6161331.40642  24431602.483    24431601.069
 03  6  9  2  9 30.0000000  0  7G25G16G20G 1G13G 2G 4
  23889535.725    -8511711.85943  -6583401.33242  23889538.160    23889536.059
  21432657.856   -22231684.90343 -17280953.60842  21432660.126    21432656.662
  20349908.152   -28116884.64443 -21630727.95842  20349910.108    20349906.897
  21040938.225   -25047135.83644 -19283384.18142  21040940.483    21040937.807
  22946086.177   -14212260.78743 -11067123.41342  22946089.062    22946085.928
  21521987.905   -20980625.63443 -16305549.87042  21521990.027    21521988.375
  24428745.715    -7981539.44543  -6173018.65342  24428748.405    24428746.770
 03  6  9  2 10  0.0000000  0  8G25G27G16G20G 1G13G 2G 4
  23905837.681    -8426044.46343  -6516647.56742  23905840.130    23905838.054
  24862893.460    -4090758.79353  -2980853.21252  24862896.715    24862901.457
  21430459.162   -22243238.92243 -17289956.69742  21430461.447    21430457.961
  20353866.945   -28096080.94143 -21614517.27142  20353868.900    20353865.691
  21034095.389   -25083094.93444 -19311404.22242  21034097.652    21034094.984
  22932268.573   -14284872.47243 -11123703.87342  22932271.491    22932268.352
  21515482.919   -21014809.35443 -16332186.47642  21515485.026    21515483.357
  24425987.487    -7996033.57743  -6184312.76942  24425990.248    24425988.611
 03  6  9  2 10 30.0000000  0  8G25G27G16G20G 1G13G 2G 4
  23922140.562    -8340372.20643  -6449890.00242  23922142.994    23922140.992
  24847512.938    -4171582.60743  -3043832.41842  24847516.031    24847520.753
  21428369.182   -22254221.78443 -17298514.72742  21428371.430    21428367.940
  20357932.781   -28074714.64643 -21597868.20142  20357934.742    20357931.550
  21027281.273   -25118903.19544 -19339306.72442  21027283.542    21027280.863
  22918460.287   -14357435.32843 -11180246.30242  22918463.215    22918460.020
  21509062.979   -21048546.06443 -16358474.75742  21509065.108    21509063.403
  24423324.943    -8010024.79043  -6195214.99342  24423327.783    24423326.101
 03  6  9  2 11  0.0000000  0  8G25G27G16G20G 1G13G 2G 4
  23938448.221    -8254675.25543  -6383113.20742  23938450.653    23938448.663
  24832160.067    -4252260.73343  -3106698.08142  24832163.253    24832167.925
  21426391.992   -22264611.90643 -17306610.88642  21426394.219    21426390.720
  20362109.649   -28052764.90443 -21580764.49942  20362111.614    20362108.415
  21020499.970   -25154538.96644 -19367074.82242  21020502.268    21020499.568
  22904665.395   -14429927.76943 -11236733.85342  22904668.313    22904665.027
  21502732.276   -21081813.95943 -16384397.73442  21502734.360    21502732.662
  24420762.153    -8023492.21943  -6205709.08442  24420764.939    24420763.352
 03  6  9  2 11 30.0000000  0  8G25G27G16G20G 1G13G 2G 4
  23954760.431    -8168954.42543  -6316317.79842  23954762.783    23954760.850
  24816835.249    -4332792.08843  -3169449.42042  24816838.320    24816842.829
  21424527.744   -22274408.33843 -17314244.42942  21424529.974    21424526.466
  20366397.577   -28030231.59443 -21563206.07242  20366399.538    20366396.367
  21013751.760   -25190000.88944 -19394707.45342  21013754.063    21013751.367
  22890884.051   -14502348.92143 -11293165.85842  22890886.978    22890883.693
  21496491.067   -21114611.36843 -16409954.10042  21496493.151    21496491.485
  24418299.169    -8036435.44643  -6215794.70442  24418301.807    24418300.340
 03  6  9  2 12  0.0000000  0  8G25G27G16G20G 1G13G 2G 4
  23971073.553    -8083228.41643  -6249518.36442  23971075.969    23971073.991
  24801535.098    -4413193.90643  -3232099.80642  24801538.143    24801542.370
  21422773.240   -22283628.26043 -17321428.74142  21422775.465    21422771.921
  20370793.195   -28007132.52443 -21545206.78942  20370795.120    20370791.988
  21007033.394   -25225306.10844 -19422217.97942  21007035.693    21007032.987
  22877113.017   -14574715.84343 -11349555.61642  22877115.979    22877112.693
  21490336.227   -21146954.95643 -16435156.83642  21490338.299    21490336.675
  24415932.516    -8048872.31543  -6225485.74342  24415935.073    24415933.567
 03  6  9  2 12 30.0000000  0  8G25G27G16G20G 1G13G 2G 4
  23987390.089    -7997484.22343  -6182704.75342  23987392.561    23987390.665
  24786262.126    -4493451.30843  -3294637.67742  24786265.232    24786269.465
  21421131.260   -22292256.67043 -17328152.13842  21421133.504    21421129.940
  20375299.186   -27983453.46843 -21526755.57242  20375301.111    20375297.946
  21000347.755   -25260439.35444 -19449594.50042  21000350.049    21000347.333
  22863355.184   -14647013.50443 -11405891.38942  22863358.120    22863354.857
  21484270.731   -21178829.27643 -16459993.90942  21484272.785    21484271.137
  24413664.924    -8060788.58443  -6234771.13342  24413667.477    24413665.884
 03  6  9  2 13  0.0000000  0  8G25G27G16G20G 1G13G 2G 4
  24003709.132    -7911727.37643  -6115881.28042  24003711.560    24003709.666
  24771016.085    -4573567.96743  -3357065.86742  24771019.258    24771023.530
  21419601.096   -22300297.45043 -17334417.64242  21419603.337    21419599.798
  20379914.606   -27959199.19443 -21507856.13442  20379916.562    20379913.383
  20993694.106   -25295404.25444 -19476839.84142  20993696.430    20993693.679
  22849609.797   -14719245.74143 -11462176.18142  22849612.700    22849609.407
  21478293.863   -21210237.70744 -16484467.95242  21478295.922    21478294.264
  24411495.512    -8072188.58143  -6243654.24242  24411498.001    24411496.555
 03  6  9  2 13 30.0000000  0  8G25G27G16G20G 1G13G 2G 4
  24020029.503    -7825963.24943  -6049052.15042  24020031.987    24020030.095
  24755796.177    -4653547.57443  -3419387.27142  24755799.330    24755803.309
  21418182.049   -22307754.34243 -17340228.17142  21418184.276    21418180.751
  20384638.671   -27934374.06643 -21488511.87842  20384640.611    20384637.419
  20987071.928   -25330204.06444 -19503956.54942  20987074.214    20987071.473
  22835876.223   -14791416.06643 -11518412.74942  22835879.103    22835875.768
  21472405.053   -21241183.38243 -16508581.40742  21472407.121    21472405.425
  24409423.521    -8083076.76743  -6252138.52042  24409426.070    24409424.510
 03  6  9  2 14  0.0000000  0  8G25G27G16G20G 1G13G 2G 4
  24036348.879    -7740204.37443  -5982227.10142  24036351.412    24036349.576
  24740600.374    -4733401.43743  -3481610.69342  24740603.375    24740607.235
  21416872.006   -22314638.53043 -17345592.43242  21416874.217    21416870.693
  20389469.081   -27908990.06643 -21468732.13642  20389471.041    20389467.801
  20980479.036   -25364849.78644 -19530953.18442  20980481.320    20980478.564
  22822152.263   -14863535.65443 -11574609.76242  22822155.139    22822151.807
  21466602.296   -21271676.79943 -16532342.45242  21466604.364    21466602.670
  24407446.690    -8093465.01143  -6260233.23342  24407449.359    24407447.766
 03  6  9  2 14 30.0000000  0  8G25G27G16G20G 1G13G 2G 4
  24052667.900    -7654447.56343  -5915403.65442  24052670.377    24052668.588
  24725429.238    -4813124.51843  -3543732.21842  24725432.308    24725435.933
  21415671.805   -22320945.28143 -17350506.74942  21415674.053    21415670.503
  20394406.603   -27883043.20644 -21448513.80342  20394408.539    20394405.324
  20973916.420   -25399336.43744 -19557825.87442  20973918.699    20973915.933
  22808438.941   -14935599.34543 -11630763.23542  22808441.831    22808438.498
  21460886.589   -21301712.82144 -16555747.08842  21460888.637    21460886.936
  24405565.803    -8103349.09143  -6267935.09442  24405568.414    24405566.933
 03  6  9  2 15  0.0000000  0  8G25G27G16G20G 1G13G 2G 4
  24068990.491    -7568672.13743  -5848565.70942  24068992.915    24068991.231
  24710287.286    -4892694.32043  -3605734.32142  24710290.373    24710294.021
  21414585.812   -22326652.04243 -17354953.53842  21414588.058    21414584.502
  20399455.350   -27856511.78843 -21427839.96742  20399457.279    20399454.092
  20967388.417   -25433641.28344 -19584556.89942  20967390.686    20967387.883
  22794740.596   -15007584.55443 -11686855.55742  22794743.472    22794740.066
  21455262.297   -21331268.42644 -16578777.37542  21455264.362    21455262.638
  24403785.012    -8112707.36643  -6275227.23242  24403787.674    24403786.142
 03  6  9  2 15 30.0000000  0  8G25G27G16G20G 1G13G 2G 4
  24085313.478    -7482894.77843  -5781726.25542  24085315.889    24085314.204
  24695171.644    -4972126.44443  -3667629.13842  24695174.681    24695178.295
  21413610.978   -22331774.55543 -17358945.06642  21413613.233    21413609.684
  20404612.245   -27829412.16043 -21406723.37442  20404614.164    20404610.988
  20960892.069   -25467779.61144 -19611158.17142  20960894.346    20960891.550
  22781054.156   -15079506.89643 -11742898.88542  22781057.035    22781053.569
  21449726.611   -21360358.59943 -16601444.98442  21449728.650    21449726.890
  24402101.110    -8121555.91043  -6282122.19542  24402103.749    24402102.333
 03  6  9  2 16  0.0000000  0  8G25G27G16G20G 1G13G 2G 4
  24101638.785    -7397105.11843  -5714877.21142  24101641.077    24101639.486
  24680084.433    -5051408.44043  -3729406.97842  24680087.453    24680091.060
  21412749.605   -22336300.91143 -17362472.05942  21412751.858    21412748.307
  20409879.421   -27801733.01743 -21385155.21042  20409881.327    20409878.147
  20954429.847   -25501738.72444 -19637619.79342  20954432.116    20954429.295
  22767382.085   -15151353.43443 -11798883.12542  22767385.032    22767381.599
  21444281.905   -21388970.56744 -16623739.96842  21444283.943    21444282.135
  24400516.410    -8129883.26443  -6288611.03342  24400519.095    24400517.635
 03  6  9  2 16 30.0000000  0  8G25G27G16G20G 1G13G 2G 4
  24117962.208    -7311325.46843  -5648035.97142  24117964.481    24117962.829
  24665022.018    -5130561.10543  -3791084.04742  24665025.147    24665028.446
  21411997.762   -22340251.66643 -17365550.52842  21412000.045    21411996.491
  20415252.775   -27773495.90743 -21363152.26742  20415254.691    20415251.487
  20947997.839   -25535539.04944 -19663957.68742  20948000.106    20947997.275
  22753720.525   -15223145.07743 -11854824.61342  22753723.452    22753720.054
  21438924.347   -21417124.62344 -16645678.13642  21438926.388    21438924.515
  24399026.871    -8137710.84943  -6294710.42342  24399029.575    24399028.010
 03  6  9  2 17  0.0000000  0  8G25G27G16G20G 1G13G 2G 4
  24134284.695    -7225550.35743  -5581198.26542  24134287.041    24134285.311
  24649985.561    -5209577.52843  -3852654.95142  24649988.503    24649991.688
  21411356.810   -22343619.94643 -17368175.11942  21411359.074    21411355.532
  20420733.431   -27744694.71243 -21340709.77942  20420735.383    20420732.158
  20941597.437   -25569173.21344 -19690166.10342  20941599.705    20941596.863
  22740070.831   -15294874.58243 -11910717.69042  22740073.705    22740070.322
  21433655.312   -21444813.31444 -16667253.68642  21433657.372    21433655.454
  24397633.567    -8145032.63143  -6300415.69942  24397636.291    24397634.714
 03  6  9  2 17 30.0000000  0  8G25G27G16G20G 1G13G 2G 4
  24150608.521    -7139768.31443  -5514355.15242  24150610.875    24150609.095
  24634977.322    -5288444.75743  -3914109.60442  24634980.285    24634983.331
  21410829.068   -22346393.12543 -17370335.99542  21410831.323    21410827.795
  20426323.715   -27715317.62143 -21317818.54242  20426325.648    20426322.433
  20935231.198   -25602627.90644 -19716234.67242  20935233.476    20935230.610
  22726435.413   -15366528.97643 -11966552.22542  22726438.280    22726434.862
  21428477.346   -21472023.39744 -16688456.29142  21428479.408    21428477.475
  24396338.756    -8151836.42343  -6305717.32942  24396341.512    24396340.001
 03  6  9  2 18  0.0000000  0  8G25G27G16G20G 1G13G 2G 4
  24166934.693    -7053973.66343  -5447502.22542  24166937.110    24166935.317
  24619998.926    -5367155.20743  -3975442.09942  24620001.983    24620004.929
  21410415.951   -22348563.97643 -17372027.52942  21410418.199    21410414.653
  20432024.816   -27685358.03543 -21294473.41242  20432026.757    20432023.526
  20928900.568   -25635895.39744 -19742157.37042  20928902.831    20928899.979
  22712815.704   -15438100.67643 -12022322.32642  22712818.637    22712815.139
  21423391.932   -21498747.01644 -16709279.83542  21423394.008    21423392.072
  24395143.843    -8158115.61943  -6310610.19342  24395146.649    24395145.091
 03  6  9  2 18 30.0000000  0  8G25G27G16G20G 1G13G 2G 4
  24183255.822    -6968205.56743  -5380669.97442  24183258.251    24183256.472
  24605043.144    -5445746.86443  -4036682.02642  24605046.160    24605049.154
  21410110.177   -22350170.62243 -17373279.42242  21410112.420    21410108.879
  20437829.335   -27654854.96643 -21270704.79042  20437831.282    20437828.055
  20922598.420   -25669013.22344 -19767963.44442  20922600.687    20922597.853
  22699204.658   -15509627.11943 -12078057.17042  22699207.591    22699204.064
  21418391.963   -21525021.66444 -16729753.53242  21418394.031    21418392.127
  24394041.474    -8163908.84343  -6315124.37142  24394044.347    24394042.611
 03  6  9  2 19  0.0000000  0  8G25G27G16G20G 1G13G 2G 4
  24199578.026    -6882432.03043  -5313833.48642  24199580.377    24199578.619
  24590116.497    -5524186.16543  -4097803.25042  24590119.378    24590122.246
  21409918.064   -22351179.86843 -17374065.80642  21409920.344    21409916.767
  20443743.564   -27623775.43943 -21246486.97542  20443745.476    20443742.307
  20916331.226   -25701947.43944 -19793626.44242  20916333.493    20916330.664
  22685608.586   -15581074.64743 -12133730.50642  22685611.556    22685608.048
  21413483.897   -21550813.41844 -16749850.94842  21413485.966    21413484.079
  24393037.770    -8169183.47243  -6319234.44842  24393040.614    24393038.919
 03  6  9  2 19 30.0000000  0  8G25G27G16G20G 1G13G 2G 4
  24215901.846    -6796649.95043  -5246990.36342  24215904.127    24215902.420
  24575219.601    -5602468.55643  -4158802.20842  24575222.576    24575225.482
  21409840.522   -22351587.30043 -17374383.25242  21409842.779    21409839.202
  20449768.088   -27592116.32143 -21221817.53242  20449769.988    20449766.830
  20910099.915   -25734693.17744 -19819142.57442  20910102.173    20910099.335
  22672028.500   -15652438.34143 -12189338.53042  22672031.425    22672027.968
  21408668.686   -21576117.25844 -16769568.17242  21408670.768    21408668.870
  24392133.426    -8173936.03943  -6322937.73442  24392136.219    24392134.483
 03  6  9  2 20  0.0000000  0  8G25G27G16G20G 1G13G 2G 4
  24232222.291    -6710885.25343  -5180160.77042  24232224.632    24232222.920
  24560348.064    -5680618.57843  -4219698.03442  24560350.977    24560353.746
  21409872.769   -22351417.67843 -17374251.04242  21409875.004    21409871.436
  20455898.100   -27559902.74343 -21196716.04142  20455900.027    20455896.875
  20903899.885   -25767274.43944 -19844530.54442  20903902.152    20903899.291
  22658459.805   -15723742.25143 -12244899.97842  22658462.684    22658459.262
  21403941.742   -21600957.41944 -16788924.09342  21403943.795    21403941.887
  24391323.639    -8178191.45343  -6326253.61742  24391326.491    24391324.716
 03  6  9  2 20 30.0000000  0  8G25G27G16G20G 1G13G 2G 4
  24248542.607    -6625121.63243  -5113332.01242  24248544.866    24248543.243
  24545504.895    -5758618.10143  -4280476.57142  24545507.942    24545510.547
  21410018.160   -22350653.48743 -17373655.53542  21410020.406    21410016.828
  20462136.841   -27527117.99143 -21171169.48342  20462138.756    20462135.593
  20897734.652   -25799672.81844 -19869776.00542  20897736.935    20897734.065
  22644905.943   -15794968.21643 -12300400.68842  22644908.817    22644905.393
  21399306.500   -21625315.57344 -16807904.42142  21399308.588    21399306.640
  24390611.574    -8181933.00643  -6329169.09942  24390614.388    24390612.814
 03  6  9  2 21  0.0000000  0  8G25G27G16G20G 1G13G 2G 4
  24264859.014    -6539378.45543  -5046519.18942  24264861.260    24264859.583
  24530686.876    -5836485.32743  -4341152.03742  24530690.024    24530692.503
  21410273.155   -22349313.23943 -17372611.15142  21410275.421    21410271.822
  20468480.598   -27493781.41343 -21145192.92842  20468482.497    20468479.352
  20891600.853   -25831906.14044 -19894892.85242  20891603.134    20891600.254
  22631363.475   -15866134.23343 -12355854.67242  22631366.372    22631362.931
  21394759.555   -21649209.73144 -16826523.19442  21394761.650    21394759.689
  24389993.773    -8185179.48843  -6331698.79942  24389996.694    24389995.065
 03  6  9  2 21 30.0000000  0  8G25G27G16G20G 1G13G 2G 4
  24281176.063    -6453632.31243  -4979704.06442  24281178.236    24281176.573
  24515898.903    -5914195.43043  -4401705.07242  24515901.956    24515904.454
  21410642.492   -22347372.25843 -17371098.67042  21410644.740    21410641.119
  20474933.925   -27459868.88343 -21118767.58042  20474935.837    20474932.688
  20885503.294   -25863949.00544 -19919861.29142  20885505.559    20885502.672
  22617837.226   -15937215.08943 -12411242.30442  22617840.125    22617836.667
  21390305.769   -21672614.50444 -16844760.63042  21390307.829    21390305.834
  24389474.701    -8187907.04043  -6333824.15142  24389477.615    24389475.993
 03  6  9  2 22  0.0000000  0  8G25G27G16G20G 1G13G 2G 4
  24297491.368    -6367895.19243  -4912895.95742  24297493.564    24297491.874
  24501138.883    -5991758.68443  -4462143.68242  24501141.967    24501144.296
  21411124.135   -22344841.15443 -17369126.35142  21411126.340    21411122.722
  20481494.647   -27425391.99343 -21091902.47242  20481496.578    20481493.428
  20879440.052   -25895811.40544 -19944689.11242  20879442.331    20879439.461
  22604325.249   -16008220.83443 -12466571.43442  22604328.190    22604324.663
  21385943.134   -21695540.15444 -16862624.72842  21385945.181    21385943.162
  24389052.194    -8190127.20543  -6335554.13142  24389055.244    24389053.463
 03  6  9  2 22 30.0000000  0  8G25G27G16G20G 1G13G 2G 4
  24313804.648    -6282168.35243  -4846095.86742  24313806.880    24313805.257
  24486406.770    -6069175.22043  -4522467.97242  24486409.829    24486412.079
  21411717.897   -22341720.62243 -17366694.73842  21411720.121    21411716.490
  20488162.513   -27390352.14043 -21064598.69142  20488164.445    20488161.280
  20873411.249   -25927492.86244 -19969375.93642  20873413.516    20873410.666
  22590827.606   -16079151.10043 -12521841.70642  22590830.579    22590827.082
  21381671.702   -21717986.47844 -16880115.32342  21381673.736    21381671.703
  24388726.031    -8191840.87743  -6336889.44842  24388729.025    24388727.296
 03  6  9  2 23  0.0000000  0  8G25G27G16G20G 1G13G 2G 4
  24330115.788    -6196452.77743  -4779304.55842  24330118.071    24330116.434
  24471702.662    -6146444.77043  -4582677.71742  24471705.731    24471707.947
  21412423.816   -22338010.85343 -17363803.98442  21412426.031    21412422.381
  20494937.379   -27354749.90143 -21036856.68742  20494939.339    20494936.163
  20867416.990   -25958992.68144 -19993921.22342  20867419.267    20867416.415
  22577344.444   -16150005.53243 -12577052.91242  22577347.351    22577343.867
  21377491.610   -21739952.85444 -16897231.93442  21377493.648    21377491.592
  24388496.211    -8193048.62743  -6337830.53742  24388499.188    24388497.375
 03  6  9  2 23 30.0000000  0  8G25G27G16G20G 1G13G 2G 4
  24346425.931    -6110742.04043  -4712517.01242  24346428.231    24346426.625
  24457028.069    -6223559.33243  -4642766.70942  24457031.058    24457033.144
  21413243.342   -22333704.12843 -17360448.06442  21413245.573    21413241.861
  20501820.593   -27318578.46543 -21008671.15542  20501822.541    20501819.394
  20861458.890   -25990302.43944 -20018318.41242  20861461.189    20861458.325
  22563877.332   -16220775.60143 -12632198.38542  22563880.217    22563876.718
  21373404.417   -21761431.04444 -16913968.14142  21373406.455    21373404.371
  24388364.024    -8193743.60143  -6338372.06142  24388366.916    24388365.061
 03  6  9  2 24  0.0000000  0  8G25G27G16G20G 1G13G 2G 4
  24362730.327    -6025062.07743  -4645753.45442  24362732.643    24362730.966
  24442378.296    -6300543.51843  -4702754.11642  24442381.351    24442383.308
  21414171.698   -22328825.62943 -17356646.61042  21414173.898    21414170.171
  20508807.201   -27281863.68543 -20980062.23842  20508809.135    20508806.023
  20855532.428   -26021446.14544 -20042586.21242  20855534.713    20855531.828
  22550421.612   -16291485.55743 -12687296.99942  22550424.518    22550421.044
  21369405.482   -21782445.20544 -16930342.77042  21369407.539    21369405.451
  24388324.544    -8193951.39243  -6338533.97142  24388327.359    24388325.521
 03  6  9  2 24 30.0000000  0  8G25G27G16G20G 1G13G 2G 4
  24379033.777    -5939387.21543  -4578993.86142  24379036.153    24379034.401
  24427758.273    -6377370.61643  -4762619.10742  24427761.326    24427763.307
  21415213.884   -22323348.78143 -17352378.91042  21415216.109    21415212.352
  20515902.053   -27244579.96744 -20951009.99342  20515903.991    20515900.867
  20849642.766   -26052396.40144 -20066703.26942  20849645.053    20849642.135
  22536982.513   -16362108.30543 -12742327.66942  22536985.422    22536981.919
  21365499.992   -21802968.45344 -16946334.86542  21365502.043    21365499.968
  24388382.635    -8193646.10243  -6338296.06742  24388385.353    24388383.597
 03  6  9  2 25  0.0000000  0  8G25G27G16G20G 1G13G 2G 4
  24395333.697    -5853730.41743  -4512248.33942  24395336.127    24395334.405
  24413166.213    -6454051.72443  -4822370.34742  24413169.174    24413171.015
  21416367.651   -22317285.48143 -17347654.23342  21416369.879    21416366.147
  20523102.815   -27206739.72443 -20921524.09342  20523104.738    20523101.633
  20843787.841   -26083164.05244 -20090678.03742  20843790.134    20843787.228
  22523557.977   -16432654.51643 -12797298.71542  22523560.893    22523557.318
  21361685.783   -21823012.05344 -16961953.21042  21361687.814    21361685.772
  24388535.885    -8192840.26343  -6337668.13142  24388538.602    24388536.913
 03  6  9  2 25 30.0000000  0  8G25G27G16G20G 1G13G 2G 4
  24411631.411    -5768085.75743  -4445512.28242  24411633.865    24411631.965
  24398603.323    -6530579.85543  -4882002.40242  24398606.278    24398608.040
  21417634.270   -22310629.28443 -17342467.56042  21417636.488    21417632.772
  20530410.566   -27168337.21443 -20891600.06742  20530412.496    20530409.363
  20837969.077   -26113741.64744 -20114504.71342  20837971.370    20837968.517
  22510149.374   -16503116.90343 -12852204.43742  22510152.290    22510148.696
  21357964.253   -21842568.69344 -16977192.10842  21357966.268    21357964.236
  24388785.562    -8191527.89843  -6336645.49442  24388788.418    24388786.511
 03  6  9  2 26  0.0000000  0  8G25G27G16G20G 1G13G 2G 4
  24427926.376    -5682455.20543  -4378787.22242  24427928.923    24427927.024
  24384069.315    -6606955.55043  -4941515.66242  24384072.230    24384073.953
  21419013.510   -22303381.23543 -17336819.70842  21419015.724    21419012.004
  20537825.019   -27129373.94343 -20861239.08342  20537826.939    20537823.811
  20832186.519   -26144129.09344 -20138183.22142  20832188.802    20832185.948
  22496756.696   -16573495.61943 -12907044.95342  22496759.617    22496755.996
  21354335.349   -21861638.50944 -16992051.66142  21354337.361    21354335.356
  24389131.462    -8189710.48843  -6335229.32742  24389134.261    24389132.359
 03  6  9  2 26 30.0000000  0  8G25G27G16G20G 1G13G 2G 4
  24444216.549    -5596850.15343  -4312082.01842  24444218.997    24444217.238
  24369562.361    -6683189.45643  -5000918.45742  24369565.279    24369566.756
  21420503.237   -22295552.49943 -17330719.36942  21420505.445    21420501.752
  20545343.885   -27089861.96143 -20830450.53042  20545345.787    20545342.684
  20826438.212   -26174336.59344 -20161721.51442  20826440.494    20826437.630
  22483378.050   -16643800.80043 -12961828.17542  22483380.957    22483377.315
  21350797.081   -21880231.99444 -17006540.04842  21350799.109    21350797.102
  24389571.171    -8187399.87443  -6333428.84542  24389574.038    24389571.967
 03  6  9  2 27  0.0000000  0  8G25G27G16G20G 1G13G 2G 4
  24460503.397    -5511262.62543  -4245390.47742  24460505.789    24460503.985
  24355084.133    -6759271.98243  -5060203.31242  24355087.073    24355088.365
  21422105.214   -22287133.94143 -17324159.43242  21422107.438    21422103.729
  20552968.734   -27049793.05343 -20799228.01242  20552970.641    20552967.529
  20820726.075   -26204353.93844 -20185111.63542  20820728.366    20820725.485
  22470015.320   -16714022.32143 -13016546.19442  22470018.195    22470014.573
  21347351.323   -21898339.43644 -17020649.70242  21347353.345    21347351.323
  24390106.260    -8184587.54943  -6331237.39342  24390109.100    24390107.237
 03  6  9  2 27 30.0000000  0  8G25G27G16G20G 1G13G 2G 4
  24476786.573    -5425694.24943  -4178713.88342  24476789.054    24476787.103
  24340634.763    -6835203.22643  -5119370.25342  24340637.589    24340639.055
  21423819.300   -22278126.26643 -17317140.43442  21423821.516    21423817.808
  20560699.402   -27009168.22843 -20767572.31042  20560701.298    20560698.150
  20815050.242   -26234180.61844 -20208353.18442  20815052.511    20815049.615
  22456668.605   -16784159.66043 -13071198.61942  22456671.487    22456667.813
  21343998.110   -21915960.61444 -17034380.44942  21344000.131    21343998.090
  24390736.712    -8181274.50843  -6328655.80142  24390739.546    24390737.717
 03  6  9  2 28  0.0000000  0  8G25G27G16G20G 1G13G 2G 4
  24493065.971    -5340145.32943  -4112052.44242  24493068.439    24493066.550
  24326214.350    -6910982.69943  -5178418.95342  24326217.090    24326218.492
  21425645.392   -22268529.87343 -17309662.69742  21425647.641    21425643.936
  20568535.619   -26967988.59443 -20735484.29042  20568537.536    20568534.360
  20809410.894   -26263815.66944 -20231445.41442  20809413.157    20809410.243
  22443338.062   -16854212.07743 -13125784.87642  22443340.936    22443337.220
  21340737.503   -21933095.04044 -17047731.90742  21340739.538    21340737.456
  24391462.240    -8177461.61043  -6325684.69642  24391465.121    24391463.278
 03  6  9  2 28 30.0000000  0  8G25G27G16G20G 1G13G 2G 4
  24509341.754    -5254615.56843  -4045405.90542  24509344.249    24509342.397
  24311822.961    -6986608.51743  -5237347.93342  24311825.853    24311827.040
  21427583.885   -22258343.09843 -17301724.92542  21427586.105    21427582.406
  20576477.564   -26926253.53744 -20702963.47342  20576479.477    20576476.288
  20803808.452   -26293256.69444 -20254386.45742  20803810.717    20803807.784
  22430024.142   -16924177.04243 -13180302.99142  22430027.049    22430023.239
  21337569.902   -21949740.80944 -17060702.59542  21337571.948    21337569.823
  24392283.039    -8173148.25543  -6322323.63142  24392285.890    24392284.022
 03  6  9  2 29  0.0000000  0  8G25G27G16G20G 1G13G 2G 4
  24525614.561    -5169101.45243  -3978771.57742  24525616.995    24525615.258
  24297461.777    -7062076.23943  -5296153.71342  24297464.503    24297465.755
  21429635.373   -22247562.37743 -17293324.33942  21429637.569    21429633.895
  20584525.789   -26883959.86144 -20670007.37042  20584527.703    20584524.514
  20798243.921   -26322498.51144 -20277172.26942  20798246.186    20798243.244
  22416727.776   -16994049.60543 -13234749.09542  22416730.704    22416726.912
  21334496.152   -21965893.41344 -17073289.00042  21334498.195    21334496.007
  24393199.739    -8168330.94843  -6318569.86542  24393202.571    24393200.801
 03  6  9  2 29 30.0000000  0  8G25G27G16G20G 1G13G 2G 4
  24541882.387    -5083613.33243  -3912157.50442  24541884.908    24541883.133
  24283128.837    -7137394.69143  -5354843.16442  24283131.676    24283133.034
  21431798.021   -22236197.38243 -17284468.47342  21431800.242    21431796.553
  20592678.371   -26841117.77044 -20636623.92942  20592680.305    20592677.120
  20792715.759   -26351549.29144 -20299809.22542  20792717.979    20792715.037
  22403447.350   -17063838.43943 -13289129.94942  22403450.294    22403446.541
  21331514.574   -21981561.51744 -17085497.87242  21331516.624    21331514.416
  24394210.332    -8163019.89643  -6314431.37842  24394213.232    24394211.419
 03  6  9  2 30  0.0000000  0  8G25G27G16G20G 1G13G 2G 4
  24558144.923    -4998153.58243  -3845565.53842  24558147.428    24558145.698
  24268824.038    -7212565.26243  -5413417.39242  24268826.891    24268828.199
  21434071.531   -22224249.84043 -17275158.67842  21434073.771    21434070.072
  20600934.829   -26797729.86444 -20602815.17842  20600936.750    20600933.570
  20787223.794   -26380409.71144 -20322297.84842  20787226.025    20787223.080
  22390182.778   -17133544.13743 -13343446.04642  22390185.751    22390181.937
  21328624.929   -21996746.38044 -17097330.19142  21328626.995    21328624.803
  24395314.539    -8157217.37243  -6309909.92642  24395317.355    24395315.604
 03  6  9  2 30 30.0000000  0  8G25G27G16G20G 1G13G 2G 4
  24574403.609    -4912713.99643  -3778989.29842  24574406.051    24574404.326
  24254549.514    -7287578.50743  -5471869.04742  24254552.286    24254553.299
  21436457.573   -22211710.98343 -17265388.11242  21436459.808    21436456.115
  20609296.611   -26753788.36744 -20568575.05642  20609298.514    20609295.353
  20781769.927   -26409069.72944 -20344630.31042  20781772.159    20781769.220
  22376935.939   -17203156.58643 -13397689.46742  22376938.922    22376935.121
  21325829.065   -22011438.58344 -17108778.62142  21325831.125    21325828.918
  24396513.855    -8150915.37043  -6304999.26242  24396516.600    24396514.888
 03  6  9  2 31  0.0000000  0  8G25G27G16G20G 1G13G 2G 4
  24590656.948    -4827302.05543  -3712434.56742  24590659.424    24590657.769
  24240303.525    -7362440.77543  -5530203.04842  24240306.408    24240307.190
  21438954.756   -22198587.95843 -17255162.35542  21438957.011    21438953.316
  20617762.303   -26709300.95244 -20533909.54542  20617764.186    20617761.024
  20776353.136   -26437535.08144 -20366811.08542  20776355.385    20776352.430
  22363705.709   -17272681.75643 -13451864.88742  22363708.691    22363704.905
  21323125.758   -22025644.38744 -17119848.04042  21323127.804    21323125.592
  24397806.688    -8144121.54143  -6299705.37242  24397809.414    24397807.719
 03  6  9  2 31 30.0000000  0  8G25G27G16G20G 1G13G 2G 4
  24606905.328    -4741916.43543  -3645900.38342  24606907.741    24606906.153
  24226086.553    -7437149.89143  -5588417.69142  24226089.579    24226090.376
  21441563.438   -22184879.25443 -17244480.22342  21441565.669    21441561.972
  20626332.031   -26664266.67744 -20498817.91242  20626333.920    20626330.754
  20770973.941   -26465802.89544 -20388837.93742  20770976.186    20770973.196
  22350492.646   -17342116.81043 -13505970.07942  22350495.612    22350491.810
  21320515.459   -22039361.49244 -17130536.65242  21320517.496    21320515.277
  24399193.338    -8136834.75043  -6294027.35542  24399196.021    24399194.360
 03  6  9  2 32  0.0000000  0  8G25G27G16G20G 1G13G 2G 4
  24623149.436    -4656553.08443  -3579383.52842  24623151.816    24623150.311
  24211899.864    -7511700.71243  -5646509.01942  24211902.767    24211903.390
  21444284.392   -22170580.49543 -17233338.31042  21444286.626    21444282.893
  20635006.500   -26618681.85043 -20463297.27342  20635008.426    20635005.267
  20765633.424   -26493867.32444 -20410706.30542  20765635.691    20765632.681
  22337297.822   -17411455.88343 -13560000.48342  22337300.805    22337297.000
  21317999.102   -22052584.85744 -17140840.53342  21318001.117    21317998.914
  24400674.478    -8129051.15443  -6287962.20742  24400677.201    24400675.533
 03  6  9  2 32 30.0000000  0  8G25G27G16G20G 1G13G 2G 4
  24639389.814    -4571209.48243  -3512882.06642  24639392.177    24639390.603
  24197744.126    -7586089.30243  -5704473.92342  24197746.911    24197747.563
  21447118.124   -22155688.90843 -17221734.44942  21447120.355    21447116.645
  20643786.241   -26572544.11844 -20427345.80442  20643788.161    20643784.981
  20760332.477   -26521723.79444 -20432412.63042  20760334.737    20760331.764
  22324122.089   -17480694.68143 -13613952.75242  22324125.046    22324121.250
  21315577.411   -22065310.62544 -17150756.67742  21315579.440    21315577.251
  24402250.631    -8120768.32743  -6281508.05342  24402253.459    24402251.549
 03  6  9  2 33  0.0000000  0  8G25G27G16G20G 1G13G 2G 4
  24655623.867    -4485899.28643  -3446406.61142  24655626.203    24655624.731
  24183616.789    -7660328.24543  -5762322.22542  24183619.617    24183620.180
  21450062.228   -22140217.54643 -17209678.81742  21450064.432    21450060.705
  20652668.579   -26525867.32244 -20390974.28542  20652670.472    20652667.296
  20755068.851   -26549384.12744 -20453966.11542  20755071.100    20755068.154
  22310963.217   -17549844.79143 -13667835.91042  22310966.180    22310962.334
  21313248.062   -22077551.18444 -17160294.73642  21313250.088    21313247.905
  24403919.195    -8111999.85943  -6274675.47442  24403922.047    24403920.004
 03  6  9  2 33 30.0000000  0  8G25G27G16G20G 1G13G 2G 4
  24671850.128    -4400629.82043  -3379962.90842  24671852.497    24671851.000
  24169516.559    -7734423.91443  -5820058.88242  24169519.476    24169520.092
  21453115.264   -22124173.50843 -17197176.94442  21453117.491    21453113.756
  20661651.938   -26478659.55043 -20354189.01742  20661653.812    20661650.647
  20749841.508   -26576853.89444 -20475371.10942  20749843.755    20749840.836
  22297820.081   -17618912.29143 -13721654.69742  22297823.046    22297819.183
  21311009.871   -22089312.77844 -17169459.57842  21311011.889    21311009.707
  24405678.716    -8102753.42843  -6267470.46842  24405681.480    24405679.605
 03  6  9  2 34  0.0000000  0  8G25G27G16G20G 1G13G 2G 4
  24688066.956    -4315410.07243  -3313557.93942  24688069.201    24688067.830
  24155442.207    -7808384.16743  -5877690.03942  24155445.073    24155445.646
  21456275.643   -22107565.46543 -17184235.58642  21456277.889    21456274.126
  20670734.564   -26430929.91344 -20316997.10042  20670736.460    20670733.347
  20744649.056   -26604140.29244 -20496633.21742  20744651.317    20744648.396
  22284691.339   -17687904.24643 -13775414.62242  22284694.273    22284690.439
  21308861.302   -22100603.35044 -17178257.38842  21308863.304    21308861.145
  24407527.488    -8093038.23043  -6259900.17542  24407530.213    24407528.333
 03  6  9  2 34 30.0000000  0  8G25G27G16G20G 1G13G 2G 4
  24704278.830    -4230216.27843  -3247173.18942  24704280.985    24704279.714
  24141398.466    -7882183.97243  -5935196.16642  24141401.330    24141401.761
  21459547.913   -22090369.47143 -17170836.08842  21459550.126    21459546.378
  20679920.952   -26382655.02744 -20279380.31342  20679922.829    20679919.770
  20739496.375   -26631217.76144 -20517732.52642  20739498.619    20739495.712
  22271581.821   -17756795.06343 -13829095.73542  22271584.742    22271580.947
  21306807.092   -22111398.19444 -17186668.91842  21306809.079    21306806.912
  24409469.840    -8082830.78043  -6251946.30742  24409472.717    24409470.642
 03  6  9  2 35  0.0000000  0  8G25G27G16G20G 1G13G 2G 4
  24720486.591    -4145043.85743  -3180805.09142  24720488.884    24720487.462
  24127386.150    -7955817.95543  -5992573.08442  24127389.043    24127389.464
  21462932.925   -22072580.95343 -17156974.88142  21462935.149    21462931.373
  20689211.914   -26333830.73543 -20241335.42042  20689213.789    20689210.745
  20734384.649   -26658079.98344 -20538664.10442  20734386.896    20734384.009
  22258492.769   -17825578.33343 -13882693.04442  22258495.689    22258491.928
  21304848.257   -22121691.72644 -17194689.81742  21304850.244    21304848.064
  24411506.731    -8072126.85443  -6243605.57942  24411509.599    24411507.536
 03  6  9  2 35 30.0000000  0  8G25G27G16G20G 1G13G 2G 4
  24736689.237    -4059898.38443  -3114457.99742  24736691.567    24736690.166
  24113404.593    -8029290.67843  -6049824.35642  24113407.396    24113407.772
  21466429.694   -22054205.31043 -17142656.17642  21466431.887    21466428.116
  20698606.195   -26284463.42843 -20202867.39742  20698608.067    20698605.049
  20729313.163   -26684730.77244 -20559430.93342  20729315.403    20729312.535
  22245423.320   -17894258.56643 -13936210.06942  22245426.231    22245422.512
  21302983.947   -22131488.65144 -17202323.75142  21302985.912    21302983.740
  24413636.977    -8060932.42443  -6234882.64342  24413639.815    24413637.899
 03  6  9  2 36  0.0000000  0  8G25G27G16G20G 1G13G 2G 4
  24752885.051    -3974788.76943  -3048138.82042  24752887.327    24752886.100
  24099452.208    -8102610.19643  -6106956.25042  24099455.040    24099455.297
  21470036.442   -22035251.49743 -17127886.95042  21470038.653    21470034.884
  20708102.017   -26234562.48843 -20163983.55642  20708103.897    20708100.911
  20724280.548   -26711177.36544 -20580038.65042  20724282.808    20724279.878
  22232372.204   -17962842.53643 -13989652.08242  22232375.138    22232371.340
  21301212.564   -22140797.06344 -17209577.02542  21301214.538    21301212.351
  24415858.736    -8049256.97243  -6225784.88642  24415861.575    24415859.593
 03  6  9  2 36 30.0000000  0  8G25G27G16G20G 1G13G 2G 4
  24769074.286    -3889713.80343  -2981846.64542  24769076.670    24769075.331
  24085529.393    -8175774.19443  -6163966.95742  24085532.201    24085532.481
  21473753.506   -22015718.16343 -17112666.14942  21473755.728    21473751.933
  20717699.493   -26184127.44744 -20124683.53242  20717701.374    20717698.404
  20719287.348   -26737416.73744 -20600484.89642  20719289.612    20719286.662
  22219339.975   -18031327.17343 -14043016.70042  22219342.887    22219339.147
  21299534.577   -22149614.81444 -17216447.96442  21299536.540    21299534.352
  24418172.241    -8037099.50443  -6216311.54142  24418175.103    24418173.045
 03  6  9  2 37  0.0000000  0  8G25G27G16G20G 1G13G 2G 4
  24785256.383    -3804676.39043  -2915583.72342  24785258.960    24785257.411
  24071635.945    -8248784.51143  -6220857.91742  24071638.701    24071639.004
  21477580.323   -21995607.96243 -17096995.83742  21477582.572    21477578.744
  20727398.017   -26133161.41944 -20084969.75242  20727399.907    20727396.916
  20714333.356   -26763449.97244 -20620770.51742  20714335.639    20714332.663
  22206326.343   -18099714.00443 -14096305.10442  22206329.250    22206325.512
  21297949.623   -22157943.74644 -17222938.01242  21297951.564    21297949.353
  24420576.810    -8024463.20443  -6206465.07542  24420579.638    24420577.660
 03  6  9  2 37 30.0000000  0  8G25G27G16G20G 1G13G 2G 4
  24801431.324    -3719676.48343  -2849350.04242  24801433.872    24801432.394
  24057771.912    -8321639.99443  -6277628.23342  24057774.647    24057774.926
  21481516.930   -21974920.76843 -17080875.92342  21481519.182    21481515.378
  20737197.517   -26081664.89244 -20044842.59842  20737199.395    20737196.378
  20709418.984   -26789275.18144 -20640894.03842  20709421.266    20709418.268
  22193331.787   -18168000.78743 -14149515.55942  22193334.687    22193330.925
  21296457.827   -22165782.99844 -17229046.48642  21296459.793    21296457.564
  24423072.396    -8011348.52643  -6196245.85542  24423075.178    24423073.375
 03  6  9  2 38  0.0000000  0  8G25G27G16G20G 1G13G 2G 4
  24817598.980    -3634714.46643  -2783145.87642  24817601.485    24817599.960
  24043937.342    -8394340.44643  -6334277.75842  24043939.999    24043940.208
  21485563.244   -21953657.25843 -17064306.93242  21485565.447    21485561.652
  20747097.597   -26029639.46644 -20004303.31442  20747099.494    20747096.476
  20704544.371   -26814891.28144 -20660854.61942  20704546.646    20704543.682
  22180356.344   -18236186.81243 -14202647.49042  22180359.282    22180355.508
  21295059.240   -22173132.45644 -17234773.30642  21295061.215    21295058.972
  24425658.919    -7997756.67643  -6185654.79942  24425661.582    24425659.770
 03  6  9  2 38 30.0000000  0  8G25G27G16G20G 1G13G 2G 4
  24833758.282    -3549796.30943  -2716975.88742  24833760.977    24833759.359
  24030131.286    -8466890.86743  -6390810.38442  24030133.907    24030134.045
  21489718.093   -21931823.39343 -17047293.51642  21489720.295    21489716.496
  20757097.161   -25977091.50244 -19963356.85642  20757099.035    20757096.026
  20699708.788   -26840302.38044 -20680655.45342  20699711.058    20699708.098
  22167399.303   -18304276.14443 -14255704.07842  22167402.288    22167398.473
  21293752.909   -22179997.10644 -17240122.35142  21293754.916    21293752.647
  24428334.858    -7983693.82643  -6174696.74542  24428337.635    24428335.909
 03  6  9  2 39  0.0000000  0  8G25G27G16G20G 1G13G 2G 4
  24849911.911    -3464908.71143  -2650829.71942  24849914.507    24849912.949
  24016356.530    -8539276.98843  -6447214.97242  24016359.155    24016359.193
  21493983.915   -21909406.17743 -17029825.53842  21493986.135    21493982.347
  20767198.518   -25924008.56644 -19921993.53942  20767200.406    20767197.388
  20694915.071   -26865493.48044 -20700284.86742  20694917.320    20694914.347
  22154463.605   -18372253.76643 -14308673.62142  22154466.541    22154462.740
  21292541.480   -22186363.03344 -17245082.78342  21292543.482    21292541.208
  24431102.998    -7969147.36543  -6163361.83442  24431105.804    24431104.023
 03  6  9  2 39 30.0000000  0  8G25G27G16G20G 1G13G 2G 4
  24866057.829    -3380061.70543  -2584715.17742  24866060.303    24866058.767
  24002611.282    -8611507.86943  -6503498.60942  24002614.017    24002613.863
  21498358.891   -21886415.45843 -17011910.67742  21498361.105    21498357.314
  20777399.701   -25870401.13343 -19880221.52342  20777401.575    20777398.571
  20690161.668   -26890472.63144 -20719749.12442  20690163.914    20690160.933
  22141547.600   -18440127.79343 -14361562.43642  22141550.528    22141546.728
  21291423.236   -22192239.21444 -17249661.59442  21291425.250    21291422.976
  24433961.131    -7954127.77843  -6151658.27442  24433963.806    24433962.229
 03  6  9  2 40  0.0000000  0  8G25G27G16G20G 1G13G 2G 4
  24882195.290    -3295258.53843  -2518634.77842  24882197.953    24882196.187
  23988895.174    -8683585.81543  -6559663.08242  23988897.896    23988897.798
  21502842.304   -21862854.86643 -16993551.75542  21502844.540    21502840.720
  20787699.858   -25816273.48344 -19838044.14442  20787701.728    20787698.724
  20685448.308   -26915241.49844 -20739049.52542  20685450.549    20685447.541
  22128650.905   -18507900.10743 -14414371.99742  22128653.849    22128650.040
  21290397.719   -22197628.34944 -17253860.89042  21290399.706    21290397.432
  24436908.553    -7938639.07643  -6139589.15942  24436911.184    24436909.796
 03  6  9  2 40 30.0000000  0  7G27G16G20G 1G13G 2G 4
  23975211.103    -8755495.25943  -6615696.26042  23975213.780    23975213.735
  21507437.001   -21838709.50143 -16974737.17242  21507439.221    21507435.409
  20798101.727   -25761611.33544 -19795450.27642  20798103.571    20798100.604
  20680778.066   -26939783.60844 -20758173.23242  20680780.314    20680777.340
  22115776.839   -18575553.77543 -14467089.11342  22115779.752    22115775.912
  21289467.802   -22202514.90644 -17257668.56742  21289469.806    21289467.507
  24439947.877    -7922666.89143  -6127143.30742  24439950.514    24439949.112
 03  6  9  2 41  0.0000000  0  7G27G16G20G 1G13G 2G 4
  23961553.423    -8827266.66243  -6671621.88642  23961556.046    23961555.915
  21512136.949   -21814011.14943 -16955491.69042  21512139.155    21512135.326
  20808599.126   -25706447.06443 -19752465.13942  20808601.002    20808598.001
  20676145.360   -26964128.57844 -20777143.32642  20676147.620    20676144.626
  22102919.665   -18643118.78343 -14519737.13342  22102922.528    22102918.686
  21288627.704   -22206929.66944 -17261108.60842  21288629.659    21288627.383
  24443073.118    -7906243.47443  -6114345.84142  24443075.789    24443074.353
 03  6  9  2 41 30.0000000  0  7G27G16G20G 1G13G 2G 4
  23947927.732    -8898869.23143  -6727415.94642  23947930.341    23947930.275
  21516947.796   -21788729.92543 -16935792.02142  21516950.006    21516946.145
  20819197.634   -25650751.58543 -19709066.07742  20819199.518    20819196.503
  20671556.256   -26988244.47544 -20795934.92242  20671558.504    20671555.499
  22090085.330   -18710563.32643 -14572291.29042  22090088.212    22090084.376
  21287883.166   -22210842.01344 -17264157.15542  21287885.132    21287882.852
  24446289.829    -7889339.23443  -6101173.71742  24446292.631    24446291.128
 03  6  9  2 42  0.0000000  0  7G27G16G20G 1G13G 2G 4
  23934330.951    -8970320.64043  -6783092.21442  23934333.588    23934333.433
  21521865.932   -21762884.88643 -16915653.01442  21521868.144    21521864.271
  20829893.500   -25594544.37544 -19665268.26242  20829895.384    20829892.366
  20667007.463   -27012148.49244 -20814561.41642  20667009.712    20667006.694
  22077270.723   -18777904.37343 -14624764.79942  22077273.602    22077269.770
  21287230.795   -22214270.10644 -17266828.36542  21287232.791    21287230.481
  24449594.380    -7871973.87643  -6087642.29942  24449597.204    24449595.593
 03  6  9  2 42 30.0000000  0  7G27G16G20G 1G13G 2G 4
  23920763.147    -9041619.25343  -6838649.43342  23920765.825    23920765.599
  21526891.473   -21736475.52043 -16895074.27342  21526893.651    21526889.793
  20840686.744   -25537825.55544 -19621071.79542  20840688.623    20840685.592
  20662499.502   -27035837.91944 -20833020.70142  20662501.744    20662498.725
  22064476.342   -18845139.18643 -14677155.53042  22064479.183    22064475.367
  21286670.899   -22217212.28544 -17269120.94042  21286672.882    21286670.579
  24452986.728    -7854146.91843  -6073751.16342  24452989.549    24452988.029
 03  6  9  2 43  0.0000000  0  7G27G16G20G 1G13G 2G 4
  23907224.253    -9112766.06543  -6894088.37642  23907226.880    23907226.591
  21532024.016   -21709503.89043 -16874057.40942  21532026.187    21532022.296
  20851576.846   -25480597.67544 -19576478.65642  20851578.733    20851575.692
  20658032.377   -27059312.77144 -20851312.78542  20658034.612    20658031.591
  22051702.142   -18912267.96343 -14729463.64442  22051704.979    22051701.133
  21286203.209   -22219669.90844 -17271035.94442  21286205.212    21286202.877
  24456466.398    -7835861.12543  -6059502.51142  24456469.262    24456467.697
 03  6  9  2 43 30.0000000  0  7G27G16G20G 1G13G 2G 4
  23893715.937    -9183752.18443  -6949402.10742  23893718.598    23893718.185
  21537265.025   -21681961.96143 -16852596.14842  21537267.237    21537263.328
  20862565.187   -25422853.68644 -19531483.35142  20862567.073    20862564.024
  20653607.946   -27082563.15244 -20869429.95042  20653610.203    20653607.178
  22038950.018   -18979280.73743 -14781681.35842  22038952.873    22038948.949
  21285829.366   -22221634.33644 -17272566.63642  21285831.375    21285829.029
  24460034.888    -7817108.98843  -6044890.49342  24460037.685    24460036.228
 03  6  9  2 44  0.0000000  0  7G27G16G20G 1G13G 2G 4
  23880239.470    -9254570.45543  -7004585.03742  23880242.140    23880241.810
  21542615.700   -21653843.98743 -16830686.02442  21542617.869    21542613.999
  20873652.780   -25364588.07744 -19486081.58842  20873654.670    20873651.597
  20649227.745   -27105581.14244 -20887366.03242  20649229.974    20649226.974
  22026221.437   -19046169.72943 -14833802.62342  22026224.295    22026220.370
  21285550.745   -22223098.57544 -17273707.57542  21285552.727    21285550.366
  24463693.193    -7797885.18343  -6029910.91442  24463695.938    24463694.323
 03  6  9  2 44 30.0000000  0  7G27G16G20G 1G13G 2G 4
  23866793.039    -9325231.89643  -7059645.76942  23866795.544    23866795.200
  21548073.669   -21625162.26243 -16808336.61442  21548075.842    21548071.946
  20884837.200   -25305813.61444 -19440283.32142  20884839.105    20884836.026
  20644889.845   -27128376.87444 -20905128.92642  20644892.069    20644889.073
  22013514.491   -19112944.94943 -14885835.22542  22013517.364    22013513.461
  21285365.113   -22224074.08644 -17274467.68442  21285367.098    21285364.699
  24467438.796    -7778202.11943  -6014573.47742  24467441.625    24467439.862
 03  6  9  2 45  0.0000000  0  7G27G16G20G 1G13G 2G 4
  23853373.760    -9395750.20543  -7114594.97042  23853376.318    23853375.864
  21553636.052   -21595931.46343 -16785559.36042  21553638.269    21553634.356
  20896115.513   -25246545.82944 -19394100.64442  20896117.412    20896114.325
  20640591.840   -27150962.87444 -20922728.39042  20640594.070    20640591.101
  22000826.880   -19179618.62443 -14937788.70742  22000829.762    22000825.846
  21285269.812   -22224574.80644 -17274857.82842  21285271.794    21285269.402
  24471268.884    -7758075.15643  -5998890.16042  24471271.677    24471269.854
 03  6  9  2 45 30.0000000  0  7G27G16G20G 1G13G 2G 4
  23839988.631    -9466089.04643  -7169404.33842  23839991.248    23839990.656
  21559309.562   -21566116.75743 -16762327.10542  21559311.787    21559307.909
  20907494.177   -25186750.48244 -19347506.88242  20907496.093    20907493.028
  20636340.839   -27173301.99944 -20940135.48042  20636343.069    20636340.107
  21988165.590   -19246154.13843 -14989634.52842  21988168.473    21988164.543
  21285271.658   -22224564.89944 -17274850.07842  21285273.643    21285271.243
  24475190.075    -7737469.74943  -5982834.01842  24475192.714    24475190.947
 03  6  9  2 46  0.0000000  0  7G27G16G20G 1G13G 2G 4
  23826632.417    -9536276.15343  -7224095.46342  23826635.011    23826634.444
  21565088.705   -21535747.03743 -16738662.37742  21565090.923    21565087.061
  20918967.691   -25126456.88243 -19300524.87042  20918969.607    20918966.548
  20632131.734   -27195420.96244 -20957371.01842  20632133.987    20632130.991
  21975525.595   -19312577.69543 -15041393.11242  21975528.482    21975524.507
  21285365.362   -22224072.36544 -17274466.25842  21285367.344    21285364.939
  24479196.637    -7716415.07643  -5966427.78542  24479199.394    24479197.383
 03  6  9  2 46 30.0000000  0  7G27G16G20G 1G13G 2G 4
  23813308.179    -9606294.52443  -7278655.11842  23813310.839    23813310.296
  21570976.462   -21504806.59843 -16714552.93442  21570978.659    21570974.829
  20930538.902   -25065649.83244 -19253142.76842  20930540.822    20930537.754
  20627967.916   -27217301.84044 -20974421.03642  20627970.191    20627967.180
  21962910.219   -19378871.76343 -15093050.80342  21962913.105    21962909.108
  21285554.044   -22223080.59744 -17273693.42642  21285556.041    21285553.645
  24483291.499    -7694896.02243  -5949659.72242  24483294.328    24483292.362
 03  6  9  2 47  0.0000000  0  7G27G16G20G 1G13G 2G 4
  23800011.079    -9676170.90243  -7333104.12242  23800013.712    23800013.110
  21576967.499   -21473323.41943 -16690020.57642  21576969.693    21576965.852
  20942202.377   -25004358.10144 -19205382.99342  20942204.274    20942201.183
  20623844.502   -27238970.38744 -20991305.59742  20623846.789    20623843.788
  21950314.635   -19445061.97643 -15144627.56542  21950317.498    21950313.483
  21285832.603   -22221616.74244 -17272552.72842  21285834.597    21285832.188
  24487469.331    -7672941.02243  -5932551.94842  24487472.301    24487470.172
 03  6  9  2 47 30.0000000  0  7G27G16G20G 1G13G 2G 4
  23786741.937    -9745899.90543  -7387438.30942  23786744.566    23786743.874
  21583062.572   -21441293.31043 -16665062.03642  21583064.785    21583060.951
  20953958.721   -24942578.16744 -19157242.80642  20953960.618    20953957.535
  20619762.725   -27260420.21044 -21008019.72742  20619764.998    20619762.002
  21937740.001   -19511141.87843 -15196118.37842  21937742.874    21937738.841
  21286201.967   -22219675.69144 -17271040.19442  21286203.939    21286201.541
  24491730.911    -7650546.28343  -5915101.51042  24491733.842    24491731.662
 03  6  9  2 48  0.0000000  0  7G27G16G20G 1G13G 2G 4
  23773501.048    -9815480.80643  -7441657.08442  23773503.657    23773502.994
  21589261.644   -21408716.79943 -16639677.73042  21589263.859    21589260.020
  20965807.741   -24880311.07144 -19108723.00342  20965809.651    20965806.570
  20615722.902   -27281649.55344 -21024562.05242  20615725.170    20615722.212
  21925186.728   -19577109.61543 -15247521.78642  21925189.610    21925185.537
  21286662.184   -22217257.12044 -17269155.56542  21286664.163    21286661.749
  24496076.099    -7627712.58443  -5897309.02442  24496078.947    24496076.686
 03  6  9  2 48 30.0000000  0  7G27G16G20G 1G13G 2G 4
  23760294.527    -9884881.12143  -7495735.12942  23760297.110    23760296.322
  21595570.599   -21375562.96543 -16613843.56442  21595572.797    21595568.985
  20977755.347   -24817526.07944 -19059799.64542  20977757.253    20977754.175
  20611731.415   -27302624.88544 -21040906.44842  20611733.682    20611730.733
  21912661.196   -19642931.44743 -15298811.50642  21912664.091    21912659.992
  21287219.360   -22214329.01644 -17266873.89942  21287221.342    21287218.925
  24500510.497    -7604409.39943  -5879150.71042  24500513.349    24500511.124
 03  6  9  2 49  0.0000000  0  7G27G16G20G 1G13G 2G 4
  23747116.404    -9954132.40143  -7549697.05242  23747119.000    23747118.077
  21601983.176   -21341864.64843 -16587585.12042  21601985.354    21601981.564
  20989795.082   -24754256.91243 -19010499.01142  20989796.979    20989793.915
  20607782.414   -27323376.83244 -21057076.77842  20607784.690    20607781.774
  21900157.666   -19708637.84043 -15350011.27742  21900160.553    21900156.442
  21287867.404   -22210923.46644 -17264220.19942  21287869.381    21287866.952
  24505028.095    -7580670.01143  -5860652.50842  24505030.814    24505028.703
 03  6  9  2 49 30.0000000  0  7G27G16G20G 1G13G 2G 4
  23733969.030   -10023221.43443  -7603532.55142  23733971.652    23733970.812
  21608501.640   -21307609.88643 -16560893.09042  21608503.835    21608500.036
  21001929.124   -24690492.15443 -18960812.20142  21001931.029    21001927.980
  20603878.650   -27343891.08744 -21073061.89442  20603880.917    20603878.022
  21887678.752   -19774214.88043 -15401110.25142  21887681.633    21887677.556
  21288608.767   -22207027.46944 -17261184.33542  21288610.748    21288608.291
  24509630.787    -7556482.82543  -5841805.36742  24509633.424    24509631.578
 03  6  9  2 50  0.0000000  0  7G27G16G20G 1G13G 2G 4
  23720852.822   -10092146.83843  -7657240.55542  23720855.444    23720854.612
  21615125.971   -21272798.79243 -16533767.55042  21615128.174    21615124.375
  21014157.359   -24626232.36243 -18910739.65042  21014159.260    21014156.233
  20600020.542   -27364165.39644 -21088860.03642  20600022.814    20600019.914
  21875224.922   -19839660.05143 -15452106.46542  21875227.832    21875223.764
  21289443.597   -22202640.33644 -17257765.76842  21289445.587    21289443.091
  24514318.515    -7531848.25643  -5822609.62142  24514321.221    24514319.434
 03  6  9  2 50 30.0000000  0  7G27G16G20G 1G13G 2G 4
  23707767.760   -10160909.24243  -7710821.54642  23707770.341    23707769.434
  21621855.755   -21237433.42943 -16506210.11842  21621857.976    21621854.195
  21026479.299   -24561480.00244 -18860283.28542  21026481.223    21026478.215
  20596208.228   -27384199.22444 -21104470.79142  20596210.518    20596207.595
  21862796.279   -19904972.93243 -15502999.59942  21862799.179    21862795.110
  21290371.706   -22197763.14844 -17253965.34042  21290373.677    21290371.162
  24519090.931    -7506768.89743  -5803067.28142  24519093.633    24519092.016
 03  6  9  2 51  0.0000000  0  7G27G16G20G 1G13G 2G 4
  23694711.487   -10229519.94443  -7764284.32742  23694714.067    23694713.165
  21628688.655   -21201526.36643 -16478230.58042  21628690.857    21628687.069
  21038892.432   -24496248.61644 -18809453.64542  21038894.326    21038891.328
  20592439.683   -27404002.88144 -21119902.19242  20592441.976    20592439.067
  21850390.895   -19970163.52743 -15553797.44442  21850393.786    21850389.750
  21291390.807   -22192407.62644 -17249792.18242  21291392.788    21291390.270
  24523945.521    -7481257.69543  -5783188.44242  24523948.184    24523946.594
 03  6  9  2 51 30.0000000  0  7G27G16G20G 1G13G 2G 4
  23681687.391   -10297961.42343  -7817615.25542  23681689.943    23681688.971
  21635627.735   -21165061.35543 -16449816.27842  21635629.934    21635626.150
  21051399.732   -24430522.34544 -18758238.38542  21051401.628    21051398.633
  20588718.542   -27423557.50644 -21135139.54442  20588720.836    20588717.924
  21838012.335   -20035213.12543 -15604485.42042  21838015.249    21838011.217
  21292504.215   -22186556.49844 -17245232.84142  21292506.194    21292503.673
  24528885.345    -7455298.46643  -5762960.49642  24528887.983    24528886.447
 03  6  9  2 52  0.0000000  0  7G27G16G20G 1G13G 2G 4
  23668689.280   -10366266.52043  -7870839.91342  23668691.764    23668690.861
  21642666.402   -21128072.88243 -16420994.08442  21642668.624    21642664.793
  21063994.534   -24364336.21243 -18706664.79542  21063996.468    21063993.446
  20585038.712   -27442895.13744 -21150207.81342  20585040.995    20585038.079
  21825654.584   -20100153.70043 -15655088.44442  21825657.461    21825653.417
  21293705.506   -22180243.49944 -17240313.59942  21293707.493    21293704.982
  24533903.847    -7428926.58243  -5742411.01642  24533906.476    24533904.915
 03  6  9  2 52 30.0000000  0  7G27G16G20G 1G13G 2G 4
  23655723.822   -10434400.54343  -7923931.29142  23655726.240    23655725.226
  21649811.008   -21090527.69243 -16391738.08942  21649813.249    21649809.402
  21076683.129   -24297657.47044 -18654707.34742  21076685.047    21076682.000
  20581406.969   -27461980.10344 -21165079.19942  20581409.228    20581406.281
  21813324.410   -20164949.16543 -15705578.39442  21813327.303    21813323.231
  21295001.240   -22173434.23444 -17235007.65842  21295003.209    21295000.732
  24539007.131    -7402108.88243  -5721514.11442  24539009.874    24539008.155
 03  6  9  2 53  0.0000000  0  7G27G16G20G 1G13G 2G 4
  23642786.709   -10502384.78843  -7976905.91942  23642789.158    23642788.156
  21657057.212   -21052448.56843 -16362066.03342  21657059.458    21657055.588
  21089461.017   -24230509.19944 -18602384.02742  21089462.962    21089459.876
  20577819.446   -27480832.59344 -21179769.43842  20577821.686    20577818.727
  21801018.021   -20229619.66643 -15755970.96642  21801020.913    21801016.823
  21296387.229   -22166150.62644 -17229332.09442  21296389.197    21296386.739
  24544190.839    -7374868.52143  -5700287.89242  24544193.555    24544191.837
 03  6  9  2 53 30.0000000  0  7G27G16G20G 1G13G 2G 4
  23629880.718   -10570206.26643  -8029753.73742  23629883.062    23629881.957
  21664407.234   -21013823.88843 -16331968.87542  21664409.458    21664405.612
  21102330.343   -24162880.56243 -18549686.40042  21102332.280    21102329.185
  20574278.903   -27499438.25544 -21194267.34442  20574281.132    20574278.166
  21788738.132   -20294151.03043 -15806255.12442  21788741.014    21788736.891
  21297865.922   -22158380.00744 -17223277.04642  21297867.858    21297865.416
  24549457.154    -7347194.12143  -5678723.45542  24549459.942    24549458.217
 03  6  9  2 54  0.0000000  0  7G27G16G20G 1G13G 2G 4
  23617008.192   -10637851.48443  -8082464.22042  23617010.552    23617009.489
  21671863.342   -20974641.77043 -16301437.34442  21671865.560    21671861.719
  21115293.238   -24094760.23443 -18496605.64642  21115295.160    21115292.057
  20570788.034   -27517782.87144 -21208561.84042  20570790.270    20570787.296
  21776487.506   -20358528.63843 -15856419.47942  21776490.375    21776486.211
  21299439.670   -22150109.76144 -17216832.67942  21299441.622    21299439.150
  24554808.224    -7319074.22643  -5656811.91342  24554810.899    24554809.411
 03  6  9  2 54 30.0000000  0  7G27G16G20G 1G13G 2G 4
  23604161.916   -10705358.35243  -8135066.90142  23604164.341    23604163.375
  21679418.062   -20934941.45043 -16270502.02142  21679420.267    21679416.449
  21128342.098   -24026187.92444 -18443172.69442  21128344.055    21128340.932
  20567339.898   -27535902.98244 -21222681.39542  20567342.132    20567339.133
  21764259.071   -20422789.28343 -15906492.68442  21764261.965    21764257.813
  21301101.265   -22141378.05544 -17210028.73242  21301103.194    21301100.736
  24560236.529    -7290548.64543  -5634584.22242  24560239.118    24560237.671
 03  6  9  2 55  0.0000000  0  7G27G16G20G 1G13G 2G 4
  23591348.801   -10772691.13743  -8187533.93742  23591351.271    23591350.274
  21687077.849   -20894688.88843 -16239136.37842  21687080.075    21687076.240
  21141483.366   -23957130.19143 -18389361.49242  21141485.319    21141482.192
  20563941.472   -27553761.87244 -21236597.40342  20563943.686    20563940.690
  21752059.936   -20486895.86643 -15956445.84642  21752062.850    21752058.678
  21302857.292   -22132149.97844 -17202838.00242  21302859.251    21302856.757
  24565748.370    -7261583.45743  -5612013.98942  24565751.088    24565749.570
 03  6  9  2 55 30.0000000  0  7G27G16G20G 1G13G 2G 4
  23578564.093   -10839874.94243  -8239884.87042  23578566.551    23578565.628
  21694837.678   -20853910.69343 -16207361.15742  21694839.905    21694836.072
  21154711.877   -23887613.86443 -18335192.94742  21154713.825    21154710.728
  20560588.199   -27571383.32344 -21250328.39642  20560590.439    20560587.400
  21739885.627   -20550872.11743 -16006297.45142  21739888.567    21739884.395
  21304702.938   -22122450.98344 -17195280.32542  21304704.903    21304702.388
  24571338.867    -7232205.65643  -5589122.22642  24571341.552    24571339.940
 03  6  9  2 56  0.0000000  0  7G27G16G20G 1G13G 2G 4
  23565812.967   -10906882.69743  -8292098.64042  23565815.375    23565814.444
  21702702.405   -20812581.25043 -16175156.38542  21702704.637    21702700.786
  21168032.401   -23817614.09143 -18280647.68742  21168034.328    21168031.273
  20557285.484   -27588739.24144 -21263852.48042  20557287.717    20557284.673
  21727741.462   -20614690.00243 -16056025.65542  21727744.377    21727740.253
  21306643.215   -22112254.67144 -17187335.12542  21306645.195    21306642.679
  24577012.698    -7202389.94043  -5565889.23842  24577015.185    24577013.590
 03  6  9  2 56 30.0000000  0  7G27G16G20G 1G13G 2G 4
  23553091.552   -10973733.88243  -8344190.39042  23553093.966    23553093.073
  21710668.016   -20770721.68243 -16142538.53042  21710670.239    21710666.362
  21181440.823   -23747152.40843 -18225742.49242  21181442.769    21181439.704
  20554029.770   -27605848.04044 -21277184.00042  20554032.005    20554028.954
  21715623.971   -20678367.69443 -16105644.61042  21715626.880    21715622.790
  21308674.280   -22101581.30244 -17179018.19542  21308676.248    21308673.728
  24582765.645    -7172157.86743  -5542331.82142  24582768.315    24582766.550
 03  6  9  2 57  0.0000000  0  7G27G16G20G 1G13G 2G 4
  23540398.161   -11040437.60543  -8396167.24142  23540400.622    23540399.797
  21718732.506   -20728342.56443 -16109515.82942  21718734.710    21718730.811
  21194935.009   -23676240.12543 -18170486.18342  21194936.930    21194933.882
  20550819.583   -27622717.70644 -21290329.18542  20550821.808    20550818.765
  21703531.672   -20741913.04843 -16155160.43742  21703534.549    21703530.500
  21310794.251   -22090440.64044 -17170337.14142  21310796.228    21310793.693
  24588595.708    -7141520.37843  -5518458.50342  24588598.403    24588596.817
 03  6  9  2 57 30.0000000  0  7G27G16G20G 1G13G 2G 4
  23527731.440   -11107001.50243  -8448035.14042  23527733.843    23527733.026
  21726894.054   -20685453.31943 -16076095.63242  21726896.244    21726892.341
  21208513.064   -23604887.12144 -18114886.45542  21208514.990    21208511.913
  20547653.661   -27639354.73244 -21303293.09242  20547655.866    20547652.853
  21691463.394   -20805332.11743 -16204577.87042  21691466.275    21691462.225
  21313001.562   -22078841.08944 -17161298.50942  21313003.523    21313000.984
  24594501.118    -7110487.18643  -5494276.84342  24594503.708    24594502.361
 03  6  9  2 58  0.0000000  0  7G27G16G20G 1G13G 2G 4
  23515099.672   -11173381.91943  -8499760.07742  23515102.034    23515101.285
  21735160.696   -20642011.73843 -16042245.04142  21735162.870    21735158.997
  21222182.943   -23533051.43943 -18058910.61442  21222184.866    21222181.781
  20544540.554   -27655714.09644 -21316040.63942  20544542.774    20544539.746
  21679427.674   -20868580.07143 -16253861.96342  21679430.573    21679426.504
  21315304.399   -22066739.40944 -17151868.60642  21315306.389    21315303.822
  24600489.789    -7079016.38343  -5469754.20642  24600492.334    24600491.282
 03  6  9  2 58 30.0000000  0  7G27G16G20G 1G13G 2G 4
  23502498.885   -11239599.44043  -8551358.09142  23502501.202    23502500.425
  21743528.165   -20598040.34843 -16007981.61842  21743530.315    21743526.489
  21235940.263   -23460756.19143 -18002576.66942  21235942.204    21235939.121
  20541476.556   -27671815.43044 -21328587.12342  20541478.793    20541475.747
  21667420.766   -20931676.59043 -16303028.05542  21667423.650    21667419.607
  21317698.752   -22054156.88044 -17142064.01942  21317700.732    21317698.170
  24606557.407    -7047130.63543  -5444908.22042  24606559.886    24606559.095
 03  6  9  2 59  0.0000000  0  7G27G16G20G 1G13G 2G 4
  23489927.034   -11305664.43543  -8602837.24742  23489929.349    23489928.598
  21751994.260   -20553550.69243 -15973314.34442  21751996.398    21751992.585
  21249782.733   -23388013.65243 -17945894.19342  21249784.646    21249781.560
  20538459.945   -27687667.74944 -21340939.56542  20538462.188    20538459.150
  21655441.008   -20994630.50243 -16352083.02842  21655443.920    21655439.839
  21320182.513   -22041104.51644 -17131893.32842  21320184.506    21320181.909
  24612701.602    -7014842.22743  -5419748.47142  24612704.069    24612703.484
 03  6  9  2 59 30.0000000  0  7G27G16G20G 1G13G 2G 4
  23477386.610   -11371564.48843  -8654187.87742  23477388.919    23477388.110
  21760560.972   -20508532.23943 -15938235.01842  21760563.121    21760559.318
  21263712.251   -23314813.57943 -17888855.19242  21263714.179    21263711.080
  20535493.322   -27703257.48444 -21353087.39642  20535495.567    20535492.491
  21643491.035   -21057427.96943 -16401016.09442  21643493.929    21643489.825
  21322757.873   -22027570.69544 -17121347.47342  21322759.887    21322757.258
  24618924.405    -6982140.68843  -5394266.80442  24618926.885    24618926.532
 03  6  9  3  0  0.0000000  0  7G27G16G20G 1G13G 2G 4
  23464873.837   -11437319.53743  -8705425.51342  23464876.099    23464875.213
  21769224.225   -20463006.55143 -15902760.44442  21769226.373    21769222.553
  21277724.653   -23241177.96143 -17831476.80142  21277726.583    21277723.492
  20532573.057   -27718603.38844 -21365045.22942  20532575.323    20532572.253
  21631567.298   -21120087.53843 -16449841.70742  21631570.189    21631566.041
  21325420.956   -22013575.93444 -17110442.44342  21325422.968    21325420.330
  24625221.702    -6949047.96643  -5368480.31742  24625224.283    24625223.962
 03  6  9  3  0 30.0000000  0  7G27G16G20G 1G13G 2G 4
  23452392.934   -11502906.80343  -8756532.40542  23452395.216    23452394.257
  21777987.977   -20416952.55043 -15866874.20142  21777990.169    21777986.342
  21291823.847   -23167086.32443 -17773743.08342  21291825.750    21291822.683
  20529703.783   -27733681.56044 -21376794.43742  20529706.040    20529702.936
  21619674.360   -21182585.34743 -16498541.27642  21619677.247    21619673.060
  21328175.923   -21999098.25444 -17099161.11142  21328177.938    21328175.309
  24631597.534    -6915543.28643  -5342372.83442  24631600.239    24631599.758
 03  6  9  3  1  0.0000000  0  7G27G16G20G 1G13G 2G 4
  23439939.891   -11568348.21843  -8807525.66542  23439942.182    23439941.117
  21786847.843   -20370393.61543 -15830594.50142  21786850.039    21786846.229
  21306005.262   -23092562.44443 -17715672.54042  21306007.180    21306004.137
  20526881.499   -27748512.72744 -21388351.17642  20526883.767    20526880.614
  21607808.325   -21244941.56143 -16547130.50542  21607811.210    21607807.067
  21331018.490   -21984160.26944 -17087521.10842  21331020.484    21331017.891
  24638047.251    -6881650.56143  -5315962.95342  24638049.918    24638049.290
 03  6  9  3  1 30.0000000  0  7G27G16G20G 1G13G 2G 4
  23427518.651   -11633621.59643  -8858387.96342  23427520.998    23427519.925
  21795807.627   -20323309.55743 -15793905.61642  21795809.828    21795805.995
  21320272.670   -23017586.73444 -17657249.92642  21320274.585    21320271.556
  20524110.655   -27763073.58344 -21399697.28242  20524112.912    20524109.749
  21595973.731   -21307132.76643 -16595591.16042  21595976.599    21595972.456
  21333952.743   -21968740.51244 -17075505.69642  21333954.740    21333952.143
  24644574.585    -6847349.55043  -5289234.94442  24644577.416    24644576.490
 03  6  9  3  2  0.0000000  0  7G27G16G20G 1G13G 2G 4
  23415126.958   -11698740.22643  -8909129.66942  23415129.252    23415128.128
  21804864.504   -20275715.31343 -15756819.17842  21804866.701    21804862.894
  21334623.125   -22942174.62743 -17598487.26542  21334625.039    21334622.041
  20521388.929   -27777376.21044 -21410842.17042  20521391.189    20521388.028
  21584168.222   -21369170.98543 -16643932.59942  21584171.098    21584166.942
  21336975.958   -21952853.38744 -17063126.10042  21336977.937    21336975.343
  24651176.745    -6812655.86043  -5262200.92942  24651179.557    24651178.513
 03  6  9  3  2 30.0000000  0  7G27G16G20G 1G13G 2G 4
  23402766.735   -11763693.36543  -8959742.42542  23402769.055    23402767.972
  21814020.185   -20227601.75643 -15719328.09242  21814022.369    21814018.578
  21349058.309   -22866317.29643 -17539377.67242  21349060.221    21349057.229
  20518718.629   -27791408.45744 -21421776.37342  20518720.903    20518717.773
  21572394.157   -21431044.05243 -16692145.34742  21572397.032    21572392.859
  21340090.115   -21936488.38344 -17050374.13342  21340092.064    21340089.482
  24657855.363    -6777560.42243  -5234853.89242  24657858.228    24657856.980
 03  6  9  3  3  0.0000000  0  7G27G16G20G 1G13G 2G 4
  23390436.515   -11828488.23943  -9010231.85142  23390438.907    23390437.783
  21823272.995   -20178977.89443 -15681439.36342  21823275.175    21823271.383
  21363576.345   -22790024.38943 -17479928.67242  21363578.300    21363575.328
  20516098.630   -27805176.47044 -21432504.67742  20516100.900    20516097.791
  21560650.372   -21492757.81243 -16740233.96042  21560653.244    21560649.116
  21343293.643   -21919653.80844 -17037256.26842  21343295.587    21343292.980
  24664608.563    -6742072.63343  -5207201.10042  24664611.524    24664610.056
 03  6  9  3  3 30.0000000  0  8G27G16G 3G20G 1G13G 2G 4
  23378135.117   -11893132.36743  -9060603.82042  23378137.472    23378136.400
  21832621.166   -20129853.02943 -15643160.23742  21832623.353    21832619.499
  24594095.319    -6600150.36553  -5111652.23952  24594097.892    24594098.327
  21378175.438   -22713305.69543 -17420147.88842  21378177.393    21378174.457
  20513527.709   -27818686.68944 -21443032.10342  20513529.972    20513526.875
  21548935.814   -21554318.20543 -16788203.06842  21548938.665    21548934.500
  21346584.922   -21902358.02944 -17023779.01742  21346586.882    21346584.229
  24671434.583    -6706202.14643  -5179250.13042  24671437.372    24671435.961
 03  6  9  3  4  0.0000000  0  8G27G16G 3G20G 1G13G 2G 4
  23365863.926   -11957617.68843  -9110852.06342  23365866.301    23365865.111
  21842065.818   -20080221.09243 -15604485.99442  21842068.001    21842064.120
  24579677.467    -6675915.62443  -5170689.88142  24579680.084    24579680.429
  21392856.675   -22636155.40843 -17360030.80042  21392858.611    21392855.656
  20511007.597   -27831929.98744 -21453351.53542  20511009.855    20511006.739
  21537252.197   -21615715.89243 -16836045.39342  21537255.043    21537250.879
  21349965.324   -21884593.88744 -17009936.81142  21349967.297    21349964.605
  24678334.448    -6669943.07443  -5150996.34942  24678337.229    24678335.904
 03  6  9  3  4 30.0000000  0  8G27G16G 3G20G 1G13G 2G 4
  23353624.761   -12021934.48043  -9160968.96842  23353627.129    23353625.946
  21851608.567   -20030073.76343 -15565410.14642  21851610.750    21851606.808
  24565272.187    -6751615.03443  -5229676.23342  24565274.939    24565275.065
  21407621.514   -22558565.79443 -17299571.38042  21407623.421    21407620.483
  20508540.393   -27844895.17344 -21463454.26042  20508542.654    20508539.510
  21525601.696   -21676939.51943 -16883752.07742  21525604.544    21525600.381
  21353436.585   -21866352.38344 -16995722.63042  21353438.535    21353435.828
  24685309.917    -6633287.43543  -5122433.53742  24685312.582    24685311.119
 03  6  9  3  5  0.0000000  0  8G27G16G 3G20G 1G13G 2G 4
  23341419.011   -12086075.61343  -9210948.99242  23341421.431    23341420.187
  21861250.383   -19979405.61443 -15525928.46442  21861252.591    21861248.622
  24550881.378    -6827238.68343  -5288603.54942  24550884.083    24550884.135
  21422470.843   -22480532.17343 -17238765.98542  21422472.714    21422469.792
  20506127.695   -27857573.92444 -21473333.78642  20506129.958    20506126.814
  21513985.952   -21737980.71843 -16931316.61642  21513988.786    21513984.585
  21356999.870   -21847627.07944 -16981131.46242  21357001.863    21356999.120
  24692361.655    -6596230.50143  -5093558.05542  24692364.306    24692362.868
 03  6  9  3  5 30.0000000  0  8G27G16G 3G20G 1G13G 2G 4
  23329239.960   -12150076.65643  -9260819.83042  23329242.403    23329241.167
  21870984.150   -19928254.26243 -15486070.26042  21870986.345    21870982.395
  24536498.741    -6902819.01443  -5347497.10642  24536501.383    24536501.385
  21437397.463   -22402092.34843 -17177644.06342  21437399.345    21437396.412
  20503763.007   -27870000.52444 -21483016.83242  20503765.243    20503762.106
  21502398.423   -21798873.51343 -16978765.51042  21502401.256    21502397.032
  21360648.299   -21828454.36744 -16966191.66542  21360650.306    21360647.538
  24699482.720    -6558809.78343  -5064399.08942  24699485.473    24699483.843
 03  6  9  3  6  0.0000000  0  8G27G16G 3G20G 1G13G 2G 4
  23317090.464   -12213922.56343  -9310569.79742  23317092.877    23317091.576
  21880812.355   -19876606.58343 -15445825.31142  21880814.553    21880810.599
  24522127.843    -6978337.91643  -5406342.80142  24522130.465    24522130.501
  21452403.798   -22323233.66443 -17116195.75842  21452405.680    21452402.748
  20501449.349   -27882158.63244 -21492490.66842  20501451.620    20501448.481
  21490842.263   -21859601.41643 -17026085.91542  21490845.105    21490840.855
  21364384.532   -21808820.20944 -16950892.30242  21364386.564    21364383.769
  24706675.491    -6521012.38243  -5034946.60042  24706678.144    24706676.307
 03  6  9  3  6 30.0000000  0  8G27G16G 3G20G 1G13G 2G 4
  23304969.576   -12277617.77443  -9360202.34142  23304972.015    23304970.667
  21890733.908   -19824468.47043 -15405198.20542  21890736.096    21890732.124
  24507768.316    -7053796.64543  -5465141.58942  24507770.915    24507770.971
  21467488.662   -22243962.40043 -17054425.96342  21467490.556    21467487.590
  20499186.230   -27894051.28244 -21501757.65242  20499188.488    20499185.370
  21479316.975   -21920167.13143 -17073279.93942  21479319.812    21479315.541
  21368207.637   -21788729.74744 -16935237.37442  21368209.636    21368206.843
  24713938.657    -6482844.70143  -5005205.58342  24713941.285    24713939.265
 03  6  9  3  7  0.0000000  0  8G27G16G 3G20G 1G13G 2G 4
  23292882.109   -12341137.46343  -9409698.09742  23292884.587    23292883.261
  21900753.120   -19771817.13643 -15364171.18542  21900755.296    21900751.338
  24493425.479    -7129167.46843  -5523871.89242  24493428.133    24493428.172
  21482656.253   -22164256.39843 -16992317.41042  21482658.142    21482655.144
  20496978.560   -27905652.60044 -21510797.62642  20496980.826    20496977.695
  21467827.484   -21980544.50943 -17120327.20842  21467830.337    21467826.071
  21372122.067   -21768159.21644 -16919208.36942  21372124.068    21372121.255
  24721276.513    -6444284.15543  -4975158.42542  24721279.165    24721276.919
 03  6  9  3  7 30.0000000  0  8G27G16G 3G20G 1G13G 2G 4
  23280826.673   -12404488.93243  -9459062.80342  23280829.138    23280827.793
  21910868.223   -19718661.69143 -15322751.35142  21910870.432    21910866.468
  24479098.590    -7204454.60943  -5582536.97442  24479101.298    24479101.276
  21497904.722   -22084125.12043 -16929877.46742  21497906.635    21497903.634
  20494825.203   -27916968.63544 -21519615.30142  20494827.457    20494824.313
  21456372.729   -22040739.52043 -17167232.38142  21456375.584    21456371.303
  21376126.296   -21747116.71344 -16902811.59542  21376128.291    21376125.474
  24728687.260    -6405340.41143  -4944812.68942  24728689.946    24728687.585
 03  6  9  3  8  0.0000000  0  8G27G16G 3G20G 1G13G 2G 4
  23268800.964   -12467684.10243  -9508305.71142  23268803.427    23268802.117
  21921076.677   -19665015.86243 -15280949.40142  21921078.858    21921074.905
  24464785.995    -7279667.00943  -5641143.83442  24464788.659    24464788.604
  21513231.437   -22003582.74243 -16867117.19042  21513233.364    21513230.350
  20492724.106   -27928009.97644 -21528218.93042  20492726.361    20492723.207
  21444950.747   -22100762.23643 -17214003.29842  21444953.638    21444949.336
  21380217.842   -21725615.21244 -16886057.16142  21380219.855    21380217.053
  24736168.257    -6366027.00943  -4914178.91942  24736170.844    24736168.466
 03  6  9  3  8 30.0000000  0  8G27G16G 3G20G 1G13G 2G 4
  23256799.130   -12530753.62343  -9557450.70142  23256801.607    23256800.304
  21931372.195   -19610912.51543 -15238790.94842  21931374.379    21931370.415
  24450482.437    -7354832.11143  -5699713.80642  24450485.011    24450484.976
  21528630.086   -21922662.36443 -16804062.37242  21528631.996    21528628.996
  20490669.627   -27938806.19744 -21536631.55342  20490671.876    20490668.753
  21433555.985   -22160642.18543 -17260662.96942  21433558.894    21433554.534
  21384390.729   -21703686.32744 -16868969.69842  21384392.733    21384389.941
  24743713.282    -6326377.31143  -4883283.12442  24743715.778    24743713.429
 03  6  9  3  9  0.0000000  0  8G27G16G 3G20G 1G13G 2G 4
  23244828.036   -12593661.49343  -9606469.73642  23244830.480    23244829.259
  21941761.362   -19556316.94143 -15196248.93842  21941763.543    21941759.562
  24436195.247    -7429911.00443  -5758216.62842  24436197.847    24436197.831
  21544107.108   -21841330.14943 -16740686.63842  21544108.999    21544106.013
  20488668.944   -27949319.77844 -21544823.93742  20488671.191    20488668.050
  21422195.570   -22220341.33943 -17307181.75542  21422198.499    21422194.136
  21388651.695   -21681294.65444 -16851521.62142  21388653.680    21388650.919
  24751328.759    -6286357.06643  -4852098.55042  24751331.232    24751329.063
 03  6  9  3  9 30.0000000  0  8G27G16G 3G20G 1G13G 2G 4
  23232889.909   -12656396.86443  -9655354.36642  23232892.316    23232891.034
  21952245.844   -19501220.31043 -15153316.49242  21952248.068    21952244.111
  24421927.014    -7504889.61943  -5816641.28442  24421929.745    24421929.710
  21559664.086   -21759577.61243 -16676983.38242  21559665.977    21559663.000
  20486724.353   -27959538.65844 -21552786.68742  20486726.598    20486723.442
  21410871.924   -22279847.38243 -17353550.07042  21410874.835    21410870.473
  21393002.564   -21658430.50844 -16833705.38542  21393004.538    21393001.794
  24759016.477    -6245957.60743  -4820618.51042  24759018.903    24759017.177
 03  6  9  3 10  0.0000000  0  8G27G16G 3G20G 1G13G 2G 4
  23220979.877   -12718983.83543  -9704123.34242  23220982.350    23220981.045
  21962820.719   -19445648.75343 -15110013.97842  21962822.946    21962819.011
  24407673.972    -7579788.94743  -5875004.18542  24407676.785    24407676.535
  21575296.030   -21677431.19143 -16612973.20242  21575297.923    21575294.967
  20484831.484   -27969485.63544 -21560537.56242  20484833.729    20484830.579
  21399580.688   -22339183.07943 -17399785.65242  21399583.578    21399579.218
  21397438.606   -21635118.94044 -16815540.50642  21397440.554    21397437.826
  24766771.360    -6205205.31643  -4788863.53342  24766773.788    24766772.447
 03  6  9  3 10 30.0000000  0  8G27G16G 3G20G 1G13G 2G 4
  23209100.692   -12781409.21643  -9752766.42342  23209103.125    23209101.793
  21973488.135   -19389591.10743 -15066332.69042  21973490.353    21973486.441
  24393439.169    -7654592.59143  -5933292.53742  24393441.874    24393441.542
  21591005.013   -21594879.97143 -16548647.59642  21591006.924    21591003.973
  20482993.079   -27979146.26844 -21568065.31242  20482995.354    20482992.192
  21388324.721   -22398333.36943 -17445876.75742  21388327.617    21388323.264
  21401962.127   -21611347.56244 -16797017.33442  21401964.086    21401961.362
  24774595.475    -6164089.31343  -4756825.15442  24774597.868    24774596.841
 03  6  9  3 11  0.0000000  0  8G27G16G 3G20G 1G13G 2G 4
  23197250.566   -12843681.93043  -9801290.56142  23197252.940    23197251.582
  21984246.011   -19333058.05343 -15022280.95642  21984248.223    21984244.300
  24379221.576    -7729306.03943  -5991510.61442  24379224.189    24379223.837
  21606788.859   -21511935.32943 -16484015.42742  21606790.781    21606787.840
  20481207.720   -27988528.22744 -21575375.91442  20481209.994    20481206.845
  21377102.575   -22457306.03443 -17491829.46142  21377105.442    21377101.113
  21406571.283   -21587126.22944 -16778143.54642  21406573.231    21406570.530
  24782486.805    -6122620.62543  -4724511.98342  24782489.342    24782488.378
 03  6  9  3 11 30.0000000  0  8G27G16G 3G20G 1G13G 2G 4
  23185431.336   -12905792.25643  -9849688.13742  23185433.709    23185432.349
  21995095.809   -19276041.90443 -14977852.77642  21995098.039    21995094.106
  24365023.488    -7803916.76943  -6049648.65142  24365025.963    24365025.712
  21622648.956   -21428590.10643 -16419071.11942  21622650.869    21622647.908
  20479477.494   -27997620.68944 -21582460.93342  20479479.763    20479476.609
  21365916.424   -22516089.49143 -17537634.73242  21365919.286    21365914.972
  21411267.690   -21562446.30144 -16758912.41442  21411269.667    21411266.950
  24790446.687    -6080791.62643  -4691918.01442  24790449.312    24790448.300
 03  6  9  3 12  0.0000000  0  8G27G16G 3G20G 1G13G 2G 4
  23173642.592   -12967741.95843  -9897960.56742  23173644.994    23173643.652
  22006036.904   -19218546.06843 -14933050.82042  22006039.137    22006035.202
  24350845.244    -7878423.18643  -6107705.39342  24350847.817    24350847.429
  21638584.584   -21344847.89743 -16353817.47342  21638586.487    21638583.517
  20477802.289   -28006423.78844 -21589320.47642  20477804.568    20477801.436
  21354766.235   -22574683.86643 -17583292.66542  21354769.115    21354764.787
  21416050.896   -21537310.39944 -16739325.98042  21416052.857    21416050.144
  24798474.399    -6038606.45043  -4659046.51042  24798477.047    24798476.090
 03  6  9  3 12 30.0000000  0  8G27G16G 3G20G 1G13G 2G 4
  23161885.063   -13029528.41143  -9946105.79342  23161887.382    23161886.003
  22017069.323   -19160570.22843 -14887874.83542  22017071.577    22017067.608
  24336687.928    -7952819.88343  -6165676.67042  24336690.494    24336690.178
  21654595.744   -21260708.68843 -16288254.47442  21654597.674    21654594.696
  20476182.811   -28014933.97044 -21595951.77042  20476185.100    20476182.003
  21343652.858   -22633084.99844 -17628800.02342  21343655.742    21343651.402
  21420921.164   -21511717.02144 -16719383.06942  21420923.113    21420920.401
  24806570.043    -5996064.43943  -4625896.97242  24806572.702    24806571.649
 03  6  9  3 13  0.0000000  0  8G27G16G 3G20G 1G13G 2G 4
  23150153.361   -13091178.50043  -9994144.74042  23150155.695    23150154.328
  22028187.699   -19102142.79043 -14842346.95642  22028189.941    22028185.972
  24322547.042    -8027130.31843  -6223580.72342  24322549.662    24322549.161
  21670676.897   -21176201.82043 -16222404.99242  21670678.805    21670675.841
  20474614.307   -28023176.48144 -21602374.49042  20474616.591    20474613.482
  21332571.465   -22691318.16544 -17674176.49842  21332574.312    21332569.981
  21425873.181   -21485694.05144 -16699105.41542  21425875.139    21425872.397
  24814727.951    -5953194.95443  -4592492.24242  24814730.576    24814729.495
 03  6  9  3 13 30.0000000  0  8G27G16G 3G20G 1G13G 2G 4
  23138450.130   -13152679.21843 -10042067.34642  23138452.490    23138451.068
  22039394.029   -19043253.08743 -14796458.86842  22039396.272    22039392.303
  24308425.636    -8101338.24243  -6281404.88942  24308428.256    24308427.495
  21686830.079   -21091316.50943 -16156260.61942  21686831.955    21686829.022
  20473099.473   -28031136.94044 -21608577.42942  20473101.741    20473098.647
  21321524.811   -22749368.56344 -17719410.55042  21321527.686    21321523.372
  21430909.221   -21459229.43844 -16678483.62042  21430911.182    21430908.431
  24822950.291    -5909987.02243  -4558823.80542  24822952.902    24822951.724
 03  6  9  3 14  0.0000000  0  8G27G16G 3G20G 1G13G 2G 4
  23126782.018   -13213995.02043 -10089845.78342  23126784.447    23126783.012
  22050694.725   -18983867.50443 -14750184.38042  22050696.977    22050692.986
  24294330.983    -8175405.27643  -6339119.29142  24294333.677    24294332.833
  21703061.459   -21006019.90843 -16089795.76042  21703063.372    21703060.444
  20471645.258   -28038778.80044 -21614532.11042  20471647.533    20471644.442
  21310519.987   -22807199.23444 -17764473.39142  21310522.850    21310518.551
  21436035.819   -21432288.94744 -16657491.01542  21436037.780    21436035.040
  24831243.305    -5866407.60843  -4524865.89142  24831245.905    24831244.581
 03  6  9  3 14 30.0000000  0  8G27G16G 3G20G 1G13G 2G 4
  23115140.869   -13275169.32343 -10137513.97842  23115143.328    23115141.810
  22062081.199   -18924031.19643 -14703558.67742  22062083.452    22062079.435
  24280255.522    -8249371.34643  -6396755.02442  24280258.213    24280257.261
  21719362.447   -20920357.50343 -16023045.85642  21719364.397    21719361.504
  20470243.702   -28046144.03944 -21620271.24442  20470245.956    20470242.876
  21299549.080   -22864851.60544 -17809397.29742  21299551.945    21299547.650
  21441244.565   -21404916.76644 -16636162.02842  21441246.518    21441243.762
  24839598.246    -5822502.09243  -4490653.86242  24839600.851    24839599.417
 03  6  9  3 15  0.0000000  0  8G27G16G 3G20G 1G13G 2G 4
  23103530.860   -13336180.56543 -10185055.15642  23103533.274    23103531.668
  22073557.181   -18863724.60943 -14656566.52342  22073559.406    22073555.412
  24266204.045    -8323211.85343  -6454292.91042  24266206.779    24266205.618
  21735736.709   -20834310.17343 -15955996.01542  21735738.646    21735735.807
  20468899.125   -28053209.81944 -21625777.03242  20468901.368    20468898.285
  21288616.463   -22922302.71744 -17854164.36842  21288619.333    21288615.039
  21446539.343   -21377092.47044 -16614480.74242  21446541.282    21446538.543
  24848018.979    -5778251.36343  -4456172.83242  24848021.585    24848020.054
 03  6  9  3 15 30.0000000  0  7G27G16G 3G20G 1G13G 2
  23091953.213   -13397020.90143 -10232463.11042  23091955.672    23091954.115
  22085123.705   -18802942.08043 -14609203.50542  22085125.927    22085121.936
  24252178.535    -8396915.83843  -6511724.42242  24252181.125    24252180.193
  21752185.207   -20747872.71643 -15888642.17842  21752187.106    21752184.336
  20467613.270   -28059966.96544 -21631042.32642  20467615.512    20467612.424
  21277723.979   -22979543.09844 -17898767.23642  21277726.836    21277722.546
  21451921.413   -21348809.38944 -16592441.96242  21451923.351    21451920.602
 03  6  9  3 16  0.0000000  0  7G27G16G 3G20G 1G13G 2
  23080405.078   -13457706.62443 -10279750.60242  23080407.521    23080405.912
  22096777.257   -18741702.09643 -14561484.02942  22096779.479    22096775.490
  24238176.607    -8470496.46443  -6569059.81242  24238179.020    24238178.187
  21768704.397   -20661063.70443 -15820998.81742  21768706.298    21768703.590
  20466383.269   -28066430.46944 -21636078.80542  20466385.515    20466382.457
  21266868.868   -23036587.20044 -17943217.15942  21266871.728    21266867.391
  21457387.464   -21320084.91144 -16570059.23842  21457389.443    21457386.665
 03  6  9  3 16 30.0000000  0  7G27G16G 3G20G 1G13G 2
  23068883.673   -13518251.32043 -10326928.20342  23068886.157    23068884.540
  22108515.009   -18680019.79443 -14513419.88442  22108517.222    22108513.229
  24224196.097    -8543963.74543  -6626306.88142  24224198.532    24224197.596
  21785291.299   -20573899.07543 -15753078.35142  21785293.199    21785290.494
  20465206.864   -28072612.58044 -21640896.02142  20465209.090    20465206.020
  21256048.832   -23093446.85544 -17987523.35842  21256051.679    21256047.331
  21462934.761   -21290933.51144 -16547343.84642  21462936.725    21462933.971
 03  6  9  3 17  0.0000000  0  7G27G16G 3G20G 1G13G 2
  23057391.455   -13578643.28343 -10373986.82442  23057393.909    23057392.233
  22120338.721   -18617885.80343 -14465003.78642  22120340.940    22120336.913
  24210239.845    -8617303.14443  -6683454.29142  24210242.303    24210241.254
  21801947.624   -20486369.71943 -15684873.68542  21801949.514    21801946.828
  20464086.449   -28078500.40444 -21645483.92042  20464088.683    20464085.602
  21245266.410   -23150108.72344 -18031675.43542  21245269.285    21245264.925
  21468565.306   -21261344.59044 -16524287.52842  21468567.291    21468564.575
 03  6  9  3 17 30.0000000  0  7G27G16G 3G20G 1G13G 2
  23045929.246   -13638877.31643 -10420922.35742  23045931.670    23045930.046
  22132249.000   -18555296.88643 -14416233.18642  22132251.220    22132247.176
  24196309.692    -8690505.95243  -6740495.28442  24196312.168    24196311.181
  21818673.893   -20398472.69243 -15616382.51542  21818675.767    21818673.081
  20463023.294   -28084087.29644 -21649837.32342  20463025.533    20463022.436
  21234522.897   -23206566.03344 -18075668.11342  21234525.778    21234521.460
  21474279.950   -21231313.97844 -16500887.03642  21474281.902    21474279.200
 03  6  9  3 18  0.0000000  0  7G27G16G 3G20G 1G13G 2
  23034495.322   -13698962.38643 -10467741.78042  23034497.821    23034496.156
  22144243.764   -18492263.94543 -14367116.60242  22144245.994    22144241.941
  24182404.414    -8763578.34243  -6797434.65642  24182406.827    24182405.782
  21835467.906   -20310219.45643 -15547613.78842  21835469.843    21835467.095
  20462015.900   -28089381.12044 -21653962.36842  20462018.144    20462015.028
  21223816.950   -23262826.05144 -18119507.05842  21223819.841    21223815.510
  21480076.665   -21200851.96044 -16477150.38442  21480078.620    21480075.919
 03  6  9  3 18 30.0000000  0  7G27G16G 3G20G 1G13G 2
  23023091.527   -13758889.52543 -10514438.19442  23023093.969    23023092.286
  22156324.349   -18428780.20443 -14317648.74342  22156326.563    22156322.488
  24168526.319    -8836507.61743  -6854262.50142  24168528.709    24168527.699
  21852331.048   -20221603.33443 -15478562.28742  21852332.942    21852330.179
  20461066.297   -28094371.24544 -21657850.76042  20461068.552    20461065.412
  21213150.613   -23318877.85544 -18163183.75242  21213153.486    21213149.158
  21485956.955   -21169950.59444 -16453071.38442  21485958.936    21485956.230
 03  6  9  3 19  0.0000000  0  7G27G16G 3G20G 1G13G 2
  23011713.441   -13818681.08043 -10561028.91442  23011715.925    23011714.249
  22168486.048   -18364870.15143 -14267848.69642  22168488.280    22168484.178
  24154671.682    -8909313.46643  -6910994.19542  24154674.118    24154673.145
  21869258.439   -20132649.26543 -15409247.45442  21869260.365    21869257.598
  20460170.421   -28099078.91344 -21661519.05742  20460172.698    20460169.548
  21202519.901   -23374742.44944 -18206714.57542  21202522.779    21202518.450
  21491916.309   -21138633.84244 -16428668.70542  21491918.270    21491915.591
 03  6  9  3 19 30.0000000  0  7G27G16G 3G20G 1G13G 2
  23000367.640   -13878303.44143 -10607487.79342  23000370.123    23000368.339
  22180734.865   -18300502.13143 -14217691.79242  22180737.165    22180733.023
  24140847.652    -8981958.70743  -6967600.73742  24140849.935    24140849.032
  21886256.033   -20043326.30643 -15339645.16942  21886257.972    21886255.215
  20459334.939   -28103469.38644 -21664940.18942  20459337.199    20459334.033
  21191931.630   -23430384.06144 -18250071.64142  21191934.516    21191930.181
  21497960.990   -21106868.83544 -16403916.73842  21497962.913    21497960.261
 03  6  9  3 20  0.0000000  0  7G27G16G 3G20G 1G13G 2
  22989050.525   -13937774.76643 -10653828.99942  22989053.022    22989051.223
  22193067.004   -18235696.25543 -14167193.70042  22193069.323    22193065.182
  24127051.339    -9054458.26243  -7024093.77642  24127053.598    24127052.677
  21903319.965   -19953654.90643 -15269771.37742  21903321.887    21903319.148
  20458556.662   -28107559.19044 -21668127.03442  20458558.924    20458555.767
  21181382.624   -23485819.26644 -18293267.87442  21181385.503    21181381.175
  21504087.283   -21074674.76744 -16378830.43742  21504089.221    21504086.589
 03  6  9  3 20 30.0000000  0  7G27G16G 3G20G 1G13G 2
  22977765.232   -13997079.03543 -10700040.03342  22977767.742    22977765.839
  22205485.135   -18170438.49543 -14116343.49142  22205487.446    22205483.361
  24113286.381    -9126792.88243  -7080458.28942  24113288.757    24113287.701
  21920452.755   -19863621.47743 -15199615.48542  21920454.681    21920452.008
  20457838.886   -28111330.93244 -21671066.03742  20457841.162    20457838.003
  21170876.316   -23541030.19144 -18336289.34242  21170879.212    21170874.858
  21510298.077   -21042036.83744 -16353398.26742  21510300.014    21510297.370
 03  6  9  3 21  0.0000000  0  7G27G16G 3G20G 1G13G 2
  22966510.564   -14056222.15243 -10746125.48142  22966513.087    22966511.117
  22217987.691   -18104737.03443 -14065147.53442  22217990.004    22217985.963
  24099552.378    -9198965.19543  -7136696.33842  24099554.724    24099553.568
  21937652.853   -19773234.42243 -15129184.04142  21937654.757    21937652.123
  20457180.722   -28114789.45044 -21673760.97042  20457182.986    20457179.840
  21160411.843   -23596021.23944 -18379139.47942  21160414.743    21160410.357
  21516591.957   -21008962.34544 -16327625.91742  21516593.920    21516591.225
 03  6  9  3 21 30.0000000  0  7G27G16G 3G20G 1G13G 2
  22955283.638   -14115219.52743 -10792097.36442  22955286.198    22955284.210
  22230571.330   -18038609.45943 -14013619.54942  22230573.649    22230569.627
  24085846.833    -9270987.66543  -7192817.62442  24085849.201    24085848.132
  21954916.796   -19682511.66643 -15058491.00942  21954918.737    21954916.140
  20456579.484   -28117948.84544 -21676222.81942  20456581.747    20456578.607
  21149986.676   -23650805.74944 -18421828.68242  21149989.575    21149985.172
  21522965.734   -20975467.91744 -16301526.35042  21522967.707    21522964.985
 03  6  9  3 22  0.0000000  0  7G27G16G 3G20G 1G13G 2
  22944082.527   -14174081.53743 -10837963.76742  22944085.089    22944083.108
  22243233.749   -17972067.94543 -13961769.01642  22243236.075    22243232.045
  24072168.543    -9342867.04843  -7248827.42542  24072170.985    24072169.794
  21972242.226   -19591465.91843 -14987546.29242  21972244.188    21972241.587
  20456033.507   -28120817.85744 -21678458.39642  20456035.780    20456032.619
  21139599.157   -23705392.23644 -18464363.57542  21139602.085    21139597.663
  21529417.253   -20941564.93644 -16275108.42842  21529419.209    21529416.499
 03  6  9  3 22 30.0000000  0  7G27G16G 3G20G 1G13G 2
  22932908.323   -14232802.02743 -10883719.91342  22932910.862    22932908.842
  22255975.683   -17905108.74243 -13909593.00842  22255977.980    22255973.965
  24058519.235    -9414594.25343  -7304718.65142  24058521.642    24058520.414
  21989629.788   -19500093.77943 -14916347.23942  21989631.768    21989629.137
  20455544.131   -28123389.35544 -21680462.14442  20455546.437    20455543.255
  21129250.801   -23759773.16244 -18506738.29242  21129253.694    21129249.284
  21535947.401   -20907248.66244 -16248368.46042  21535949.346    21535946.664
 03  6  9  3 23  0.0000000  0  7G27G16G 3G20G 1G13G 2
  22921765.839   -14291355.90543 -10929346.22642  22921768.332    22921766.329
  22268801.446   -17837708.86643 -13857073.62342  22268803.709    22268799.752
  24044904.328    -9486140.93743  -7360469.21342  24044906.723    24044905.424
  22007083.759   -19408372.61843 -14844876.23142  22007085.717    22007083.115
  20455116.443   -28125636.85544 -21682213.42842  20455118.732    20455115.550
  21118946.706   -23813921.47844 -18548931.76142  21118949.605    21118945.155
  21542560.790   -20872494.97044 -16221287.65042  21542562.728    21542560.034
 03  6  9  3 23 30.0000000  0  7G27G16G 3G20G 1G13G 2
  22910653.323   -14349752.27543 -10974849.80542  22910655.793    22910653.791
  22281708.994   -17769879.29343 -13804219.40542  22281711.215    22281707.287
  24031322.686    -9557512.70043  -7416083.46442  24031325.073    24031323.667
  22024601.985   -19316313.76043 -14773142.07942  22024603.946    22024601.382
  20454748.940   -28127568.01144 -21683718.20942  20454751.213    20454748.051
  21108685.477   -23867844.55544 -18590949.71642  21108688.356    21108683.891
  21549255.450   -20837314.16844 -16193874.02542  21549257.397    21549254.706
 03  6  9  3 24  0.0000000  0  7G27G16G 3G20G 1G13G 2
  22899572.818   -14407980.21143 -11020222.15342  22899575.269    22899573.269
  22294699.923   -17701611.33143 -13751023.58842  22294702.142    22294698.271
  24017777.082    -9628695.30043  -7471550.33542  24017779.423    24017778.058
  22042186.087   -19223908.71043 -14701138.16942  22042188.064    22042185.507
  20454443.978   -28129170.40844 -21684966.81542  20454446.285    20454443.093
  21098469.633   -23921529.09644 -18632781.79842  21098472.506    21098468.034
  21556033.283   -20801696.48044 -16166119.96742  21556035.230    21556032.520
 03  6  9  3 24 30.0000000  0  7G27G16G 3G20G 1G13G 2
  22888519.433   -14466065.54043 -11065483.34242  22888521.906    22888519.926
  22307768.991   -17632933.02643 -13697508.02842  22307771.131    22307767.313
  24004263.020    -9699711.54843  -7526887.56442  24004265.359    24004263.940
  22059830.633   -19131186.19143 -14628886.87442  22059832.597    22059830.062
  20454196.943   -28130468.66344 -21685978.43242  20454199.227    20454196.030
  21088294.506   -23974999.52444 -18674447.04742  21088297.389    21088292.913
  21562889.039   -20765669.14544 -16138046.71142  21562891.022    21562888.277
 03  6  9  3 25  0.0000000  0  7G27G16G 3G20G 1G13G 2
  22877492.740   -14524010.89643 -11110635.46942  22877495.186    22877493.221
  22320915.202   -17563849.27543 -13643676.53442  22320917.336    22320913.529
  23990780.699    -9770560.95743  -7582094.80342  23990783.116    23990781.646
  22077534.612   -19038151.42143 -14556392.27542  22077536.590    22077533.999
  20454007.454   -28131464.29644 -21686754.23542  20454009.757    20454006.574
  21078159.963   -24028256.81644 -18715946.21142  21078162.852    21078158.337
  21569822.011   -20729236.11244 -16109657.32242  21569823.985    21569821.232
 03  6  9  3 25 30.0000000  0  7G27G16G 3G20G 1G13G 2
  22866495.535   -14581801.39443 -11155666.94742  22866497.966    22866495.935
  22334141.032   -17494347.03043 -13589518.94242  22334143.172    22334139.398
  23977333.616    -9841225.22943  -7637157.76742  23977336.143    23977334.532
  22095300.411   -18944791.76043 -14483644.51242  22095302.388    22095299.793
  20453878.686   -28132140.95744 -21687281.49042  20453880.982    20453877.773
  21068069.131   -24081284.39544 -18757266.38242  21068071.996    21068067.501
  21576834.774   -20692383.68744 -16080941.13742  21576836.744    21576833.978
 03  6  9  3 26  0.0000000  0  7G27G16G 3G20G 1G13G 2
  22855530.620   -14639422.30943 -11200566.30542  22855533.011    22855530.895
  22347448.877   -17424413.79543 -13535025.51242  22347451.026    22347447.271
  23963925.244    -9911686.32443  -7692062.42042  23963927.761    23963926.166
  22113130.352   -18851094.96943 -14410634.05042  22113132.327    22113129.729
  20453813.693   -28132482.48944 -21687547.60842  20453815.986    20453812.769
  21058025.256   -24134065.17944 -18798394.24142  21058028.136    21058023.638
  21583929.923   -20655098.30744 -16051887.58342  21583931.881    21583929.116
 03  6  9  3 26 30.0000000  0  7G27G16G 3G20G 1G13G 2
  22844592.862   -14696900.12643 -11245354.14542  22844595.283    22844593.137
  22360833.276   -17354078.26143 -13480218.60542  22360835.430    22360831.655
  23950551.049    -9981967.55543  -7746826.93742  23950553.674    23950552.102
  22131018.931   -18757090.05843 -14337383.49442  22131020.921    22131018.275
  20453807.670   -28132514.20744 -21687572.31142  20453809.960    20453806.741
  21048023.700   -24186623.79744 -18839348.98642  21048026.572    21048022.059
  21591102.163   -20617407.77944 -16022518.32842  21591104.120    21591101.377
 03  6  9  3 27  0.0000000  0  7G27G16G 3G20G 1G13G 2
  22833683.502   -14754229.10343 -11290026.02742  22833685.873    22833683.727
  22374294.897   -17283336.91043 -13425095.47642  22374297.087    22374293.263
  23937212.880   -10052059.81343  -7801444.17742  23937215.401    23937213.796
  22148966.725   -18662773.91143 -14263890.42242  22148968.718    22148966.065
  20453861.944   -28132228.98944 -21687350.05342  20453864.226    20453860.993
  21038065.802   -24238952.90944 -18880124.89342  21038068.669    21038064.138
  21598352.355   -20579307.70744 -15992829.95242  21598354.303    21598351.545
 03  6  9  3 27 30.0000000  0  7G27G16G 3G20G 1G13G 2
  22822804.637   -14811397.80243 -11334573.00442  22822807.008    22822804.772
  22387835.537   -17212180.50943 -13369648.93042  22387837.708    22387833.855
  23923913.491   -10121948.38843  -7855902.71942  23923915.930    23923914.286
  22166975.401   -18568137.83843 -14190148.05542  22166977.379    22166974.735
  20453978.897   -28131614.31044 -21686871.06942  20453981.182    20453977.937
  21028154.092   -24291039.17244 -18920711.57142  21028156.951    21028152.416
  21605682.363   -20540788.11844 -15962814.67842  21605684.321    21605681.544
 03  6  9  3 28  0.0000000  0  7G27G16G 3G20G 1G13G 2
  22811948.963   -14868444.18543 -11379024.69042  22811951.381    22811949.126
  22401447.567   -17140648.82143 -13313909.95542  22401449.737    22401445.873
  23910646.189   -10191668.00643  -7910229.61642  23910648.709    23910646.992
  22185037.362   -18473221.76843 -14116187.50842  22185039.368    22185036.683
  20454151.648   -28130706.41944 -21686163.60942  20454153.919    20454150.701
  21018281.724   -24342918.64244 -18961137.10942  21018284.586    21018280.058
  21613084.809   -20501887.96644 -15932502.86242  21613086.754    21613083.973
 03  6  9  3 28 30.0000000  0  8G27G16G 3G 8G20G 1G13G 2
  22801123.343   -14925332.93043 -11423353.53542  22801125.759    22801123.517
  22415137.259   -17068708.99243 -13257852.94542  22415139.450    22415135.555
  23897418.323   -10261180.20543  -7964394.86742  23897420.886    23897419.179
  24733451.555    -5184017.64453  -4032384.21152  24733452.884    24733453.680
  22203158.743   -18377993.34743 -14041983.57842  22203160.754    22203158.096
  20454387.153   -28129468.85644 -21685199.26342  20454389.409    20454386.211
  21008455.798   -24394554.09544 -19001372.50742  21008458.661    21008454.130
  21620566.135   -20462573.31644 -15901868.06142  21620568.086    21620565.305
 03  6  9  3 29  0.0000000  0  8G27G16G 3G 8G20G 1G13G 2
  22790326.508   -14982070.34843 -11467564.45142  22790328.903    22790326.712
  22428902.946   -16996369.78243 -13201484.73542  22428905.138    22428901.250
  23884229.361   -10330488.33643  -8018401.10742  23884231.897    23884230.120
  24717195.454    -5269443.97643  -4098950.06342  24717196.787    24717197.437
  22221337.817   -18282461.60343 -13967543.29142  22221339.851    22221337.228
  20454684.385   -28127906.80544 -21683982.07042  20454686.656    20454683.451
  20998675.445   -24445950.07344 -19041421.30042  20998678.314    20998673.782
  21628124.827   -20422852.04644 -15870916.41442  21628126.803    21628123.987
 03  6  9  3 29 30.0000000  0  8G27G16G 3G 8G20G 1G13G 2
  22779561.295   -15038641.65043 -11511645.93642  22779563.705    22779561.511
  22442747.147   -16923618.22243 -13144795.21442  22442749.289    22442745.400
  23871082.728   -10399573.98543  -8072234.00642  23871085.214    23871083.472
  24700961.734    -5354752.70643  -4165424.27142  24700962.981    24700963.544
  22239577.016   -18186613.94243 -13892856.83542  22239579.035    22239576.460
  20455046.437   -28126003.99744 -21682499.35142  20455048.713    20455045.546
  20988943.855   -24497089.79144 -19081270.40542  20988946.727    20988942.201
  21635763.492   -20382710.47844 -15839637.26442  21635765.467    21635762.669
 03  6  9  3 30  0.0000000  0  8G27G16G 3G 8G20G 1G13G 2
  22768824.587   -15095063.36143 -11555610.86142  22768826.974    22768824.767
  22456666.212   -16850473.05043 -13087798.98842  22456668.360    22456664.469
  23857975.895   -10468450.30043  -8125903.77442  23857978.376    23857976.630
  24684747.205    -5439959.68843  -4231819.22342  24684748.556    24684748.945
  22257872.735   -18090469.44243 -13817939.07442  22257874.733    22257872.159
  20455470.481   -28123775.60144 -21680762.92642  20455472.747    20455469.575
  20979258.222   -24547987.88444 -19120931.23142  20979261.096    20979256.609
  21643478.771   -20342166.47444 -15808044.52842  21643480.705    21643477.927
 03  6  9  3 30 30.0000000  0  8G27G16G 3G 8G20G 1G13G 2
  22758115.171   -15151341.72143 -11599464.08542  22758117.549    22758115.338
  22470658.559   -16776942.81943 -13030502.71142  22470660.698    22470656.812
  23844908.434   -10537120.26943  -8179412.76042  23844910.790    23844909.119
  24668551.129    -5525070.65543  -4298139.35242  24668552.334    24668552.877
  22276223.218   -17994037.12743 -13742797.04342  22276225.198    22276222.608
  20455955.523   -28121226.69944 -21678776.76242  20455957.783    20455954.603
  20969617.770   -24598648.76444 -19160407.21742  20969620.630    20969616.119
  21651269.099   -20301227.82644 -15776144.28042  21651271.033    21651268.289
 03  6  9  3 31  0.0000000  0  8G27G16G 3G 8G20G 1G13G 2
  22747432.342   -15207480.20143 -11643208.30842  22747434.752    22747432.493
  22484723.090   -16703033.38843 -12972910.96042  22484725.222    22484721.311
  23831880.121   -10605584.08643  -8232761.10542  23831882.455    23831880.787
  24652372.617    -5610088.64043  -4364387.02142  24652373.835    24652374.384
  22294627.291   -17897322.95943 -13667435.38442  22294629.305    22294626.732
  20456501.145   -28118359.45044 -21676542.53042  20456503.392    20456500.233
  20960022.132   -24649074.13244 -19199699.68842  20960024.985    20960020.464
  21659133.651   -20259899.33344 -15743940.25242  21659135.561    21659132.828
 03  6  9  3 31 30.0000000  0  8G27G16G 3G 8G20G 1G13G 2
  22736779.999   -15263458.60243 -11686827.80042  22736782.393    22736780.171
  22498863.204   -16628726.60443 -12915009.57342  22498865.335    22498861.432
  23818895.508   -10673818.41343  -8285930.63442  23818897.797    23818896.131
  24636215.856    -5694992.60143  -4430545.88642  24636216.852    24636217.525
  22313088.397   -17800309.28543 -13591840.35042  22313090.400    22313087.853
  20457111.482   -28115152.17344 -21674043.34642  20457113.726    20457110.550
  20950475.551   -24699241.71044 -19238791.28342  20950478.393    20950473.871
  21667075.950   -20218162.13244 -15711417.75142  21667077.871    21667075.155
 03  6  9  3 32  0.0000000  0  9G27G16G 3G 8G20G 1G13G 2G31
  22726158.157   -15319276.73243 -11730322.39942  22726160.525    22726158.317
  22513078.533   -16554024.46343 -12856800.12742  22513080.652    22513076.780
  23805955.199   -10741819.69543  -8338918.55842  23805957.572    23805955.792
  24620080.969    -5779781.73043  -4496615.22342  24620081.863    24620082.624
  22331606.103   -17702998.38543 -13516013.71342  22331608.043    22331605.554
  20457786.772   -28111603.51744 -21671278.15042  20457789.019    20457785.855
  20940978.440   -24749149.33444 -19277680.31542  20940981.288    20940976.765
  21675095.829   -20176017.31244 -15678577.62642  21675097.764    21675095.032
  24557444.192    -4976625.81053  -3828039.17652  24557447.044    24557447.061
 03  6  9  3 32 30.0000000  0  9G27G16G 3G 8G20G 1G13G 2G31
  22715560.506   -15374967.63843 -11773717.87042  22715562.881    22715560.640
  22527362.427   -16478961.98243 -12798309.90042  22527364.545    22527360.668
  23793053.509   -10809617.75143  -8391748.14242  23793055.888    23793054.220
  24603961.849    -5864488.80843  -4562620.66442  24603962.765    24603963.218
  22350173.568   -17605426.00443 -13439983.32242  22350175.487    22350173.001
  20458520.964   -28107745.32344 -21668271.75942  20458523.199    20458520.030
  20931524.864   -24798828.19044 -19316391.08242  20931527.720    20931523.173
  21683186.724   -20133499.22644 -15645446.64442  21683188.669    21683185.955
  24540125.665    -5067634.54643  -3898954.79242  24540128.491    24540128.376
 03  6  9  3 33  0.0000000  0  9G27G16G 3G 8G20G 1G13G 2G31
  22704990.300   -15430514.16243 -11817000.83342  22704992.702    22704990.472
  22541717.722   -16403524.43343 -12739527.39642  22541719.835    22541715.972
  23780194.384   -10877192.25943  -8444403.51842  23780196.815    23780195.211
  24587861.616    -5949096.17943  -4628548.39742  24587862.422    24587862.856
  22368793.569   -17507577.54443 -13363737.80342  22368795.468    22368792.999
  20459317.590   -28103559.00544 -21665009.68642  20459319.815    20459316.635
  20922118.386   -24848259.27444 -19354908.78642  20922121.291    20922116.712
  21691351.657   -20090592.21844 -15612012.60942  21691353.583    21691350.873
  24522798.500    -5158688.42343  -3969905.59942  24522801.272    24522801.179
 03  6  9  3 33 30.0000000  0  9G27G16G 3G 8G20G 1G13G 2G31
  22694448.545   -15485911.18743 -11860167.30342  22694450.952    22694448.740
  22556144.892   -16327708.95043 -12680450.41542  22556147.034    22556143.149
  23767379.529   -10944534.71843  -8496878.08342  23767381.870    23767380.265
  24571781.295    -6033597.72943  -4694393.68542  24571782.146    24571782.701
  22387466.580   -17409450.25043 -13287275.01342  22387468.480    22387466.028
  20460177.874   -28099038.16044 -21661486.94342  20460180.097    20460176.914
  20912760.471   -24897435.31044 -19393227.74642  20912763.390    20912758.810
  21699591.329   -20047292.37644 -15578272.46642  21699593.261    21699590.576
  24505464.347    -5249778.91643  -4040884.95042  24505467.105    24505467.009
 03  6  9  3 34  0.0000000  0  9G27G16G 3G 8G20G 1G13G 2G31
  22683936.748   -15541150.93443 -11903211.22242  22683939.160    22683936.897
  22570645.073   -16251509.93943 -12621074.57442  22570647.190    22570643.325
  23754610.901   -11011634.28043  -8549163.38042  23754613.204    23754611.542
  24555722.737    -6117985.44843  -4760150.23642  24555723.697    24555724.094
  22406193.635   -17311039.13443 -13210591.06342  22406195.529    22406193.055
  20461103.474   -28094173.90444 -21657696.61142  20461105.712    20461102.536
  20903452.930   -24946346.83444 -19431340.59742  20903455.816    20903451.216
  21707906.945   -20003593.53344 -15544221.42142  21707908.887    21707906.188
  24488125.318    -5340895.18243  -4111884.37942  24488128.180    24488127.821
 03  6  9  3 34 30.0000000  0  9G27G16G 3G 8G20G 1G13G 2G31
  22673453.208   -15596242.23443 -11946139.46842  22673455.574    22673453.335
  22585216.062   -16174938.65843 -12561408.65642  22585218.200    22585214.322
  23741887.437   -11078496.33343  -8601263.60742  23741889.786    23741888.023
  24539684.299    -6202267.48343  -4825824.46542  24539685.242    24539685.687
  22424972.466   -17212355.61643 -13133694.85442  22424974.411    22424971.923
  20462093.025   -28088973.70444 -21653644.50142  20462095.276    20462092.098
  20894194.407   -24995000.56544 -19469252.56842  20894197.312    20894192.690
  21716296.526   -19959505.89544 -15509867.41042  21716298.495    21716295.787
  24470780.329    -5432042.84643  -4182908.30542  24470783.094    24470782.816
 03  6  9  3 35  0.0000000  0  9G27G16G 3G 8G20G 1G13G 2G31
  22662992.973   -15651211.00343 -11988972.23942  22662995.324    22662993.077
  22599852.619   -16098023.06643 -12501474.43742  22599854.758    22599850.880
  23729204.824   -11145143.77543  -8653196.61442  23729207.242    23729205.386
  24523661.115    -6286469.36343  -4891436.21742  24523662.036    24523662.547
  22443797.770   -17113428.20543 -13056608.58942  22443799.706    22443797.218
  20463141.801   -28083462.37344 -21649349.94942  20463144.047    20463140.853
  20884980.353   -25043420.64744 -19506982.47742  20884983.255    20884978.628
  21724754.896   -19915056.85344 -15475231.78842  21724756.856    21724754.170
  24453424.979    -5523244.75943  -4253974.50942  24453427.818    24453427.261
 03  6  9  3 35 30.0000000  0  9G27G16G 3G 8G20G 1G13G 2G31
  22652565.959   -15706005.09543 -12031668.89342  22652568.304    22652566.042
  22614564.148   -16020713.41543 -12441233.15942  22614566.287    22614562.432
  23716573.597   -11211521.24543  -8704919.25642  23716576.043    23716574.051
  24507663.186    -6370538.33343  -4956944.39542  24507664.111    24507664.812
  22462678.905   -17014207.28843 -12979293.63342  22462680.835    22462678.357
  20464259.978   -28077586.36444 -21644771.23442  20464262.238    20464258.990
  20875821.059   -25091552.89744 -19544488.10142  20875823.938    20875819.337
  21733291.673   -19870195.66344 -15440275.01542  21733293.645    21733290.976
  24436069.938    -5614445.34843  -4325039.66842  24436072.686    24436072.066
 03  6  9  3 36  0.0000000  0  9G27G16G 3G 8G20G 1G13G 2G31
  22642166.675   -15760653.33943 -12074251.89442  22642169.068    22642166.760
  22629344.822   -15943040.72143 -12380708.99942  22629346.903    22629343.035
  23703988.798   -11277654.35043  -8756451.47742  23703991.281    23703989.205
  24491685.292    -6454502.52343  -5022370.96042  24491686.278    24491686.679
  22481609.908   -16914724.38343 -12901774.51742  22481611.817    22481609.352
  20465442.299   -28071373.21144 -21639929.81142  20465444.582    20465441.290
  20866711.443   -25139424.18544 -19581790.38142  20866714.294    20866709.687
  21741901.114   -19824952.57444 -15405020.65842  21741903.089    21741900.450
  24418710.282    -5705670.39043  -4396123.91342  24418712.874    24418712.303
 03  6  9  3 36 30.0000000  0  9G27G16G 3G 8G20G 1G13G 2G31
  22631795.209   -15815155.69643 -12116721.21242  22631797.597    22631795.293
  22644194.099   -15865007.05443 -12319903.55642  22644196.223    22644192.367
  23691451.256   -11343539.54643  -8807790.52842  23691453.702    23691451.568
  24475727.262    -6538361.51343  -5087715.53942  24475728.237    24475728.876
  22500590.315   -16814981.92443 -12824053.15842  22500592.201    22500589.721
  20466689.024   -28064821.50044 -21634824.57442  20466691.323    20466688.036
  20857651.849   -25187032.44944 -19618887.70542  20857654.721    20857650.095
  21750583.014   -19779328.90244 -15369469.74242  21750584.966    21750582.328
  24401346.482    -5796916.40643  -4467224.51042  24401349.129    24401348.598
 03  6  9  3 37  0.0000000  0  9G27G16G 3G 8G20G 1G13G 2G31
  22621452.364   -15869507.90943 -12159073.55142  22621454.688    22621452.330
  22659112.469   -15786610.55043 -12258815.38242  22659114.638    22659110.755
  23678962.272   -11409169.24843  -8858930.49542  23678964.722    23678962.577
  24459790.247    -6622110.40243  -5152974.30142  24459791.204    24459791.996
  22519620.359   -16714978.43043 -12746128.38642  22519622.275    22519619.788
  20468001.241   -28057925.76144 -21629451.26242  20468003.525    20468000.214
  20848643.479   -25234371.69144 -19655775.40542  20848646.344    20848641.716
  21759337.846   -19733321.85944 -15333620.09642  21759339.781    21759337.181
  24383980.209    -5888175.94743  -4538335.65242  24383982.915    24383982.336
 03  6  9  3 37 30.0000000  0  9G27G16G 3G 8G20G 1G13G 2G31
  22611134.702   -15923727.38943 -12201322.45842  22611137.012    22611134.671
  22674096.160   -15707870.74443 -12197459.70542  22674098.353    22674094.437
  23666519.249   -11474557.61543  -8909882.40242  23666521.743    23666519.485
  24443871.033    -6705766.25043  -5218160.55742  24443871.994    24443872.679
  22538696.306   -16614733.68143 -12668015.62442  22538698.266    22538695.724
  20469375.805   -28050702.17044 -21623822.48442  20469378.129    20469374.803
  20839683.399   -25281457.12944 -19692465.33742  20839686.288    20839681.637
  21768162.034   -19686950.50644 -15297486.57442  21768163.965    21768161.351
  24366608.665    -5979463.31543  -4609468.47942  24366611.336    24366610.716
 03  6  9  3 38  0.0000000  0  9G27G16G 3G 8G20G 1G13G 2G31
  22600846.582   -15977791.51243 -12243450.30942  22600848.910    22600846.582
  22689149.010   -15628767.34343 -12135820.70042  22689151.234    22689147.338
  23654127.112   -11539678.75143  -8960626.09242  23654129.495    23654127.307
  24427974.116    -6789305.55243  -5283256.03042  24427975.181    24427975.306
  22557821.971   -16514227.69143 -12589699.30742  22557823.932    22557821.407
  20470817.417   -28043126.57044 -21617919.41242  20470819.722    20470816.388
  20830776.284   -25328264.25644 -19728938.40242  20830779.165    20830774.513
  21777059.585   -19640193.44844 -15261052.50042  21777061.523    21777058.913
  24349236.892    -6070752.28043  -4680602.56742  24349239.470    24349238.713
 03  6  9  3 38 30.0000000  0  9G27G16G 3G 8G20G 1G13G 2G31
  22590583.040   -16031726.52743 -12285477.56142  22590585.374    22590583.045
  22704265.651   -15549328.91443 -12073920.64842  22704267.815    22704263.983
  23641781.409   -11604555.85343  -9011179.61442  23641783.784    23641781.510
  24412094.223    -6872754.20343  -5348280.85142  24412095.297    24412095.622
  22576991.828   -16413489.41843 -12511201.98442  22576993.810    22576991.300
  20472321.175   -28035224.23444 -21611761.74342  20472323.474    20472320.158
  20821917.511   -25374817.35944 -19765213.52942  20821920.379    20821915.725
  21786025.250   -19593078.57144 -15224339.60642  21786027.185    21786024.586
  24331860.420    -6162066.11043  -4751756.03942  24331862.951    24331862.011
 03  6  9  3 39  0.0000000  0  9G27G16G 3G 8G20G 1G13G 2G31
  22580353.283   -16085484.19643 -12327366.62142  22580355.594    22580353.261
  22719454.796   -15469509.52243 -12011723.74042  22719456.932    22719453.099
  23629491.949   -11669137.36343  -9061502.81442  23629494.268    23629492.056
  24396240.927    -6956063.46643  -5413197.04442  24396241.902    24396242.330
  22596214.602   -16312473.10243 -12432488.01142  22596216.600    22596214.089
  20473896.531   -28026945.50244 -21605310.77642  20473898.836    20473895.539
  20813116.623   -25421066.16444 -19801251.54142  20813119.482    20813114.840
  21795067.946   -19545558.97644 -15187311.35142  21795069.870    21795067.247
  24314488.985    -6253353.13143  -4822888.61942  24314491.581    24314490.629
 03  6  9  3 39 30.0000000  0  9G27G16G 3G 8G20G 1G13G 2G31
  22570147.276   -16139117.07043 -12369158.42942  22570149.574    22570147.222
  22734706.052   -15389363.84143 -11949272.57042  22734708.163    22734704.322
  23617249.186   -11733472.71843  -9111634.20142  23617251.607    23617249.390
  24380404.417    -7039285.33843  -5478045.16142  24380405.363    24380405.514
  22615479.733   -16211234.03343 -12353600.45842  22615481.765    22615479.282
  20475533.730   -28018341.97244 -21598606.72142  20475536.003    20475532.725
  20804364.040   -25467061.42244 -19837091.98242  20804366.875    20804362.221
  21804177.350   -19497688.79344 -15150009.91142  21804179.259    21804176.641
  24297113.216    -6344662.74043  -4894038.81142  24297115.869    24297114.761
 03  6  9  3 40  0.0000000  0  9G27G16G 3G 8G20G 1G13G 2G31
  22559968.862   -16192604.59743 -12410836.98342  22559971.211    22559968.840
  22750022.795   -15308873.70243 -11886553.00342  22750024.940    22750021.107
  23605057.843   -11797538.11043  -9161555.23142  23605060.305    23605058.023
  24364588.372    -7122398.90343  -5542808.87442  24364589.295    24364589.385
  22634790.723   -16109754.26243 -12274525.33942  22634792.711    22634790.248
  20477236.910   -28009391.86144 -21591632.60442  20477239.158    20477235.880
  20795663.996   -25512780.38744 -19872717.13242  20795666.836    20795662.156
  21813357.100   -19449448.91344 -15112420.39342  21813359.026    21813356.386
  24279737.828    -6435971.04143  -4965187.99442  24279740.301    24279739.185
 03  6  9  3 40 30.0000000  0  9G27G16G 3G 8G20G 1G13G 2G31
  22549821.040   -16245931.44443 -12452390.32942  22549823.389    22549821.042
  22765407.607   -15228026.11243 -11823554.89742  22765409.713    22765405.941
  23592921.397   -11861315.03243  -9211251.47242  23592923.856    23592921.560
  24348795.972    -7205388.06443  -5607475.64742  24348796.950    24348796.873
  22654149.918   -16008020.94143 -12195252.65842  22654151.907    22654149.463
  20479009.172   -28000078.44044 -21584375.38842  20479011.439    20479008.155
  20787019.822   -25558205.72444 -19908113.48342  20787022.672    20787018.020
  21822609.781   -19400825.69544 -15074532.16542  21822611.721    21822609.072
  24262366.178    -6527259.37643  -5036321.61242  24262368.670    24262367.455
 03  6  9  3 41  0.0000000  0  9G27G16G 3G 8G20G 1G13G 2G31
  22539696.645   -16299135.32743 -12493847.86442  22539698.969    22539696.618
  22780852.829   -15146860.84943 -11760309.24642  22780854.974    22780851.181
  23580833.416   -11924837.71143  -9260749.58842  23580835.810    23580833.543
  24333020.220    -7288289.98843  -5672074.44342  24333021.157    24333021.066
  22673549.688   -15906074.57243 -12115813.97642  22673551.655    22673549.200
  20480843.634   -27990438.13144 -21576863.45542  20480845.907    20480842.650
  20778424.705   -25603373.27944 -19943308.96342  20778427.546    20778422.898
  21831928.005   -19351858.11244 -15036375.60542  21831929.952    21831927.291
  24244991.754    -6618561.99743  -5107466.36942  24244994.243    24244992.862
 03  6  9  3 41 30.0000000  0  9G27G16G 3G 8G20G 1G13G 2G31
  22529600.131   -16352192.77143 -12535191.30342  22529602.438    22529600.061
  22796362.524   -15065356.92143 -11696799.70742  22796364.697    22796360.919
  23568798.783   -11988079.86443  -9310029.14042  23568801.162    23568798.926
  24317265.646    -7371080.79043  -5736586.65742  24317266.602    24317266.341
  22692993.949   -15803894.26443 -12036192.98742  22692995.924    22692993.503
  20482744.969   -27980446.53544 -21569077.79542  20482747.220    20482743.991
  20769883.469   -25648257.66544 -19978283.79442  20769886.315    20769881.662
  21841315.955   -19302524.22243 -14997933.60942  21841317.902    21841315.217
  24227619.686    -6709852.36043  -5178601.56142  24227622.193    24227620.788
 03  6  9  3 42  0.0000000  0  9G27G16G 3G 8G20G 1G13G 2G31
  22519530.386   -16405109.70643 -12576425.27442  22519532.679    22519530.247
  22811935.193   -14983522.24043 -11633032.45442  22811937.366    22811933.575
  23556817.112   -12051044.07643  -9359092.11142  23556819.438    23556817.200
  24301531.155    -7453765.79043  -5801016.42842  24301532.048    24301531.926
  22712481.207   -15701488.15743 -11956396.06442  22712483.204    22712480.782
  20484712.270   -27970108.19044 -21561021.93742  20484714.514    20484711.319
  20761395.459   -25692862.43644 -20013040.74242  20761398.297    20761393.618
  21850772.208   -19252831.40544 -14959211.92942  21850774.144    21850771.422
  24210249.522    -6801132.74043  -5249728.99442  24210251.934    24210250.533
 03  6  9  3 42 30.0000000  0  9G27G16G 3G 8G20G 1G13G 2G31
  22509487.616   -16457884.52143 -12617548.49242  22509489.933    22509487.530
  22827570.607   -14901357.74543 -11569008.19842  22827572.769    22827569.007
  23544889.191   -12113725.55143  -9407934.75842  23544891.573    23544889.287
  24285817.028    -7536343.08643  -5865362.24842  24285817.973    24285818.048
  22732011.167   -15598857.83143 -11876424.41742  22732013.145    22732010.737
  20486746.047   -27959420.54644 -21552693.90142  20486748.303    20486745.106
  20752961.262   -25737184.43344 -20047577.34842  20752964.076    20752959.410
  21860296.717   -19202779.72344 -14920210.61742  21860298.669    21860295.922
  24192882.059    -6892398.58243  -5320845.08342  24192884.570    24192883.086
 03  6  9  3 43  0.0000000  0  9G27G16G 3G 8G20G 1G13G 2G31
  22499475.540   -16510498.57843 -12658546.43742  22499477.824    22499475.415
  22843271.925   -14818846.93943 -11504714.06542  22843274.090    22843270.321
  23533019.208   -12176102.40343  -9456540.04442  23533021.617    23533019.353
  24270127.147    -7618793.41743  -5929609.14442  24270128.074    24270128.171
  22751586.859   -15495986.99543 -11796265.37542  22751588.802    22751586.433
  20488850.116   -27948363.55744 -21544078.06442  20488852.374    20488849.192
  20744584.781   -25781203.05944 -20081877.56242  20744587.603    20744582.927
  21869892.785   -19152352.06143 -14880916.33242  21869894.718    21869891.988
  24175521.509    -6983627.68443  -5391932.55742  24175524.017    24175522.681
 03  6  9  3 43 30.0000000  0  9G27G16G 3G 8G20G 1G13G 2G31
  22489489.408   -16562975.81043 -12699437.74742  22489491.733    22489489.312
  22859034.124   -14736016.16343 -11440170.62442  22859036.282    22859032.551
  23521203.254   -12238195.50143  -9504924.22642  23521205.668    23521203.358
  24254457.085    -7701140.21943  -5993775.39542  24254458.031    24254458.089
  22771203.288   -15392902.23943 -11715939.63242  22771205.228    22771202.846
  20491020.166   -27936959.81144 -21535192.02542  20491022.412    20491019.231
  20736261.814   -25824940.45244 -20115958.63442  20736264.622    20736259.978
  21879555.538   -19101573.83044 -14841348.87542  21879557.487    21879554.737
  24158164.053    -7074840.63143  -5463007.43442  24158166.624    24158165.279
 03  6  9  3 44  0.0000000  0  9G27G16G 3G 8G20G 1G13G 2G31
  22479527.028   -16615328.37543 -12740231.93142  22479529.369    22479526.931
  22874854.432   -14652879.92243 -11375389.15342  22874856.587    22874852.846
  23509439.721   -12300013.59643  -9553094.12142  23509442.060    23509439.681
  24238804.416    -7783395.22743  -6057870.09442  24238805.318    24238805.506
  22790857.574   -15289618.33943 -11635458.71242  22790859.542    22790857.137
  20493254.070   -27925220.51044 -21526044.51342  20493256.338    20493253.150
  20727990.536   -25868406.17044 -20149828.01042  20727993.358    20727988.677
  21889282.406   -19050458.80943 -14801518.98542  21889284.370    21889281.591
  24140808.000    -7166046.32043  -5534076.65942  24140810.662    24140809.250
 03  6  9  3 44 30.0000000  0  9G27G16G 3G 8G20G 1G13G 2G31
  22469593.462   -16667529.47143 -12780908.07842  22469595.829    22469593.364
  22890737.548   -14569413.60643 -11310350.47742  22890739.705    22890735.964
  23497734.086   -12361527.06443  -9601026.65042  23497736.388    23497733.980
  24223174.461    -7865530.85943  -6121871.77942  24223175.518    24223175.241
  22810554.350   -15186111.24743 -11554803.87442  22810556.313    22810553.966
  20495557.201   -27913117.55344 -21516613.63342  20495559.478    20495556.268
  20719776.388   -25911571.58544 -20183463.37942  20719779.238    20719774.545
  21899078.167   -18998981.67343 -14761406.92642  21899080.147    21899077.367
  24123459.208    -7257214.46943  -5605116.61942  24123461.807    24123460.277
 03  6  9  3 45  0.0000000  0  9G27G16G 3G 8G20G 1G13G 2G31
  22459688.707   -16719579.12443 -12821466.22742  22459691.076    22459688.624
  22906683.032   -14485619.57743 -11245056.43442  22906685.142    22906681.414
  23486086.958   -12422732.48143  -9648719.14042  23486089.299    23486086.846
  24207567.176    -7947546.86043  -6185780.24942  24207568.206    24207568.026
  22830293.136   -15082383.54043 -11473977.14042  22830295.085    22830292.742
  20497929.721   -27900649.89644 -21506898.57242  20497932.003    20497928.799
  20711619.813   -25954434.72444 -20216863.21642  20711622.655    20711617.935
  21908942.532   -18947144.07043 -14721013.98642  21908944.505    21908941.731
  24106118.241    -7348341.68143  -5676124.68342  24106120.728    24106119.064
 03  6  9  3 45 30.0000000  0  9G27G16G 3G 8G20G 1G13G 2G31
  22449807.962   -16771502.80543 -12861926.21042  22449810.319    22449807.848
  22922685.640   -14401525.58343 -11179528.66642  22922687.769    22922683.948
  23474494.292   -12483652.05443  -9696188.88442  23474496.660    23474494.179
  24191977.891    -8029468.17543  -6249614.93342  24191978.874    24191978.745
  22850068.562   -14978463.24343 -11393000.34242  22850070.483    22850068.208
  20500367.021   -27887841.79244 -21496918.23142  20500369.315    20500366.067
  20703516.263   -25997019.10144 -20250045.83442  20703519.100    20703514.373
  21918870.389   -18894972.89143 -14680361.11642  21918872.362    21918869.557
  24088780.789    -7439450.06543  -5747118.09342  24088783.266    24088781.596
 03  6  9  3 46  0.0000000  0  9G27G16G 3G 8G20G 1G13G 2G31
  22439954.710   -16823281.89543 -12902273.52542  22439957.071    22439954.604
  22938748.423   -14317115.26043 -11113754.40342  22938750.531    22938746.729
  23462960.159   -12544264.24543  -9743419.12642  23462962.542    23462959.975
  24176410.247    -8111275.73343  -6313360.97342  24176411.224    24176411.121
  22869883.638   -14874334.34543 -11311860.98342  22869885.636    22869883.295
  20502872.856   -27874673.54144 -21486657.25342  20502875.135    20502871.882
  20695469.676   -26039304.12844 -20282995.18942  20695472.504    20695467.799
  21928864.930   -18842451.22843 -14639435.14042  21928866.904    21928864.087
  24071451.087    -7530517.75843  -5818079.78942  24071453.488    24071451.760
 03  6  9  3 46 30.0000000  0  9G27G16G 3G 8G20G 1G13G 2G31
  22430133.995   -16874890.03843 -12942487.65142  22430136.326    22430133.894
  22954875.899   -14232364.77543 -11047715.08342  22954878.020    22954874.223
  23451490.152   -12604539.46043  -9790386.77642  23451492.496    23451490.044
  24160869.570    -8192942.68343  -6376997.45842  24160870.563    24160870.411
  22889742.930   -14769973.16943 -11230540.61942  22889744.958    22889742.621
  20505452.460   -27861117.59844 -21476094.17642  20505454.730    20505451.483
  20687485.454   -26081261.43944 -20315689.18242  20687488.287    20687483.573
  21938930.885   -18789554.19943 -14598216.67342  21938932.878    21938930.039
  24054134.853    -7621514.85943  -5888986.49242  24054137.276    24054135.423
 03  6  9  3 47  0.0000000  0  9G27G16G 3G 8G20G 1G13G 2G31
  22420334.522   -16926386.56943 -12982614.79942  22420336.852    22420334.436
  22971056.418   -14147335.43043 -10981458.46242  22971058.554    22971054.770
  23440073.592   -12664533.84143  -9837135.60542  23440075.881    23440073.387
  24145344.284    -8274527.74643  -6440570.11242  24145345.364    24145345.208
  22909634.712   -14665441.61943 -11149087.51542  22909636.737    22909634.355
  20508094.805   -27847232.01544 -21465274.23842  20508097.053    20508093.827
  20679552.720   -26122948.24044 -20348172.38942  20679555.565    20679550.831
  21949056.704   -18736342.75543 -14556753.20742  21949058.669    21949055.837
  24036821.330    -7712497.36943  -5959881.82242  24036823.838    24036821.898
 03  6  9  3 47 30.0000000  0  9G27G16G 3G 8G20G 1G13G 2G31
  22410558.889   -16977757.90243 -13022644.39642  22410561.192    22410558.772
  22987292.242   -14062015.76943 -10914975.63042  22987294.346    22987290.576
  23428713.632   -12724230.79943  -9883652.68942  23428715.935    23428713.395
  24129837.353    -8356016.88043  -6504068.03742  24129838.475    24129838.182
  22929560.921   -14560729.04943 -11067493.35042  22929562.907    22929560.534
  20510802.640   -27833002.22844 -21454186.08942  20510804.894    20510801.664
  20671674.373   -26164349.18644 -20380432.85142  20671677.244    20671672.446
  21959244.614   -18682804.84543 -14515035.35042  21959246.611    21959243.762
  24019513.852    -7803448.27843  -6030752.53842  24019516.324    24019514.412
 03  6  9  3 48  0.0000000  0  9G27G16G 3G 8G20G 1G13G 2G31
  22400809.738   -17028990.01243 -13062565.50042  22400812.032    22400809.613
  23003585.459   -13976394.36943 -10848257.66142  23003587.562    23003583.781
  23417413.506   -12783612.99343  -9929924.47242  23417415.901    23417413.304
  24114351.289    -8437395.76743  -6567480.03642  24114352.378    24114352.134
  22949523.810   -14455823.69043 -10985748.95442  22949525.805    22949523.410
  20513578.855   -27818413.07944 -21442817.91442  20513581.128    20513577.881
  20663853.554   -26205447.88344 -20412457.79442  20663856.411    20663851.602
  21969497.055   -18628927.95943 -14473053.35642  21969499.028    21969496.210
  24002215.731    -7894350.07643  -6101585.00242  24002218.196    24002216.219
 03  6  9  3 48 30.0000000  0  9G27G16G 3G 8G20G 1G13G 2G31
  22391090.033   -17080067.38443 -13102366.02642  22391092.324    22391089.864
  23019938.596   -13890458.06243 -10781294.32842  23019940.690    23019936.992
  23406176.815   -12842661.83943  -9975936.52842  23406179.245    23406176.669
  24098889.409    -8518648.05843  -6630793.40242  24098890.449    24098890.314
  22969525.787   -14350712.73843 -10903844.35642  22969527.810    22969525.392
  20516426.625   -27803447.82844 -21431156.67642  20516428.926    20516425.673
  20656093.519   -26246227.02444 -20444233.73342  20656096.372    20656091.578
  21979816.632   -18574698.23243 -14430796.42442  21979818.611    21979815.778
  23984930.583    -7985183.88643  -6172364.47842  23984933.026    23984931.003
 03  6  9  3 49  0.0000000  0  9G27G16G 3G 8G20G 1G13G 2G31
  22381401.960   -17130978.54743 -13142037.04142  22381404.233    22381401.754
  23036353.380   -13804197.81843 -10714078.55942  23036355.500    23036351.854
  23395006.241   -12901363.02043 -10021677.66442  23395008.776    23395006.092
  24083453.996    -8599762.15243  -6693999.08942  24083454.958    24083454.732
  22989568.519   -14245387.43643 -10821772.73742  22989570.596    22989568.182
  20519348.371   -27788093.94144 -21419192.60142  20519350.675    20519347.419
  20648396.839   -26286673.27944 -20475750.27942  20648399.682    20648394.900
  21990205.230   -18520105.63043 -14388256.73342  21990207.224    21990204.419
  23967661.148    -8075934.81343  -6243079.37642  23967663.605    23967661.596
 03  6  9  3 49 30.0000000  0  9G27G16G 3G 8G20G 1G13G 2G31
  22371739.142   -17181756.92643 -13181604.58842  22371741.419    22371738.905
  23052823.073   -13717649.22743 -10646638.11842  23052825.148    23052821.497
  23383896.219   -12959746.51243 -10067171.26742  23383898.730    23383896.022
  24068038.466    -8680770.75343  -6757122.57442  24068039.456    24068039.078
  23009645.215   -14139883.76143 -10739562.12642  23009647.303    23009644.922
  20522337.896   -27772383.88444 -21406950.99442  20522340.181    20522336.931
  20640757.584   -26326817.86944 -20507031.76442  20640760.403    20640755.624
  22000656.214   -18465185.31043 -14345461.67942  22000658.189    22000655.396
  23950401.856    -8166632.82443  -6313753.05342  23950404.333    23950402.288
 03  6  9  3 50  0.0000000  0  9G27G16G 3G 8G20G 1G13G 2G31
  22362103.069   -17232394.82243 -13221062.66042  22362105.365    22362102.806
  23069348.647   -13630806.71243 -10578968.63742  23069350.727    23069347.126
  23372848.743   -13017801.55943 -10112408.91942  23372851.096    23372848.476
  24052644.585    -8761665.80743  -6820157.58642  24052645.508    24052645.129
  23029756.788   -14034196.72843 -10657208.63242  23029758.863    23029756.553
  20525396.872   -27756308.73244 -21394424.89642  20525399.166    20525395.930
  20633177.544   -26366651.20044 -20538070.71042  20633180.370    20633175.576
  22011170.694   -18409931.36143 -14302406.64942  22011172.659    22011169.866
  23933154.697    -8257266.76443  -6384376.79842  23933157.144    23933155.052
 03  6  9  3 50 30.0000000  0  9G27G16G 3G 8G20G 1G13G 2G31
  22352491.503   -17282903.93943 -13260420.39742  22352493.801    22352491.201
  23085927.460   -13543684.48643 -10511081.20842  23085929.525    23085925.934
  23361861.964   -13075536.98243 -10157397.52742  23361864.405    23361861.721
  24037270.107    -8842458.53443  -6883112.86442  24037271.021    24037270.609
  23049900.563   -13928340.74143 -10574723.49442  23049902.634    23049900.319
  20528523.304   -27739879.07044 -21381622.55542  20528525.618    20528522.375
  20625654.851   -26406183.10944 -20568874.78042  20625657.663    20625652.891
  22021746.157   -18354356.96343 -14259101.92742  22021748.098    22021745.322
  23915918.175    -8347845.00243  -6454957.15042  23915920.538    23915918.485
 03  6  9  3 51  0.0000000  0  9G27G16G 3G 8G20G 1G13G 2G31
  22342905.231   -17333279.75543 -13299674.25642  22342907.574    22342904.968
  23102559.965   -13456280.24943 -10442974.02242  23102562.014    23102558.436
  23350937.569   -13132944.94743 -10202130.96342  23350939.974    23350937.294
  24021916.143    -8923143.87743  -6945984.45342  24021917.032    24021916.636
  23070076.809   -13822313.71843 -10492105.07542  23070078.862    23070076.686
  20531718.293   -27723089.33144 -21368539.63542  20531720.594    20531717.329
  20618190.849   -26445406.67144 -20599438.57942  20618193.668    20618188.866
  22032383.164   -18298459.14643 -14215545.18742  22032385.105    22032382.308
  23898693.729    -8438359.37443  -6525487.72442  23898696.167    23898694.140
 03  6  9  3 51 30.0000000  0  9G27G16G 3G 8G20G 1G13G 2G31
  22333343.979   -17383524.38343 -13338825.87742  22333346.306    22333343.711
  23119245.281   -13368598.38043 -10374650.49942  23119247.323    23119243.771
  23340075.698   -13190024.64543 -10246608.62442  23340078.113    23340075.378
  24006582.252    -9003723.71643  -7008773.86842  24006583.131    24006582.761
  23090284.724   -13716120.62443 -10409357.25642  23090286.781    23090284.607
  20534981.610   -27705940.58444 -21355176.97242  20534983.903    20534980.634
  20610785.416   -26484322.47444 -20629762.56642  20610788.235    20610783.429
  22043080.963   -18242241.87243 -14171739.51842  22043082.905    22043080.093
  23881481.726    -8528808.65943  -6595967.57542  23881484.132    23881482.184
 03  6  9  3 52  0.0000000  0  9G27G16G 3G 8G20G 1G13G 2G31
  22323814.204   -17433603.63143 -13377848.64342  22323816.522    22323813.910
  23135989.484   -13280607.12843 -10306085.91342  23135991.565    23135987.968
  23329283.358   -13246738.84243 -10290801.48142  23329285.777    23329283.042
  23991275.001    -9084163.18943  -7071453.88942  23991275.988    23991275.506
  23110530.276   -13609729.71043 -10326455.27642  23110532.308    23110530.165
  20538319.966   -27688397.46144 -21341507.00242  20538322.258    20538318.973
  20603445.561   -26522893.74544 -20659818.08842  20603448.374    20603443.562
  22053845.796   -18185672.34843 -14127659.37542  22053847.726    22053844.893
  23864289.268    -8619155.11643  -6666367.30942  23864291.679    23864289.708
 03  6  9  3 52 30.0000000  0  9G27G16G 3G 8G20G 1G13G 2G31
  22314310.099   -17483548.10443 -13416766.38742  22314312.376    22314309.767
  23152786.286   -13192339.12643 -10237305.65642  23152788.416    23152784.784
  23318555.268   -13303115.13043 -10334731.03042  23318557.634    23318554.989
  23975989.011    -9164492.57743  -7134048.15742  23975989.876    23975989.201
  23130807.137   -13503174.34343 -10243425.15642  23130809.163    23130807.020
  20541727.685   -27670489.80244 -21327552.97542  20541729.978    20541726.681
  20596165.705   -26561149.45544 -20689627.71642  20596168.565    20596163.729
  22064671.453   -18128783.10543 -14083330.09442  22064673.401    22064670.542
  23847111.172    -8709426.07443  -6736708.22142  23847113.521    23847111.604
 03  6  9  3 53  0.0000000  0  9G27G16G 3G 8G20G 1G13G 2G31
  22304828.721   -17533373.01743 -13455590.98042  22304830.993    22304828.390
  23169632.430   -13103812.18943 -10168323.64842  23169634.519    23169630.875
  23307889.150   -13359165.63443 -10378406.70442  23307891.542    23307888.946
  23960720.902    -9244726.58843  -7196568.08242  23960721.768    23960721.191
  23151111.864   -13396472.41343 -10160280.84042  23151113.887    23151111.769
  20545202.147   -27652231.55644 -21313325.76842  20545204.411    20545201.115
  20588943.370   -26599102.89544 -20719201.80942  20588946.245    20588941.420
  22075554.802   -18071590.85143 -14038764.70242  22075556.753    22075553.869
  23829945.269    -8799633.12043  -6806999.33142  23829947.661    23829945.616
 03  6  9  3 53 30.0000000  0  9G27G16G 3G 8G20G 1G13G 2G31
  22295372.113   -17583067.80543 -13494314.17342  22295374.367    22295371.777
  23186529.419   -13015018.20243 -10099133.54042  23186531.464    23186527.790
  23297287.644   -13414876.81843 -10421817.99842  23297290.004    23297287.463
  23945472.972    -9324854.24743  -7259005.13642  23945473.887    23945473.309
  23171445.977   -13289616.10443 -10077016.21542  23171448.002    23171445.909
  20548745.486   -27633611.30744 -21298816.47642  20548747.735    20548744.419
  20581780.959   -26636741.53144 -20748530.59742  20581783.836    20581779.021
  22086497.488   -18014086.62343 -13993956.21342  22086499.468    22086496.567
  23812794.163    -8889762.28643  -6877229.75242  23812796.571    23812794.560
 03  6  9  3 54  0.0000000  0  9G27G16G 3G 8G20G 1G13G 2G31
  22285939.778   -17632634.69543 -13532937.68542  22285942.055    22285939.519
  23203476.359   -12925961.29743 -10029738.56842  23203478.465    23203474.788
  23286750.921   -13470247.64843 -10464964.06442  23286753.249    23286750.721
  23930245.014    -9404877.13643  -7321360.54442  23930245.986    23930245.318
  23191808.588   -13182609.88943  -9993634.77242  23191810.649    23191808.504
  20552357.497   -27614629.91144 -21284025.77642  20552359.780    20552356.465
  20574678.529   -26674065.09444 -20777613.87842  20574681.376    20574676.563
  22097498.850   -17956274.19143 -13948907.56942  22097500.812    22097497.885
  23795658.107    -8979812.20343  -6947398.42142  23795660.553    23795658.578
 03  6  9  3 54 30.0000000  0  9G27G16G 3G 8G20G 1G13G 2G31
  22276536.709   -17682047.82143 -13571441.39942  22276539.001    22276536.484
  23220477.797   -12836618.08943  -9960120.48742  23220479.935    23220476.283
  23276284.473   -13525249.37143 -10507822.52042  23276286.791    23276284.222
  23915041.998    -9484769.16843  -7383613.99442  23915042.969    23915042.331
  23212204.174   -13075430.72543  -9910118.58242  23212206.255    23212204.072
  20556043.343   -27595260.71344 -21268932.88842  20556045.605    20556042.287
  20567641.221   -26711046.27844 -20806430.36642  20567644.085    20567639.261
  22108563.410   -17898129.41343 -13903599.94742  22108565.392    22108562.479
  23778542.780    -9069753.59043  -7017482.52242  23778545.132    23778543.280
